Darstellungsparameter: Aktuell verwendete Einstellungen:
Skalierung der Graphiken ... ?
xyx+y,   Skalierungsfaktor:      Skalierung: Modus: x, Faktor: 1
Darstellungszeitraum ... ?
Vom - - bis: - -   Zeitraum: 14.08.2018 - 13.02.2019
Min/Max/Avg-Anzeige ... ?
Zeige MMA aktuell
Zeige MMA Monat
Zeige MMA alles
Zeige --A aktuell
Zeige --A Monat
Zeige --A alles
Keine MMA-Anzeige
MMA:
Minimum Maximum Average (ber die Originaldaten)
MMA-Basis: 14.08.2018 - 13.02.2019
Quicknavigation für Darstellung... ?
Tage:      1T, 2T, 3T, 5T -1T -2T -3T -5T +1T +2T +3T +5T
Wochen: 1W, 2W, 3W -1W -2W -3W +1W +2W +3W
Monate: 1M, 3M, 6M -1M -3M -6M +1M +3M +6M
Jahre:    1J, 3J, 5J, 10J -1J -3J -5J -10J +1J +3J +5J +10J
Nutze für die Darstellung ... ?
Originaldaten oder Mittelwerte auf ...
Stundenbasis Tagesbasis Wochenbasis
Monatsbasis Jahresbasis      Datenbasis: Original-Daten
Darstellen als:
Statistik (Auto) Statistik J:M      Darstellung:
Zur Graphik,    zurück zur Übersicht aller Sensoren.
 
Tabellarische Datenbersicht: ?
 
Sensor: Nr:Datum:Temp:Feuchte:Taupunkt:
Aussen-T/F 1 14-08-2018 00:00:00 15.8 C 92 % 14.5 C
2 14-08-2018 00:05:00 15.8 C 93 % 14.67 C
3 14-08-2018 00:10:00 15.8 C 93 % 14.67 C
4 14-08-2018 00:15:00 15.8 C 93 % 14.67 C
5 14-08-2018 00:20:00 15.9 C 93 % 14.77 C
6 14-08-2018 00:25:00 15.9 C 93 % 14.77 C
7 14-08-2018 00:30:00 15.9 C 93 % 14.77 C
8 14-08-2018 00:35:00 15.9 C 93 % 14.77 C
9 14-08-2018 00:40:00 15.9 C 93 % 14.77 C
10 14-08-2018 00:45:00 16 C 93 % 14.87 C
11 14-08-2018 00:50:00 16 C 93 % 14.87 C
12 14-08-2018 00:55:00 16 C 93 % 14.87 C
13 14-08-2018 01:00:00 15.9 C 93 % 14.77 C
14 14-08-2018 01:05:00 15.9 C 93 % 14.77 C
15 14-08-2018 01:10:00 15.9 C 93 % 14.77 C
16 14-08-2018 01:15:00 15.9 C 93 % 14.77 C
17 14-08-2018 01:20:00 16 C 94 % 15.03 C
18 14-08-2018 01:25:00 16.1 C 94 % 15.13 C
19 14-08-2018 01:30:00 16.1 C 94 % 15.13 C
20 14-08-2018 01:35:00 16.2 C 94 % 15.23 C
21 14-08-2018 01:40:00 16.2 C 94 % 15.23 C
22 14-08-2018 01:45:00 16.2 C 94 % 15.23 C
23 14-08-2018 01:50:00 16.3 C 94 % 15.33 C
24 14-08-2018 01:55:00 16.3 C 94 % 15.33 C
25 14-08-2018 02:00:00 16.3 C 94 % 15.33 C
Sensor: Nr:Datum:Temp:Feuchte:Taupunkt:
Aussen-T/F 26 14-08-2018 02:05:00 16.3 C 94 % 15.33 C
27 14-08-2018 02:10:00 16.3 C 94 % 15.33 C
28 14-08-2018 02:15:00 16.3 C 93 % 15.17 C
29 14-08-2018 02:20:00 16.3 C 93 % 15.17 C
30 14-08-2018 02:25:00 16.2 C 93 % 15.07 C
31 14-08-2018 02:30:00 16.2 C 93 % 15.07 C
32 14-08-2018 02:35:00 16.1 C 93 % 14.97 C
33 14-08-2018 02:40:00 16.1 C 93 % 14.97 C
34 14-08-2018 02:45:00 16 C 93 % 14.87 C
35 14-08-2018 02:50:00 16 C 93 % 14.87 C
36 14-08-2018 02:55:00 16.1 C 93 % 14.97 C
37 14-08-2018 03:00:00 16.1 C 93 % 14.97 C
38 14-08-2018 03:05:00 16.1 C 93 % 14.97 C
39 14-08-2018 03:10:00 16.1 C 93 % 14.97 C
40 14-08-2018 03:15:00 16.1 C 93 % 14.97 C
41 14-08-2018 03:20:00 16.2 C 93 % 15.07 C
42 14-08-2018 03:25:00 16.2 C 93 % 15.07 C
43 14-08-2018 03:30:00 16.2 C 93 % 15.07 C
44 14-08-2018 03:35:00 16.2 C 93 % 15.07 C
45 14-08-2018 03:40:00 16.2 C 93 % 15.07 C
46 14-08-2018 03:45:00 16.3 C 93 % 15.17 C
47 14-08-2018 03:50:00 16.3 C 93 % 15.17 C
48 14-08-2018 03:55:00 16.3 C 93 % 15.17 C
49 14-08-2018 04:00:00 16.3 C 93 % 15.17 C
50 14-08-2018 04:05:00 16.3 C 93 % 15.17 C
Sensor: Nr:Datum:Temp:Feuchte:Taupunkt:
Aussen-T/F 51 14-08-2018 04:10:00 16.2 C 93 % 15.07 C
52 14-08-2018 04:15:00 16.2 C 93 % 15.07 C
53 14-08-2018 04:20:00 16.2 C 93 % 15.07 C
54 14-08-2018 04:25:00 16.2 C 93 % 15.07 C
55 14-08-2018 04:30:00 16.2 C 93 % 15.07 C
56 14-08-2018 04:35:00 16.2 C 93 % 15.07 C
57 14-08-2018 04:40:00 16.1 C 92 % 14.8 C
58 14-08-2018 04:45:00 16.1 C 92 % 14.8 C
59 14-08-2018 04:50:00 16.1 C 92 % 14.8 C
60 14-08-2018 04:55:00 16.1 C 92 % 14.8 C
61 14-08-2018 05:00:00 16.1 C 92 % 14.8 C
62 14-08-2018 05:05:00 16.1 C 92 % 14.8 C
63 14-08-2018 05:10:00 16.1 C 92 % 14.8 C
64 14-08-2018 05:15:00 16 C 92 % 14.7 C
65 14-08-2018 05:20:00 15.9 C 92 % 14.6 C
66 14-08-2018 05:25:00 15.9 C 91 % 14.43 C
67 14-08-2018 05:30:00 15.9 C 91 % 14.43 C
68 14-08-2018 05:35:00 15.9 C 91 % 14.43 C
69 14-08-2018 05:40:00 15.9 C 91 % 14.43 C
70 14-08-2018 05:45:00 16 C 91 % 14.53 C
71 14-08-2018 05:50:00 16.1 C 91 % 14.63 C
72 14-08-2018 05:55:00 16.1 C 91 % 14.63 C
73 14-08-2018 06:00:00 16.2 C 90 % 14.56 C
74 14-08-2018 06:05:00 16.2 C 90 % 14.56 C
75 14-08-2018 06:10:00 16.3 C 90 % 14.66 C
Sensor: Nr:Datum:Temp:Feuchte:Taupunkt:
Aussen-T/F 76 14-08-2018 06:15:00 16.3 C 89 % 14.48 C
77 14-08-2018 06:20:00 16.4 C 89 % 14.58 C
78 14-08-2018 06:25:00 16.4 C 89 % 14.58 C
79 14-08-2018 06:30:00 16.4 C 89 % 14.58 C
80 14-08-2018 06:35:00 16.5 C 89 % 14.68 C
81 14-08-2018 06:40:00 16.6 C 88 % 14.6 C
82 14-08-2018 06:45:00 16.6 C 88 % 14.6 C
83 14-08-2018 06:50:00 16.7 C 88 % 14.7 C
84 14-08-2018 06:55:00 16.7 C 88 % 14.7 C
85 14-08-2018 07:00:00 16.7 C 88 % 14.7 C
86 14-08-2018 07:05:00 16.8 C 88 % 14.8 C
87 14-08-2018 07:10:00 16.8 C 88 % 14.8 C
88 14-08-2018 07:15:00 16.8 C 88 % 14.8 C
89 14-08-2018 07:20:00 16.8 C 88 % 14.8 C
90 14-08-2018 07:25:00 16.9 C 88 % 14.9 C
91 14-08-2018 07:30:00 16.9 C 88 % 14.9 C
92 14-08-2018 07:35:00 17 C 88 % 15 C
93 14-08-2018 07:40:00 16.9 C 88 % 14.9 C
94 14-08-2018 07:45:00 16.9 C 87 % 14.72 C
95 14-08-2018 07:50:00 17 C 87 % 14.82 C
96 14-08-2018 07:55:00 17.1 C 87 % 14.92 C
97 14-08-2018 08:00:00 17.2 C 87 % 15.02 C
98 14-08-2018 08:05:00 17.3 C 86 % 14.94 C
99 14-08-2018 08:10:00 17.5 C 86 % 15.13 C
100 14-08-2018 08:15:00 17.6 C 85 % 15.05 C
Sensor: Nr:Datum:Temp:Feuchte:Taupunkt:
Aussen-T/F 101 14-08-2018 08:20:00 17.7 C 85 % 15.15 C
102 14-08-2018 08:25:00 17.8 C 85 % 15.25 C
103 14-08-2018 08:30:00 17.8 C 85 % 15.25 C
104 14-08-2018 08:35:00 17.8 C 85 % 15.25 C
105 14-08-2018 08:40:00 17.9 C 85 % 15.34 C
106 14-08-2018 08:45:00 17.9 C 84 % 15.16 C
107 14-08-2018 08:50:00 17.9 C 84 % 15.16 C
108 14-08-2018 08:55:00 18 C 84 % 15.26 C
109 14-08-2018 09:00:00 18.1 C 83 % 15.17 C
110 14-08-2018 09:05:00 18.1 C 83 % 15.17 C
111 14-08-2018 09:10:00 18.2 C 83 % 15.27 C
112 14-08-2018 09:15:00 18.2 C 83 % 15.27 C
113 14-08-2018 09:20:00 18.3 C 83 % 15.36 C
114 14-08-2018 09:25:00 18.4 C 83 % 15.46 C
115 14-08-2018 09:30:00 18.5 C 82 % 15.37 C
116 14-08-2018 09:35:00 18.6 C 82 % 15.47 C
117 14-08-2018 09:40:00 18.8 C 83 % 15.85 C
118 14-08-2018 09:45:00 18.8 C 82 % 15.66 C
119 14-08-2018 09:50:00 18.8 C 82 % 15.66 C
120 14-08-2018 09:55:00 18.9 C 82 % 15.76 C
121 14-08-2018 10:00:00 18.9 C 81 % 15.57 C
122 14-08-2018 10:05:00 18.9 C 82 % 15.76 C
123 14-08-2018 10:10:00 18.9 C 81 % 15.57 C
124 14-08-2018 10:15:00 18.8 C 81 % 15.47 C
125 14-08-2018 10:20:00 18.8 C 82 % 15.66 C
Sensor: Nr:Datum:Temp:Feuchte:Taupunkt:
Aussen-T/F 126 14-08-2018 10:25:00 18.8 C 82 % 15.66 C
127 14-08-2018 10:30:00 18.7 C 82 % 15.57 C
128 14-08-2018 10:35:00 18.7 C 82 % 15.57 C
129 14-08-2018 10:40:00 18.8 C 82 % 15.66 C
130 14-08-2018 10:45:00 18.8 C 83 % 15.85 C
131 14-08-2018 10:50:00 18.9 C 82 % 15.76 C
132 14-08-2018 10:55:00 19.2 C 82 % 16.05 C
133 14-08-2018 11:00:00 19.4 C 81 % 16.06 C
134 14-08-2018 11:05:00 19.6 C 81 % 16.25 C
135 14-08-2018 11:10:00 19.8 C 80 % 16.25 C
136 14-08-2018 11:15:00 19.9 C 81 % 16.54 C
137 14-08-2018 11:20:00 20.1 C 80 % 16.54 C
138 14-08-2018 11:25:00 20.1 C 79 % 16.34 C
139 14-08-2018 11:30:00 20 C 79 % 16.25 C
140 14-08-2018 11:35:00 20 C 80 % 16.44 C
141 14-08-2018 11:40:00 20.1 C 80 % 16.54 C
142 14-08-2018 11:45:00 20.2 C 79 % 16.44 C
143 14-08-2018 11:50:00 20.2 C 79 % 16.44 C
144 14-08-2018 11:55:00 20.2 C 80 % 16.64 C
145 14-08-2018 12:00:00 20.3 C 79 % 16.54 C
146 14-08-2018 12:05:00 20.3 C 79 % 16.54 C
147 14-08-2018 12:10:00 20.3 C 80 % 16.74 C
148 14-08-2018 12:15:00 20.4 C 79 % 16.64 C
149 14-08-2018 12:20:00 20.7 C 78 % 16.73 C
150 14-08-2018 12:25:00 20.8 C 77 % 16.62 C
Sensor: Nr:Datum:Temp:Feuchte:Taupunkt:
Aussen-T/F 151 14-08-2018 12:30:00 21 C 77 % 16.81 C
152 14-08-2018 12:35:00 21.1 C 77 % 16.91 C
153 14-08-2018 12:40:00 21.1 C 76 % 16.7 C
154 14-08-2018 12:45:00 20.8 C 76 % 16.41 C
155 14-08-2018 12:50:00 20.7 C 77 % 16.52 C
156 14-08-2018 12:55:00 20.6 C 78 % 16.63 C
157 14-08-2018 13:00:00 20.5 C 79 % 16.73 C
158 14-08-2018 13:05:00 20.4 C 81 % 17.03 C
159 14-08-2018 13:10:00 20.4 C 81 % 17.03 C
160 14-08-2018 13:15:00 20.6 C 81 % 17.22 C
161 14-08-2018 13:20:00 20.9 C 79 % 17.12 C
162 14-08-2018 13:25:00 21.3 C 77 % 17.1 C
163 14-08-2018 13:30:00 21.6 C 75 % 16.98 C
164 14-08-2018 13:35:00 21.8 C 74 % 16.96 C
165 14-08-2018 13:40:00 21.7 C 75 % 17.07 C
166 14-08-2018 13:45:00 21.8 C 74 % 16.96 C
167 14-08-2018 13:50:00 21.8 C 73 % 16.75 C
168 14-08-2018 13:55:00 21.8 C 73 % 16.75 C
169 14-08-2018 14:00:00 21.7 C 73 % 16.65 C
170 14-08-2018 14:05:00 21.5 C 75 % 16.88 C
171 14-08-2018 14:10:00 21.4 C 75 % 16.79 C
172 14-08-2018 14:15:00 21.3 C 75 % 16.69 C
173 14-08-2018 14:20:00 21.3 C 76 % 16.9 C
174 14-08-2018 14:25:00 21.3 C 76 % 16.9 C
175 14-08-2018 14:30:00 21.3 C 75 % 16.69 C
Sensor: Nr:Datum:Temp:Feuchte:Taupunkt:
Aussen-T/F 176 14-08-2018 14:35:00 21.3 C 73 % 16.26 C
177 14-08-2018 14:40:00 21.3 C 75 % 16.69 C
178 14-08-2018 14:45:00 21.5 C 75 % 16.88 C
179 14-08-2018 14:50:00 21.6 C 74 % 16.77 C
180 14-08-2018 14:55:00 21.7 C 75 % 17.07 C
181 14-08-2018 15:00:00 21.7 C 77 % 17.49 C
182 14-08-2018 15:05:00 21.7 C 77 % 17.49 C
183 14-08-2018 15:10:00 21.6 C 75 % 16.98 C
184 14-08-2018 15:15:00 21.6 C 76 % 17.19 C
185 14-08-2018 15:20:00 21.7 C 75 % 17.07 C
186 14-08-2018 15:25:00 21.8 C 73 % 16.75 C
187 14-08-2018 15:30:00 21.9 C 73 % 16.84 C
188 14-08-2018 15:35:00 22 C 74 % 17.15 C
189 14-08-2018 15:40:00 22.1 C 73 % 17.03 C
190 14-08-2018 15:45:00 22.3 C 70 % 16.56 C
191 14-08-2018 15:50:00 22.5 C 67 % 16.07 C
192 14-08-2018 15:55:00 22.6 C 66 % 15.93 C
193 14-08-2018 16:00:00 22.7 C 66 % 16.02 C
194 14-08-2018 16:05:00 22.7 C 67 % 16.26 C
195 14-08-2018 16:10:00 22.7 C 64 % 15.54 C
196 14-08-2018 16:15:00 22.8 C 66 % 16.12 C
197 14-08-2018 16:20:00 23.1 C 65 % 16.16 C
198 14-08-2018 16:25:00 23.3 C 64 % 16.11 C
199 14-08-2018 16:30:00 23.3 C 64 % 16.11 C
200 14-08-2018 16:35:00 23.3 C 64 % 16.11 C
Sensor: Nr:Datum:Temp:Feuchte:Taupunkt:
Aussen-T/F 201 14-08-2018 16:40:00 23.4 C 62 % 15.71 C
202 14-08-2018 16:45:00 23.4 C 66 % 16.69 C
203 14-08-2018 16:50:00 23.3 C 65 % 16.35 C
204 14-08-2018 16:55:00 23.2 C 64 % 16.01 C
205 14-08-2018 17:00:00 23.1 C 65 % 16.16 C
206 14-08-2018 17:05:00 23.1 C 65 % 16.16 C
207 14-08-2018 17:10:00 23.1 C 65 % 16.16 C
208 14-08-2018 17:15:00 23.2 C 65 % 16.26 C
209 14-08-2018 17:20:00 23.2 C 66 % 16.5 C
210 14-08-2018 17:25:00 23.2 C 70 % 17.42 C
211 14-08-2018 17:30:00 23.1 C 67 % 16.64 C
212 14-08-2018 17:35:00 22.9 C 69 % 16.91 C
213 14-08-2018 17:40:00 22.8 C 69 % 16.82 C
214 14-08-2018 17:45:00 22.7 C 71 % 17.17 C
215 14-08-2018 17:50:00 22.6 C 67 % 16.16 C
216 14-08-2018 17:55:00 22.6 C 67 % 16.16 C
217 14-08-2018 18:00:00 22.6 C 67 % 16.16 C
218 14-08-2018 18:05:00 22.6 C 68 % 16.39 C
219 14-08-2018 18:10:00 22.3 C 71 % 16.79 C
220 14-08-2018 18:15:00 21.9 C 75 % 17.27 C
221 14-08-2018 18:20:00 21.4 C 79 % 17.61 C
222 14-08-2018 18:25:00 20.9 C 82 % 17.71 C
223 14-08-2018 18:30:00 20.6 C 83 % 17.61 C
224 14-08-2018 18:35:00 20.1 C 83 % 17.12 C
225 14-08-2018 18:40:00 19.7 C 84 % 16.92 C
Sensor: Nr:Datum:Temp:Feuchte:Taupunkt:
Aussen-T/F 226 14-08-2018 18:45:00 19.4 C 85 % 16.81 C
227 14-08-2018 18:50:00 19.2 C 85 % 16.62 C
228 14-08-2018 18:55:00 19.1 C 86 % 16.7 C
229 14-08-2018 19:00:00 18.9 C 87 % 16.69 C
230 14-08-2018 19:05:00 18.8 C 88 % 16.77 C
231 14-08-2018 19:10:00 18.7 C 88 % 16.67 C
232 14-08-2018 19:15:00 18.7 C 88 % 16.67 C
233 14-08-2018 19:20:00 18.6 C 89 % 16.75 C
234 14-08-2018 19:25:00 18.4 C 89 % 16.55 C
235 14-08-2018 19:30:00 18.4 C 89 % 16.55 C
236 14-08-2018 19:35:00 18.3 C 89 % 16.46 C
237 14-08-2018 19:40:00 18.3 C 90 % 16.63 C
238 14-08-2018 19:45:00 18.2 C 90 % 16.53 C
239 14-08-2018 19:50:00 18.2 C 90 % 16.53 C
240 14-08-2018 19:55:00 18.2 C 90 % 16.53 C
241 14-08-2018 20:00:00 18.1 C 90 % 16.43 C
242 14-08-2018 20:05:00 18.1 C 90 % 16.43 C
243 14-08-2018 20:10:00 18 C 90 % 16.34 C
244 14-08-2018 20:15:00 18.1 C 91 % 16.61 C
245 14-08-2018 20:20:00 18.1 C 91 % 16.61 C
246 14-08-2018 20:25:00 18.2 C 91 % 16.71 C
247 14-08-2018 20:30:00 18.1 C 90 % 16.43 C
248 14-08-2018 20:35:00 18.1 C 90 % 16.43 C
249 14-08-2018 20:40:00 18 C 90 % 16.34 C
250 14-08-2018 20:45:00 17.9 C 90 % 16.24 C
Sensor: Nr:Datum:Temp:Feuchte:Taupunkt:
Aussen-T/F 251 14-08-2018 20:50:00 17.8 C 90 % 16.14 C
252 14-08-2018 20:55:00 17.7 C 90 % 16.04 C
253 14-08-2018 21:00:00 17.6 C 90 % 15.94 C
254 14-08-2018 21:05:00 17.6 C 90 % 15.94 C
255 14-08-2018 21:10:00 17.5 C 91 % 16.01 C
256 14-08-2018 21:15:00 17.4 C 91 % 15.92 C
257 14-08-2018 21:20:00 17.3 C 91 % 15.82 C
258 14-08-2018 21:25:00 17.3 C 91 % 15.82 C
259 14-08-2018 21:30:00 17.2 C 91 % 15.72 C
260 14-08-2018 21:35:00 17.1 C 91 % 15.62 C
261 14-08-2018 21:40:00 17.1 C 91 % 15.62 C
262 14-08-2018 21:45:00 17 C 91 % 15.52 C
263 14-08-2018 21:50:00 16.9 C 91 % 15.42 C
264 14-08-2018 21:55:00 16.9 C 91 % 15.42 C
265 14-08-2018 22:00:00 16.9 C 92 % 15.59 C
266 14-08-2018 22:05:00 16.9 C 92 % 15.59 C
267 14-08-2018 22:10:00 16.9 C 92 % 15.59 C
268 14-08-2018 22:15:00 16.9 C 92 % 15.59 C
269 14-08-2018 22:20:00 16.9 C 92 % 15.59 C
270 14-08-2018 22:25:00 16.9 C 92 % 15.59 C
271 14-08-2018 22:30:00 16.9 C 93 % 15.76 C
272 14-08-2018 22:35:00 17 C 93 % 15.86 C
273 14-08-2018 22:40:00 17 C 93 % 15.86 C
274 14-08-2018 22:45:00 17.1 C 93 % 15.96 C
275 14-08-2018 22:50:00 17.1 C 93 % 15.96 C
Sensor: Nr:Datum:Temp:Feuchte:Taupunkt:
Aussen-T/F 276 14-08-2018 22:55:00 17.1 C 93 % 15.96 C
277 14-08-2018 23:00:00 17.1 C 93 % 15.96 C
278 14-08-2018 23:05:00 17.2 C 93 % 16.06 C
279 14-08-2018 23:10:00 17.2 C 93 % 16.06 C
280 14-08-2018 23:15:00 17.2 C 93 % 16.06 C
281 14-08-2018 23:20:00 17.2 C 93 % 16.06 C
282 14-08-2018 23:25:00 17.2 C 93 % 16.06 C
283 14-08-2018 23:30:00 17.2 C 93 % 16.06 C
284 14-08-2018 23:35:00 17.3 C 93 % 16.16 C
285 14-08-2018 23:40:00 17.3 C 93 % 16.16 C
286 14-08-2018 23:45:00 17.3 C 93 % 16.16 C
287 14-08-2018 23:50:00 17.3 C 93 % 16.16 C
288 14-08-2018 23:55:00 17.3 C 93 % 16.16 C
289 15-08-2018 00:00:00 17.3 C 93 % 16.16 C
290 15-08-2018 00:05:00 17.2 C 93 % 16.06 C
291 15-08-2018 00:10:00 17.1 C 93 % 15.96 C
292 15-08-2018 00:15:00 17.1 C 93 % 15.96 C
293 15-08-2018 00:20:00 17 C 93 % 15.86 C
294 15-08-2018 00:25:00 16.9 C 93 % 15.76 C
295 15-08-2018 00:30:00 16.8 C 92 % 15.49 C
296 15-08-2018 00:35:00 16.7 C 92 % 15.39 C
297 15-08-2018 00:40:00 16.6 C 93 % 15.46 C
298 15-08-2018 00:45:00 16.6 C 93 % 15.46 C
299 15-08-2018 00:50:00 16.5 C 93 % 15.36 C
300 15-08-2018 00:55:00 16.5 C 93 % 15.36 C
Sensor: Nr:Datum:Temp:Feuchte:Taupunkt:
Aussen-T/F 301 15-08-2018 01:00:00 16.4 C 93 % 15.27 C
302 15-08-2018 01:05:00 16.4 C 93 % 15.27 C
303 15-08-2018 01:10:00 16.4 C 93 % 15.27 C
304 15-08-2018 01:15:00 16.4 C 93 % 15.27 C
305 15-08-2018 01:20:00 16.5 C 93 % 15.36 C
306 15-08-2018 01:25:00 16.6 C 93 % 15.46 C
307 15-08-2018 01:30:00 16.6 C 93 % 15.46 C
308 15-08-2018 01:35:00 16.5 C 93 % 15.36 C
309 15-08-2018 01:40:00 16.4 C 93 % 15.27 C
310 15-08-2018 01:45:00 16.3 C 93 % 15.17 C
311 15-08-2018 01:50:00 16.3 C 93 % 15.17 C
312 15-08-2018 01:55:00 16.2 C 93 % 15.07 C
313 15-08-2018 02:00:00 16.1 C 93 % 14.97 C
314 15-08-2018 02:05:00 16 C 93 % 14.87 C
315 15-08-2018 02:10:00 15.9 C 93 % 14.77 C
316 15-08-2018 02:15:00 15.9 C 93 % 14.77 C
317 15-08-2018 02:20:00 15.9 C 93 % 14.77 C
318 15-08-2018 02:25:00 15.9 C 94 % 14.94 C
319 15-08-2018 02:30:00 16 C 94 % 15.03 C
320 15-08-2018 02:35:00 16.1 C 94 % 15.13 C
321 15-08-2018 02:40:00 16.2 C 94 % 15.23 C
322 15-08-2018 02:45:00 16.2 C 94 % 15.23 C
323 15-08-2018 02:50:00 16.2 C 94 % 15.23 C
324 15-08-2018 02:55:00 16.2 C 94 % 15.23 C
325 15-08-2018 03:00:00 16.3 C 94 % 15.33 C
Sensor: Nr:Datum:Temp:Feuchte:Taupunkt:
Aussen-T/F 326 15-08-2018 03:05:00 16.3 C 94 % 15.33 C
327 15-08-2018 03:10:00 16.4 C 94 % 15.43 C
328 15-08-2018 03:15:00 16.3 C 94 % 15.33 C
329 15-08-2018 03:20:00 16.2 C 93 % 15.07 C
330 15-08-2018 03:25:00 16.1 C 93 % 14.97 C
331 15-08-2018 03:30:00 15.9 C 93 % 14.77 C
332 15-08-2018 03:35:00 15.7 C 93 % 14.57 C
333 15-08-2018 03:40:00 15.7 C 93 % 14.57 C
334 15-08-2018 03:45:00 15.7 C 94 % 14.74 C
335 15-08-2018 03:50:00 15.7 C 94 % 14.74 C
336 15-08-2018 03:55:00 15.6 C 94 % 14.64 C
337 15-08-2018 04:00:00 15.6 C 94 % 14.64 C
338 15-08-2018 04:05:00 15.6 C 94 % 14.64 C
339 15-08-2018 04:10:00 15.6 C 94 % 14.64 C
340 15-08-2018 04:15:00 15.6 C 94 % 14.64 C
341 15-08-2018 04:20:00 15.7 C 94 % 14.74 C
342 15-08-2018 04:25:00 15.7 C 94 % 14.74 C
343 15-08-2018 04:30:00 15.8 C 94 % 14.84 C
344 15-08-2018 04:35:00 15.9 C 94 % 14.94 C
345 15-08-2018 04:40:00 15.9 C 94 % 14.94 C
346 15-08-2018 04:45:00 16 C 94 % 15.03 C
347 15-08-2018 04:50:00 16.1 C 94 % 15.13 C
348 15-08-2018 04:55:00 16.1 C 94 % 15.13 C
349 15-08-2018 05:00:00 16.1 C 94 % 15.13 C
350 15-08-2018 05:05:00 16 C 94 % 15.03 C
Sensor: Nr:Datum:Temp:Feuchte:Taupunkt:
Aussen-T/F 351 15-08-2018 05:10:00 16 C 94 % 15.03 C
352 15-08-2018 05:15:00 15.9 C 94 % 14.94 C
353 15-08-2018 05:20:00 15.9 C 94 % 14.94 C
354 15-08-2018 05:25:00 15.9 C 94 % 14.94 C
355 15-08-2018 05:30:00 15.9 C 94 % 14.94 C
356 15-08-2018 05:35:00 16 C 94 % 15.03 C
357 15-08-2018 05:40:00 16 C 94 % 15.03 C
358 15-08-2018 05:45:00 16 C 94 % 15.03 C
359 15-08-2018 05:50:00 16.1 C 94 % 15.13 C
360 15-08-2018 05:55:00 16.1 C 94 % 15.13 C
361 15-08-2018 06:00:00 16.1 C 94 % 15.13 C
362 15-08-2018 06:05:00 16.1 C 94 % 15.13 C
363 15-08-2018 06:10:00 16.1 C 94 % 15.13 C
364 15-08-2018 06:15:00 16.1 C 94 % 15.13 C
365 15-08-2018 06:20:00 16.1 C 94 % 15.13 C
366 15-08-2018 06:25:00 16 C 94 % 15.03 C
367 15-08-2018 06:30:00 16 C 94 % 15.03 C
368 15-08-2018 06:35:00 16.1 C 94 % 15.13 C
369 15-08-2018 06:40:00 16.1 C 94 % 15.13 C
370 15-08-2018 06:45:00 16 C 94 % 15.03 C
371 15-08-2018 06:50:00 16 C 94 % 15.03 C
372 15-08-2018 06:55:00 16.1 C 94 % 15.13 C
373 15-08-2018 07:00:00 16.1 C 94 % 15.13 C
374 15-08-2018 07:05:00 16.1 C 94 % 15.13 C
375 15-08-2018 07:10:00 16.1 C 94 % 15.13 C
Sensor: Nr:Datum:Temp:Feuchte:Taupunkt:
Aussen-T/F 376 15-08-2018 07:15:00 16.1 C 94 % 15.13 C
377 15-08-2018 07:20:00 16.1 C 94 % 15.13 C
378 15-08-2018 07:25:00 16.1 C 94 % 15.13 C
379 15-08-2018 07:30:00 16.2 C 94 % 15.23 C
380 15-08-2018 07:35:00 16.2 C 94 % 15.23 C
381 15-08-2018 07:40:00 16.2 C 94 % 15.23 C
382 15-08-2018 07:45:00 16.2 C 94 % 15.23 C
383 15-08-2018 07:50:00 16.2 C 94 % 15.23 C
384 15-08-2018 07:55:00 16.2 C 94 % 15.23 C
385 15-08-2018 08:00:00 16.2 C 94 % 15.23 C
386 15-08-2018 08:05:00 16.3 C 94 % 15.33 C
387 15-08-2018 08:10:00 16.3 C 94 % 15.33 C
388 15-08-2018 08:15:00 16.4 C 94 % 15.43 C
389 15-08-2018 08:20:00 16.4 C 93 % 15.27 C
390 15-08-2018 08:25:00 16.5 C 93 % 15.36 C
391 15-08-2018 08:30:00 16.6 C 93 % 15.46 C
392 15-08-2018 08:35:00 16.6 C 93 % 15.46 C
393 15-08-2018 08:40:00 16.7 C 93 % 15.56 C
394 15-08-2018 08:45:00 16.8 C 93 % 15.66 C
395 15-08-2018 08:50:00 16.9 C 92 % 15.59 C
396 15-08-2018 08:55:00 17 C 92 % 15.69 C
397 15-08-2018 09:00:00 17.1 C 91 % 15.62 C
398 15-08-2018 09:05:00 17.2 C 91 % 15.72 C
399 15-08-2018 09:10:00 17.3 C 91 % 15.82 C
400 15-08-2018 09:15:00 17.4 C 90 % 15.74 C
Sensor: Nr:Datum:Temp:Feuchte:Taupunkt:
Aussen-T/F 401 15-08-2018 09:20:00 17.6 C 90 % 15.94 C
402 15-08-2018 09:25:00 17.7 C 90 % 16.04 C
403 15-08-2018 09:30:00 17.8 C 90 % 16.14 C
404 15-08-2018 09:35:00 17.9 C 88 % 15.88 C
405 15-08-2018 09:40:00 18.1 C 89 % 16.26 C
406 15-08-2018 09:45:00 18.2 C 88 % 16.18 C
407 15-08-2018 09:50:00 18.3 C 87 % 16.1 C
408 15-08-2018 09:55:00 18.4 C 86 % 16.02 C
409 15-08-2018 10:00:00 18.6 C 86 % 16.21 C
410 15-08-2018 10:05:00 18.7 C 84 % 15.94 C
411 15-08-2018 10:10:00 18.7 C 84 % 15.94 C
412 15-08-2018 10:15:00 18.8 C 83 % 15.85 C
413 15-08-2018 10:20:00 18.8 C 83 % 15.85 C
414 15-08-2018 10:25:00 18.8 C 83 % 15.85 C
415 15-08-2018 10:30:00 18.9 C 83 % 15.95 C
416 15-08-2018 10:35:00 19.1 C 82 % 15.96 C
417 15-08-2018 10:40:00 19.1 C 79 % 15.37 C
418 15-08-2018 10:45:00 19.3 C 79 % 15.57 C
419 15-08-2018 10:50:00 19.4 C 80 % 15.86 C
420 15-08-2018 10:55:00 19.5 C 77 % 15.36 C
421 15-08-2018 11:00:00 19.6 C 77 % 15.46 C
422 15-08-2018 11:05:00 19.5 C 76 % 15.16 C
423 15-08-2018 11:10:00 19.5 C 76 % 15.16 C
424 15-08-2018 11:15:00 19.6 C 75 % 15.05 C
425 15-08-2018 11:20:00 19.6 C 74 % 14.84 C
Sensor: Nr:Datum:Temp:Feuchte:Taupunkt:
Aussen-T/F 426 15-08-2018 11:25:00 19.6 C 74 % 14.84 C
427 15-08-2018 11:30:00 19.7 C 74 % 14.94 C
428 15-08-2018 11:35:00 19.8 C 68 % 13.73 C
429 15-08-2018 11:40:00 19.9 C 68 % 13.82 C
430 15-08-2018 11:45:00 20.1 C 69 % 14.24 C
431 15-08-2018 11:50:00 20.3 C 64 % 13.27 C
432 15-08-2018 11:55:00 20.5 C 67 % 14.16 C
433 15-08-2018 12:00:00 20.7 C 69 % 14.81 C
434 15-08-2018 12:05:00 20.8 C 67 % 14.45 C
435 15-08-2018 12:10:00 21 C 67 % 14.64 C
436 15-08-2018 12:15:00 21.2 C 68 % 15.06 C
437 15-08-2018 12:20:00 21.4 C 66 % 14.79 C
438 15-08-2018 12:25:00 21.5 C 65 % 14.65 C
439 15-08-2018 12:30:00 21.4 C 65 % 14.55 C
440 15-08-2018 12:35:00 21.6 C 66 % 14.98 C
441 15-08-2018 12:40:00 21.7 C 67 % 15.31 C
442 15-08-2018 12:45:00 21.8 C 68 % 15.63 C
443 15-08-2018 12:50:00 21.9 C 66 % 15.26 C
444 15-08-2018 12:55:00 22.1 C 66 % 15.45 C
445 15-08-2018 13:00:00 22.2 C 62 % 14.58 C
446 15-08-2018 13:05:00 22.2 C 62 % 14.58 C
447 15-08-2018 13:10:00 22.2 C 63 % 14.82 C
448 15-08-2018 13:15:00 22.3 C 64 % 15.16 C
449 15-08-2018 13:20:00 22.5 C 64 % 15.35 C
450 15-08-2018 13:25:00 22.6 C 64 % 15.45 C
Sensor: Nr:Datum:Temp:Feuchte:Taupunkt:
Aussen-T/F 451 15-08-2018 13:30:00 22.8 C 61 % 14.89 C
452 15-08-2018 13:35:00 22.8 C 61 % 14.89 C
453 15-08-2018 13:40:00 22.8 C 62 % 15.14 C
454 15-08-2018 13:45:00 22.9 C 63 % 15.48 C
455 15-08-2018 13:50:00 23.1 C 60 % 14.91 C
456 15-08-2018 13:55:00 23.1 C 59 % 14.65 C
457 15-08-2018 14:00:00 23 C 59 % 14.56 C
458 15-08-2018 14:05:00 23 C 61 % 15.08 C
459 15-08-2018 14:10:00 22.9 C 60 % 14.73 C
460 15-08-2018 14:15:00 22.9 C 60 % 14.73 C
461 15-08-2018 14:20:00 22.8 C 59 % 14.37 C
462 15-08-2018 14:25:00 22.8 C 59 % 14.37 C
463 15-08-2018 14:30:00 22.9 C 62 % 15.23 C
464 15-08-2018 14:35:00 23 C 63 % 15.58 C
465 15-08-2018 14:40:00 23.1 C 59 % 14.65 C
466 15-08-2018 14:45:00 23.2 C 59 % 14.75 C
467 15-08-2018 14:50:00 23.3 C 60 % 15.1 C
468 15-08-2018 14:55:00 23.4 C 60 % 15.19 C
469 15-08-2018 15:00:00 23.5 C 58 % 14.76 C
470 15-08-2018 15:05:00 23.4 C 57 % 14.4 C
471 15-08-2018 15:10:00 23.4 C 58 % 14.67 C
472 15-08-2018 15:15:00 23.5 C 59 % 15.03 C
473 15-08-2018 15:20:00 23.6 C 59 % 15.12 C
474 15-08-2018 15:25:00 23.7 C 57 % 14.68 C
475 15-08-2018 15:30:00 23.7 C 57 % 14.68 C
Sensor: Nr:Datum:Temp:Feuchte:Taupunkt:
Aussen-T/F 476 15-08-2018 15:35:00 23.8 C 56 % 14.5 C
477 15-08-2018 15:40:00 23.9 C 57 % 14.87 C
478 15-08-2018 15:45:00 23.9 C 56 % 14.59 C
479 15-08-2018 15:50:00 23.9 C 58 % 15.14 C
480 15-08-2018 15:55:00 24.1 C 56 % 14.78 C
481 15-08-2018 16:00:00 24.2 C 55 % 14.59 C
482 15-08-2018 16:05:00 24.2 C 56 % 14.87 C
483 15-08-2018 16:10:00 24.3 C 56 % 14.96 C
484 15-08-2018 16:15:00 24.4 C 56 % 15.06 C
485 15-08-2018 16:20:00 24.6 C 54 % 14.68 C
486 15-08-2018 16:25:00 24.6 C 55 % 14.96 C
487 15-08-2018 16:30:00 24.5 C 55 % 14.87 C
488 15-08-2018 16:35:00 24.4 C 54 % 14.49 C
489 15-08-2018 16:40:00 24.4 C 56 % 15.06 C
490 15-08-2018 16:45:00 24.3 C 55 % 14.68 C
491 15-08-2018 16:50:00 24.2 C 58 % 15.42 C
492 15-08-2018 16:55:00 24.1 C 56 % 14.78 C
493 15-08-2018 17:00:00 24.1 C 56 % 14.78 C
494 15-08-2018 17:05:00 24 C 56 % 14.68 C
495 15-08-2018 17:10:00 23.9 C 58 % 15.14 C
496 15-08-2018 17:15:00 23.8 C 57 % 14.77 C
497 15-08-2018 17:20:00 23.8 C 57 % 14.77 C
498 15-08-2018 17:25:00 23.8 C 57 % 14.77 C
499 15-08-2018 17:30:00 23.8 C 67 % 17.3 C
500 15-08-2018 17:35:00 23.9 C 69 % 17.87 C
Sensor: Nr:Datum:Temp:Feuchte:Taupunkt:
Aussen-T/F 501 15-08-2018 17:40:00 23.8 C 69 % 17.77 C
502 15-08-2018 17:45:00 23.7 C 68 % 17.44 C
503 15-08-2018 17:50:00 23.7 C 69 % 17.67 C
504 15-08-2018 17:55:00 23.5 C 64 % 16.3 C
505 15-08-2018 18:00:00 23.4 C 69 % 17.39 C
506 15-08-2018 18:05:00 23.3 C 70 % 17.52 C
507 15-08-2018 18:10:00 23.2 C 70 % 17.42 C
508 15-08-2018 18:15:00 23.1 C 70 % 17.33 C
509 15-08-2018 18:20:00 22.9 C 71 % 17.36 C
510 15-08-2018 18:25:00 22.9 C 71 % 17.36 C
511 15-08-2018 18:30:00 22.8 C 71 % 17.27 C
512 15-08-2018 18:35:00 22.7 C 71 % 17.17 C
513 15-08-2018 18:40:00 22.7 C 72 % 17.39 C
514 15-08-2018 18:45:00 22.7 C 71 % 17.17 C
515 15-08-2018 18:50:00 22.7 C 71 % 17.17 C
516 15-08-2018 18:55:00 22.7 C 72 % 17.39 C
517 15-08-2018 19:00:00 22.8 C 72 % 17.49 C
518 15-08-2018 19:05:00 22.8 C 72 % 17.49 C
519 15-08-2018 19:10:00 22.7 C 71 % 17.17 C
520 15-08-2018 19:15:00 22.7 C 72 % 17.39 C
521 15-08-2018 19:20:00 22.6 C 72 % 17.3 C
522 15-08-2018 19:25:00 22.5 C 73 % 17.42 C
523 15-08-2018 19:30:00 22.4 C 73 % 17.32 C
524 15-08-2018 19:35:00 22.3 C 74 % 17.44 C
525 15-08-2018 19:40:00 22.2 C 73 % 17.13 C
Sensor: Nr:Datum:Temp:Feuchte:Taupunkt:
Aussen-T/F 526 15-08-2018 19:45:00 22.1 C 72 % 16.82 C
527 15-08-2018 19:50:00 22 C 73 % 16.94 C
528 15-08-2018 19:55:00 21.9 C 73 % 16.84 C
529 15-08-2018 20:00:00 21.8 C 73 % 16.75 C
530 15-08-2018 20:05:00 21.6 C 73 % 16.55 C
531 15-08-2018 20:10:00 21.5 C 74 % 16.67 C
532 15-08-2018 20:15:00 21.4 C 74 % 16.57 C
533 15-08-2018 20:20:00 21.3 C 73 % 16.26 C
534 15-08-2018 20:25:00 21.2 C 74 % 16.38 C
535 15-08-2018 20:30:00 21.1 C 74 % 16.29 C
536 15-08-2018 20:35:00 21 C 74 % 16.19 C
537 15-08-2018 20:40:00 20.9 C 74 % 16.09 C
538 15-08-2018 20:45:00 20.8 C 73 % 15.78 C
539 15-08-2018 20:50:00 20.8 C 74 % 16 C
540 15-08-2018 20:55:00 20.7 C 74 % 15.9 C
541 15-08-2018 21:00:00 20.6 C 74 % 15.8 C
542 15-08-2018 21:05:00 20.5 C 74 % 15.71 C
543 15-08-2018 21:10:00 20.4 C 75 % 15.82 C
544 15-08-2018 21:15:00 20.4 C 75 % 15.82 C
545 15-08-2018 21:20:00 20.3 C 75 % 15.72 C
546 15-08-2018 21:25:00 20.2 C 76 % 15.83 C
547 15-08-2018 21:30:00 20.2 C 76 % 15.83 C
548 15-08-2018 21:35:00 20.1 C 76 % 15.74 C
549 15-08-2018 21:40:00 20.1 C 77 % 15.94 C
550 15-08-2018 21:45:00 19.9 C 77 % 15.75 C
Sensor: Nr:Datum:Temp:Feuchte:Taupunkt:
Aussen-T/F 551 15-08-2018 21:50:00 19.9 C 77 % 15.75 C
552 15-08-2018 21:55:00 19.8 C 78 % 15.85 C
553 15-08-2018 22:00:00 19.8 C 78 % 15.85 C
554 15-08-2018 22:05:00 19.7 C 77 % 15.56 C
555 15-08-2018 22:10:00 19.6 C 78 % 15.66 C
556 15-08-2018 22:15:00 19.6 C 78 % 15.66 C
557 15-08-2018 22:20:00 19.4 C 77 % 15.27 C
558 15-08-2018 22:25:00 19.3 C 78 % 15.37 C
559 15-08-2018 22:30:00 19.2 C 78 % 15.27 C
560 15-08-2018 22:35:00 19.1 C 79 % 15.37 C
561 15-08-2018 22:40:00 19 C 79 % 15.28 C
562 15-08-2018 22:45:00 18.9 C 79 % 15.18 C
563 15-08-2018 22:50:00 18.8 C 80 % 15.28 C
564 15-08-2018 22:55:00 18.6 C 80 % 15.08 C
565 15-08-2018 23:00:00 18.4 C 80 % 14.89 C
566 15-08-2018 23:05:00 18.3 C 80 % 14.79 C
567 15-08-2018 23:10:00 18.2 C 80 % 14.69 C
568 15-08-2018 23:15:00 18 C 81 % 14.69 C
569 15-08-2018 23:20:00 17.8 C 81 % 14.5 C
570 15-08-2018 23:25:00 17.7 C 81 % 14.4 C
571 15-08-2018 23:30:00 17.6 C 82 % 14.49 C
572 15-08-2018 23:35:00 17.4 C 82 % 14.3 C
573 15-08-2018 23:40:00 17.3 C 83 % 14.39 C
574 15-08-2018 23:45:00 17.3 C 83 % 14.39 C
575 15-08-2018 23:50:00 17.1 C 83 % 14.19 C
Sensor: Nr:Datum:Temp:Feuchte:Taupunkt:
Aussen-T/F 576 15-08-2018 23:55:00 17 C 84 % 14.28 C
577 16-08-2018 00:00:00 16.9 C 84 % 14.18 C
578 16-08-2018 00:05:00 16.8 C 84 % 14.08 C
579 16-08-2018 00:10:00 16.7 C 84 % 13.98 C
580 16-08-2018 00:15:00 16.6 C 85 % 14.07 C
581 16-08-2018 00:20:00 16.4 C 85 % 13.87 C
582 16-08-2018 00:25:00 16.3 C 85 % 13.77 C
583 16-08-2018 00:30:00 16.3 C 86 % 13.95 C
584 16-08-2018 00:35:00 16.2 C 86 % 13.86 C
585 16-08-2018 00:40:00 16.1 C 86 % 13.76 C
586 16-08-2018 00:45:00 16 C 86 % 13.66 C
587 16-08-2018 00:50:00 15.9 C 87 % 13.74 C
588 16-08-2018 00:55:00 15.8 C 87 % 13.64 C
589 16-08-2018 01:00:00 15.8 C 87 % 13.64 C
590 16-08-2018 01:05:00 15.7 C 87 % 13.54 C
591 16-08-2018 01:10:00 15.7 C 87 % 13.54 C
592 16-08-2018 01:15:00 15.6 C 88 % 13.62 C
593 16-08-2018 01:20:00 15.6 C 88 % 13.62 C
594 16-08-2018 01:25:00 15.5 C 88 % 13.52 C
595 16-08-2018 01:30:00 15.4 C 87 % 13.25 C
596 16-08-2018 01:35:00 15.4 C 88 % 13.42 C
597 16-08-2018 01:40:00 15.3 C 88 % 13.33 C
598 16-08-2018 01:45:00 15.3 C 88 % 13.33 C
599 16-08-2018 01:50:00 15.2 C 88 % 13.23 C
600 16-08-2018 01:55:00 15.1 C 88 % 13.13 C
Sensor: Nr:Datum:Temp:Feuchte:Taupunkt:
Aussen-T/F 601 16-08-2018 02:00:00 15.1 C 88 % 13.13 C
602 16-08-2018 02:05:00 15 C 89 % 13.2 C
603 16-08-2018 02:10:00 14.9 C 89 % 13.1 C
604 16-08-2018 02:15:00 14.9 C 89 % 13.1 C
605 16-08-2018 02:20:00 14.9 C 89 % 13.1 C
606 16-08-2018 02:25:00 14.9 C 90 % 13.28 C
607 16-08-2018 02:30:00 14.9 C 90 % 13.28 C
608 16-08-2018 02:35:00 14.9 C 89 % 13.1 C
609 16-08-2018 02:40:00 14.8 C 89 % 13.01 C
610 16-08-2018 02:45:00 14.7 C 89 % 12.91 C
611 16-08-2018 02:50:00 14.7 C 90 % 13.08 C
612 16-08-2018 02:55:00 14.7 C 90 % 13.08 C
613 16-08-2018 03:00:00 14.7 C 90 % 13.08 C
614 16-08-2018 03:05:00 14.6 C 90 % 12.98 C
615 16-08-2018 03:10:00 14.6 C 90 % 12.98 C
616 16-08-2018 03:15:00 14.5 C 90 % 12.88 C
617 16-08-2018 03:20:00 14.4 C 90 % 12.78 C
618 16-08-2018 03:25:00 14.3 C 90 % 12.68 C
619 16-08-2018 03:30:00 14.3 C 90 % 12.68 C
620 16-08-2018 03:35:00 14.2 C 90 % 12.58 C
621 16-08-2018 03:40:00 14.2 C 90 % 12.58 C
622 16-08-2018 03:45:00 14.2 C 91 % 12.75 C
623 16-08-2018 03:50:00 14.1 C 91 % 12.65 C
624 16-08-2018 03:55:00 14.1 C 91 % 12.65 C
625 16-08-2018 04:00:00 14 C 91 % 12.56 C
Sensor: Nr:Datum:Temp:Feuchte:Taupunkt:
Aussen-T/F 626 16-08-2018 04:05:00 14 C 91 % 12.56 C
627 16-08-2018 04:10:00 14.1 C 91 % 12.65 C
628 16-08-2018 04:15:00 14.1 C 91 % 12.65 C
629 16-08-2018 04:20:00 14.1 C 91 % 12.65 C
630 16-08-2018 04:25:00 14.1 C 91 % 12.65 C
631 16-08-2018 04:30:00 14 C 91 % 12.56 C
632 16-08-2018 04:35:00 14 C 91 % 12.56 C
633 16-08-2018 04:40:00 13.9 C 91 % 12.46 C
634 16-08-2018 04:45:00 13.8 C 92 % 12.52 C
635 16-08-2018 04:50:00 13.8 C 92 % 12.52 C
636 16-08-2018 04:55:00 13.7 C 91 % 12.26 C
637 16-08-2018 05:00:00 13.7 C 91 % 12.26 C
638 16-08-2018 05:05:00 13.6 C 92 % 12.33 C
639 16-08-2018 05:10:00 13.6 C 92 % 12.33 C
640 16-08-2018 05:15:00 13.5 C 92 % 12.23 C
641 16-08-2018 05:20:00 13.4 C 92 % 12.13 C
642 16-08-2018 05:25:00 13.4 C 92 % 12.13 C
643 16-08-2018 05:30:00 13.3 C 92 % 12.03 C
644 16-08-2018 05:35:00 13.3 C 92 % 12.03 C
645 16-08-2018 05:40:00 13.2 C 92 % 11.93 C
646 16-08-2018 05:45:00 13.2 C 92 % 11.93 C
647 16-08-2018 05:50:00 13.2 C 92 % 11.93 C
648 16-08-2018 05:55:00 13.1 C 92 % 11.83 C
649 16-08-2018 06:00:00 13.1 C 92 % 11.83 C
650 16-08-2018 06:05:00 13.1 C 92 % 11.83 C
Sensor: Nr:Datum:Temp:Feuchte:Taupunkt:
Aussen-T/F 651 16-08-2018 06:10:00 13 C 92 % 11.73 C
652 16-08-2018 06:15:00 12.9 C 92 % 11.63 C
653 16-08-2018 06:20:00 12.9 C 92 % 11.63 C
654 16-08-2018 06:25:00 12.9 C 93 % 11.8 C
655 16-08-2018 06:30:00 12.8 C 92 % 11.53 C
656 16-08-2018 06:35:00 12.8 C 93 % 11.7 C
657 16-08-2018 06:40:00 12.8 C 93 % 11.7 C
658 16-08-2018 06:45:00 12.8 C 93 % 11.7 C
659 16-08-2018 06:50:00 12.8 C 93 % 11.7 C
660 16-08-2018 06:55:00 12.8 C 93 % 11.7 C
661 16-08-2018 07:00:00 12.8 C 93 % 11.7 C
662 16-08-2018 07:05:00 12.8 C 93 % 11.7 C
663 16-08-2018 07:10:00 12.8 C 93 % 11.7 C
664 16-08-2018 07:15:00 12.8 C 93 % 11.7 C
665 16-08-2018 07:20:00 12.9 C 93 % 11.8 C
666 16-08-2018 07:25:00 12.9 C 93 % 11.8 C
667 16-08-2018 07:30:00 12.9 C 93 % 11.8 C
668 16-08-2018 07:35:00 12.9 C 93 % 11.8 C
669 16-08-2018 07:40:00 12.9 C 93 % 11.8 C
670 16-08-2018 07:45:00 12.9 C 93 % 11.8 C
671 16-08-2018 07:50:00 13 C 94 % 12.06 C
672 16-08-2018 07:55:00 13 C 94 % 12.06 C
673 16-08-2018 08:00:00 13.1 C 94 % 12.16 C
674 16-08-2018 08:05:00 13.2 C 94 % 12.26 C
675 16-08-2018 08:10:00 13.2 C 94 % 12.26 C
Sensor: Nr:Datum:Temp:Feuchte:Taupunkt:
Aussen-T/F 676 16-08-2018 08:15:00 13.3 C 94 % 12.36 C
677 16-08-2018 08:20:00 13.3 C 94 % 12.36 C
678 16-08-2018 08:25:00 13.4 C 94 % 12.45 C
679 16-08-2018 08:30:00 13.4 C 94 % 12.45 C
680 16-08-2018 08:35:00 13.5 C 94 % 12.55 C
681 16-08-2018 08:40:00 13.6 C 94 % 12.65 C
682 16-08-2018 08:45:00 13.7 C 94 % 12.75 C
683 16-08-2018 08:50:00 13.7 C 94 % 12.75 C
684 16-08-2018 08:55:00 13.8 C 94 % 12.85 C
685 16-08-2018 09:00:00 13.9 C 94 % 12.95 C
686 16-08-2018 09:05:00 13.9 C 94 % 12.95 C
687 16-08-2018 09:10:00 14.1 C 94 % 13.15 C
688 16-08-2018 09:15:00 14.2 C 94 % 13.25 C
689 16-08-2018 09:20:00 14.3 C 94 % 13.35 C
690 16-08-2018 09:25:00 14.3 C 94 % 13.35 C
691 16-08-2018 09:30:00 14.4 C 94 % 13.45 C
692 16-08-2018 09:35:00 14.6 C 94 % 13.65 C
693 16-08-2018 09:40:00 14.7 C 94 % 13.74 C
694 16-08-2018 09:45:00 14.8 C 94 % 13.84 C
695 16-08-2018 09:50:00 14.9 C 95 % 14.11 C
696 16-08-2018 09:55:00 15.1 C 94 % 14.14 C
697 16-08-2018 10:00:00 15.3 C 95 % 14.5 C
698 16-08-2018 10:05:00 15.4 C 95 % 14.6 C
699 16-08-2018 10:10:00 15.6 C 94 % 14.64 C
700 16-08-2018 10:15:00 15.8 C 94 % 14.84 C
Sensor: Nr:Datum:Temp:Feuchte:Taupunkt:
Aussen-T/F 701 16-08-2018 10:20:00 15.9 C 94 % 14.94 C
702 16-08-2018 10:25:00 16.1 C 94 % 15.13 C
703 16-08-2018 10:30:00 16.3 C 94 % 15.33 C
704 16-08-2018 10:35:00 16.5 C 94 % 15.53 C
705 16-08-2018 10:40:00 16.7 C 93 % 15.56 C
706 16-08-2018 10:45:00 16.9 C 93 % 15.76 C
707 16-08-2018 10:50:00 17.1 C 92 % 15.79 C
708 16-08-2018 10:55:00 17.3 C 91 % 15.82 C
709 16-08-2018 11:00:00 17.6 C 89 % 15.77 C
710 16-08-2018 11:05:00 18 C 88 % 15.98 C
711 16-08-2018 11:10:00 18.3 C 87 % 16.1 C
712 16-08-2018 11:15:00 18.6 C 85 % 16.03 C
713 16-08-2018 11:20:00 19 C 84 % 16.24 C
714 16-08-2018 11:25:00 19.4 C 84 % 16.63 C
715 16-08-2018 11:30:00 19.6 C 80 % 16.06 C
716 16-08-2018 11:35:00 19.9 C 80 % 16.35 C
717 16-08-2018 11:40:00 20.2 C 77 % 16.04 C
718 16-08-2018 11:45:00 20.6 C 75 % 16.01 C
719 16-08-2018 11:50:00 21.1 C 73 % 16.07 C
720 16-08-2018 11:55:00 21.4 C 73 % 16.36 C
721 16-08-2018 12:00:00 21.6 C 71 % 16.12 C
722 16-08-2018 12:05:00 21.8 C 71 % 16.31 C
723 16-08-2018 12:10:00 22.1 C 69 % 16.15 C
724 16-08-2018 12:15:00 22.3 C 68 % 16.11 C
725 16-08-2018 12:20:00 22.7 C 66 % 16.02 C
Sensor: Nr:Datum:Temp:Feuchte:Taupunkt:
Aussen-T/F 726 16-08-2018 12:25:00 23 C 65 % 16.07 C
727 16-08-2018 12:30:00 23.2 C 63 % 15.77 C
728 16-08-2018 12:35:00 23.4 C 64 % 16.2 C
729 16-08-2018 12:40:00 23.6 C 63 % 16.14 C
730 16-08-2018 12:45:00 23.7 C 60 % 15.48 C
731 16-08-2018 12:50:00 23.9 C 60 % 15.66 C
732 16-08-2018 12:55:00 24.1 C 58 % 15.32 C
733 16-08-2018 13:00:00 24.3 C 60 % 16.04 C
734 16-08-2018 13:05:00 24.5 C 58 % 15.7 C
735 16-08-2018 13:10:00 24.6 C 57 % 15.52 C
736 16-08-2018 13:15:00 24.7 C 60 % 16.41 C
737 16-08-2018 13:20:00 24.9 C 59 % 16.34 C
738 16-08-2018 13:25:00 24.9 C 57 % 15.8 C
739 16-08-2018 13:30:00 25.1 C 57 % 15.98 C
740 16-08-2018 13:35:00 25.2 C 55 % 15.52 C
741 16-08-2018 13:40:00 25.4 C 55 % 15.7 C
742 16-08-2018 13:45:00 25.6 C 52 % 15.02 C
743 16-08-2018 13:50:00 25.7 C 52 % 15.11 C
744 16-08-2018 13:55:00 25.9 C 51 % 14.99 C
745 16-08-2018 14:00:00 26 C 53 % 15.68 C
746 16-08-2018 14:05:00 26.1 C 51 % 15.17 C
747 16-08-2018 14:10:00 26.2 C 50 % 14.96 C
748 16-08-2018 14:15:00 26.4 C 49 % 14.83 C
749 16-08-2018 14:20:00 26.6 C 51 % 15.63 C
750 16-08-2018 14:25:00 26.8 C 49 % 15.19 C
Sensor: Nr:Datum:Temp:Feuchte:Taupunkt:
Aussen-T/F 751 16-08-2018 14:30:00 27 C 49 % 15.38 C
752 16-08-2018 14:35:00 27.2 C 48 % 15.24 C
753 16-08-2018 14:40:00 27.3 C 48 % 15.33 C
754 16-08-2018 14:45:00 27.4 C 48 % 15.42 C
755 16-08-2018 14:50:00 27.7 C 48 % 15.69 C
756 16-08-2018 14:55:00 27.8 C 47 % 15.45 C
757 16-08-2018 15:00:00 27.8 C 47 % 15.45 C
758 16-08-2018 15:05:00 28.1 C 44 % 14.7 C
759 16-08-2018 15:10:00 28.2 C 44 % 14.79 C
760 16-08-2018 15:15:00 28.4 C 43 % 14.62 C
761 16-08-2018 15:20:00 28.5 C 45 % 15.41 C
762 16-08-2018 15:25:00 28.7 C 44 % 15.24 C
763 16-08-2018 15:30:00 28.9 C 42 % 14.7 C
764 16-08-2018 15:35:00 29.2 C 44 % 15.69 C
765 16-08-2018 15:40:00 29.3 C 41 % 14.68 C
766 16-08-2018 15:45:00 29.3 C 43 % 15.42 C
767 16-08-2018 15:50:00 29.4 C 40 % 14.39 C
768 16-08-2018 15:55:00 29.6 C 43 % 15.69 C
769 16-08-2018 16:00:00 29.9 C 41 % 15.22 C
770 16-08-2018 16:05:00 30.2 C 39 % 14.71 C
771 16-08-2018 16:10:00 30.5 C 39 % 14.98 C
772 16-08-2018 16:15:00 30.7 C 38 % 14.75 C
773 16-08-2018 16:20:00 30.7 C 38 % 14.75 C
774 16-08-2018 16:25:00 30.8 C 37 % 14.43 C
775 16-08-2018 16:30:00 31 C 36 % 14.18 C
Sensor: Nr:Datum:Temp:Feuchte:Taupunkt:
Aussen-T/F 776 16-08-2018 16:35:00 31.1 C 36 % 14.27 C
777 16-08-2018 16:40:00 31.3 C 39 % 15.69 C
778 16-08-2018 16:45:00 31.3 C 36 % 14.44 C
779 16-08-2018 16:50:00 31.4 C 36 % 14.53 C
780 16-08-2018 16:55:00 31.7 C 35 % 14.36 C
781 16-08-2018 17:00:00 31.7 C 34 % 13.91 C
782 16-08-2018 17:05:00 31.8 C 33 % 13.54 C
783 16-08-2018 17:10:00 31.8 C 35 % 14.45 C
784 16-08-2018 17:15:00 31.9 C 34 % 14.09 C
785 16-08-2018 17:20:00 32.1 C 33 % 13.8 C
786 16-08-2018 17:25:00 32.2 C 34 % 14.35 C
787 16-08-2018 17:30:00 32.3 C 34 % 14.43 C
788 16-08-2018 17:35:00 32.4 C 33 % 14.06 C
789 16-08-2018 17:40:00 32.6 C 34 % 14.7 C
790 16-08-2018 17:45:00 32.6 C 33 % 14.23 C
791 16-08-2018 17:50:00 32.6 C 33 % 14.23 C
792 16-08-2018 17:55:00 32.7 C 35 % 15.23 C
793 16-08-2018 18:00:00 32.7 C 36 % 15.67 C
794 16-08-2018 18:05:00 32.7 C 33 % 14.32 C
795 16-08-2018 18:10:00 32.8 C 33 % 14.41 C
796 16-08-2018 18:15:00 32.8 C 38 % 16.61 C
797 16-08-2018 18:20:00 32.8 C 33 % 14.41 C
798 16-08-2018 18:25:00 32.7 C 33 % 14.32 C
799 16-08-2018 18:30:00 32.7 C 32 % 13.85 C
800 16-08-2018 18:35:00 32.7 C 34 % 14.78 C
Sensor: Nr:Datum:Temp:Feuchte:Taupunkt:
Aussen-T/F 801 16-08-2018 18:40:00 32.8 C 38 % 16.61 C
802 16-08-2018 18:45:00 32.9 C 39 % 17.11 C
803 16-08-2018 18:50:00 32.9 C 41 % 17.9 C
804 16-08-2018 18:55:00 32.8 C 37 % 16.19 C
805 16-08-2018 19:00:00 32.8 C 40 % 17.42 C
806 16-08-2018 19:05:00 32.7 C 40 % 17.33 C
807 16-08-2018 19:10:00 32.5 C 42 % 17.92 C
808 16-08-2018 19:15:00 32.2 C 42 % 17.65 C
809 16-08-2018 19:20:00 31.8 C 43 % 17.67 C
810 16-08-2018 19:25:00 31.3 C 44 % 17.58 C
811 16-08-2018 19:30:00 30.8 C 45 % 17.49 C
812 16-08-2018 19:35:00 30.3 C 46 % 17.39 C
813 16-08-2018 19:40:00 29.8 C 46 % 16.93 C
814 16-08-2018 19:45:00 29.3 C 48 % 17.15 C
815 16-08-2018 19:50:00 28.8 C 48 % 16.69 C
816 16-08-2018 19:55:00 28.5 C 49 % 16.75 C
817 16-08-2018 20:00:00 28.2 C 50 % 16.79 C
818 16-08-2018 20:05:00 27.9 C 51 % 16.83 C
819 16-08-2018 20:10:00 27.6 C 52 % 16.86 C
820 16-08-2018 20:15:00 27.2 C 52 % 16.49 C
821 16-08-2018 20:20:00 26.8 C 53 % 16.42 C
822 16-08-2018 20:25:00 26.4 C 54 % 16.34 C
823 16-08-2018 20:30:00 26 C 55 % 16.26 C
824 16-08-2018 20:35:00 25.6 C 55 % 15.89 C
825 16-08-2018 20:40:00 25.2 C 56 % 15.8 C
Sensor: Nr:Datum:Temp:Feuchte:Taupunkt:
Aussen-T/F 826 16-08-2018 20:45:00 24.8 C 57 % 15.7 C
827 16-08-2018 20:50:00 24.6 C 58 % 15.79 C
828 16-08-2018 20:55:00 24.2 C 57 % 15.14 C
829 16-08-2018 21:00:00 23.9 C 59 % 15.4 C
830 16-08-2018 21:05:00 23.7 C 60 % 15.48 C
831 16-08-2018 21:10:00 23.4 C 60 % 15.19 C
832 16-08-2018 21:15:00 23.2 C 61 % 15.26 C
833 16-08-2018 21:20:00 22.9 C 61 % 14.98 C
834 16-08-2018 21:25:00 22.7 C 63 % 15.3 C
835 16-08-2018 21:30:00 22.4 C 64 % 15.26 C
836 16-08-2018 21:35:00 22.2 C 65 % 15.31 C
837 16-08-2018 21:40:00 21.9 C 65 % 15.02 C
838 16-08-2018 21:45:00 21.7 C 65 % 14.84 C
839 16-08-2018 21:50:00 21.4 C 66 % 14.79 C
840 16-08-2018 21:55:00 21.2 C 67 % 14.83 C
841 16-08-2018 22:00:00 21 C 68 % 14.87 C
842 16-08-2018 22:05:00 20.8 C 69 % 14.91 C
843 16-08-2018 22:10:00 20.7 C 67 % 14.36 C
844 16-08-2018 22:15:00 20.6 C 67 % 14.26 C
845 16-08-2018 22:20:00 20.6 C 69 % 14.71 C
846 16-08-2018 22:25:00 20.6 C 67 % 14.26 C
847 16-08-2018 22:30:00 20.7 C 67 % 14.36 C
848 16-08-2018 22:35:00 20.8 C 69 % 14.91 C
849 16-08-2018 22:40:00 20.8 C 70 % 15.13 C
850 16-08-2018 22:45:00 20.8 C 70 % 15.13 C
Sensor: Nr:Datum:Temp:Feuchte:Taupunkt:
Aussen-T/F 851 16-08-2018 22:50:00 20.8 C 71 % 15.35 C
852 16-08-2018 22:55:00 20.8 C 71 % 15.35 C
853 16-08-2018 23:00:00 20.8 C 73 % 15.78 C
854 16-08-2018 23:05:00 20.7 C 73 % 15.69 C
855 16-08-2018 23:10:00 20.7 C 74 % 15.9 C
856 16-08-2018 23:15:00 20.6 C 75 % 16.01 C
857 16-08-2018 23:20:00 20.4 C 75 % 15.82 C
858 16-08-2018 23:25:00 20.3 C 75 % 15.72 C
859 16-08-2018 23:30:00 20.2 C 76 % 15.83 C
860 16-08-2018 23:35:00 20 C 76 % 15.64 C
861 16-08-2018 23:40:00 19.8 C 77 % 15.65 C
862 16-08-2018 23:45:00 19.7 C 78 % 15.76 C
863 16-08-2018 23:50:00 19.6 C 78 % 15.66 C
864 16-08-2018 23:55:00 19.4 C 78 % 15.47 C
865 17-08-2018 00:00:00 19.3 C 78 % 15.37 C
866 17-08-2018 00:05:00 19.3 C 79 % 15.57 C
867 17-08-2018 00:10:00 19.2 C 78 % 15.27 C
868 17-08-2018 00:15:00 19.2 C 79 % 15.47 C
869 17-08-2018 00:20:00 19.2 C 79 % 15.47 C
870 17-08-2018 00:25:00 19 C 79 % 15.28 C
871 17-08-2018 00:30:00 18.9 C 79 % 15.18 C
872 17-08-2018 00:35:00 18.7 C 80 % 15.18 C
873 17-08-2018 00:40:00 18.6 C 81 % 15.28 C
874 17-08-2018 00:45:00 18.4 C 81 % 15.08 C
875 17-08-2018 00:50:00 18.4 C 82 % 15.27 C
Sensor: Nr:Datum:Temp:Feuchte:Taupunkt:
Aussen-T/F 876 17-08-2018 00:55:00 18.2 C 82 % 15.08 C
877 17-08-2018 01:00:00 18.1 C 82 % 14.98 C
878 17-08-2018 01:05:00 17.9 C 82 % 14.78 C
879 17-08-2018 01:10:00 17.8 C 83 % 14.88 C
880 17-08-2018 01:15:00 17.8 C 83 % 14.88 C
881 17-08-2018 01:20:00 17.7 C 83 % 14.78 C
882 17-08-2018 01:25:00 17.7 C 84 % 14.96 C
883 17-08-2018 01:30:00 17.6 C 84 % 14.87 C
884 17-08-2018 01:35:00 17.6 C 84 % 14.87 C
885 17-08-2018 01:40:00 17.5 C 84 % 14.77 C
886 17-08-2018 01:45:00 17.4 C 84 % 14.67 C
887 17-08-2018 01:50:00 17.4 C 84 % 14.67 C
888 17-08-2018 01:55:00 17.3 C 85 % 14.76 C
889 17-08-2018 02:00:00 17.3 C 85 % 14.76 C
890 17-08-2018 02:05:00 17.3 C 85 % 14.76 C
891 17-08-2018 02:10:00 17.2 C 85 % 14.66 C
892 17-08-2018 02:15:00 17.2 C 85 % 14.66 C
893 17-08-2018 02:20:00 17.1 C 85 % 14.56 C
894 17-08-2018 02:25:00 17 C 85 % 14.46 C
895 17-08-2018 02:30:00 16.9 C 86 % 14.54 C
896 17-08-2018 02:35:00 16.8 C 86 % 14.45 C
897 17-08-2018 02:40:00 16.8 C 86 % 14.45 C
898 17-08-2018 02:45:00 16.7 C 86 % 14.35 C
899 17-08-2018 02:50:00 16.6 C 86 % 14.25 C
900 17-08-2018 02:55:00 16.6 C 86 % 14.25 C
Sensor: Nr:Datum:Temp:Feuchte:Taupunkt:
Aussen-T/F 901 17-08-2018 03:00:00 16.5 C 87 % 14.33 C
902 17-08-2018 03:05:00 16.5 C 87 % 14.33 C
903 17-08-2018 03:10:00 16.4 C 87 % 14.23 C
904 17-08-2018 03:15:00 16.3 C 87 % 14.13 C
905 17-08-2018 03:20:00 16.3 C 87 % 14.13 C
906 17-08-2018 03:25:00 16.2 C 87 % 14.03 C
907 17-08-2018 03:30:00 16.2 C 87 % 14.03 C
908 17-08-2018 03:35:00 16.2 C 88 % 14.21 C
909 17-08-2018 03:40:00 16.1 C 88 % 14.11 C
910 17-08-2018 03:45:00 16.1 C 88 % 14.11 C
911 17-08-2018 03:50:00 16.1 C 88 % 14.11 C
912 17-08-2018 03:55:00 16 C 88 % 14.01 C
913 17-08-2018 04:00:00 16 C 88 % 14.01 C
914 17-08-2018 04:05:00 16.1 C 88 % 14.11 C
915 17-08-2018 04:10:00 16 C 88 % 14.01 C
916 17-08-2018 04:15:00 15.9 C 88 % 13.92 C
917 17-08-2018 04:20:00 15.9 C 88 % 13.92 C
918 17-08-2018 04:25:00 15.9 C 88 % 13.92 C
919 17-08-2018 04:30:00 15.9 C 88 % 13.92 C
920 17-08-2018 04:35:00 15.8 C 88 % 13.82 C
921 17-08-2018 04:40:00 15.9 C 89 % 14.09 C
922 17-08-2018 04:45:00 15.9 C 89 % 14.09 C
923 17-08-2018 04:50:00 15.9 C 88 % 13.92 C
924 17-08-2018 04:55:00 15.9 C 88 % 13.92 C
925 17-08-2018 05:00:00 15.8 C 88 % 13.82 C
Sensor: Nr:Datum:Temp:Feuchte:Taupunkt:
Aussen-T/F 926 17-08-2018 05:05:00 15.8 C 89 % 13.99 C
927 17-08-2018 05:10:00 15.8 C 89 % 13.99 C
928 17-08-2018 05:15:00 15.8 C 89 % 13.99 C
929 17-08-2018 05:20:00 15.8 C 89 % 13.99 C
930 17-08-2018 05:25:00 15.8 C 89 % 13.99 C
931 17-08-2018 05:30:00 15.9 C 90 % 14.26 C
932 17-08-2018 05:35:00 16.1 C 90 % 14.46 C
933 17-08-2018 05:40:00 16.2 C 90 % 14.56 C
934 17-08-2018 05:45:00 16.3 C 89 % 14.48 C
935 17-08-2018 05:50:00 16.4 C 89 % 14.58 C
936 17-08-2018 05:55:00 16.6 C 89 % 14.78 C
937 17-08-2018 06:00:00 16.8 C 88 % 14.8 C
938 17-08-2018 06:05:00 16.9 C 87 % 14.72 C
939 17-08-2018 06:10:00 17 C 87 % 14.82 C
940 17-08-2018 06:15:00 17.1 C 87 % 14.92 C
941 17-08-2018 06:20:00 17.1 C 87 % 14.92 C
942 17-08-2018 06:25:00 17.1 C 86 % 14.74 C
943 17-08-2018 06:30:00 17.1 C 86 % 14.74 C
944 17-08-2018 06:35:00 17.1 C 86 % 14.74 C
945 17-08-2018 06:40:00 17.1 C 87 % 14.92 C
946 17-08-2018 06:45:00 17.1 C 87 % 14.92 C
947 17-08-2018 06:50:00 17.2 C 87 % 15.02 C
948 17-08-2018 06:55:00 17.3 C 86 % 14.94 C
949 17-08-2018 07:00:00 17.4 C 86 % 15.03 C
950 17-08-2018 07:05:00 17.4 C 86 % 15.03 C
Sensor: Nr:Datum:Temp:Feuchte:Taupunkt:
Aussen-T/F 951 17-08-2018 07:10:00 17.6 C 86 % 15.23 C
952 17-08-2018 07:15:00 17.6 C 86 % 15.23 C
953 17-08-2018 07:20:00 17.6 C 86 % 15.23 C
954 17-08-2018 07:25:00 17.6 C 86 % 15.23 C
955 17-08-2018 07:30:00 17.6 C 86 % 15.23 C
956 17-08-2018 07:35:00 17.7 C 86 % 15.33 C
957 17-08-2018 07:40:00 17.7 C 86 % 15.33 C
958 17-08-2018 07:45:00 17.8 C 86 % 15.43 C
959 17-08-2018 07:50:00 17.8 C 86 % 15.43 C
960 17-08-2018 07:55:00 17.8 C 86 % 15.43 C
961 17-08-2018 08:00:00 17.9 C 86 % 15.53 C
962 17-08-2018 08:05:00 17.9 C 86 % 15.53 C
963 17-08-2018 08:10:00 18 C 86 % 15.62 C
964 17-08-2018 08:15:00 18 C 85 % 15.44 C
965 17-08-2018 08:20:00 18.1 C 85 % 15.54 C
966 17-08-2018 08:25:00 18.1 C 85 % 15.54 C
967 17-08-2018 08:30:00 18.1 C 85 % 15.54 C
968 17-08-2018 08:35:00 18.1 C 85 % 15.54 C
969 17-08-2018 08:40:00 18.2 C 85 % 15.64 C
970 17-08-2018 08:45:00 18.3 C 84 % 15.55 C
971 17-08-2018 08:50:00 18.4 C 84 % 15.65 C
972 17-08-2018 08:55:00 18.6 C 84 % 15.84 C
973 17-08-2018 09:00:00 18.7 C 83 % 15.75 C
974 17-08-2018 09:05:00 18.8 C 83 % 15.85 C
975 17-08-2018 09:10:00 18.9 C 83 % 15.95 C
Sensor: Nr:Datum:Temp:Feuchte:Taupunkt:
Aussen-T/F 976 17-08-2018 09:15:00 19.1 C 82 % 15.96 C
977 17-08-2018 09:20:00 19.2 C 82 % 16.05 C
978 17-08-2018 09:25:00 19.2 C 82 % 16.05 C
979 17-08-2018 09:30:00 19.3 C 81 % 15.96 C
980 17-08-2018 09:35:00 19.3 C 81 % 15.96 C
981 17-08-2018 09:40:00 19.4 C 81 % 16.06 C
982 17-08-2018 09:45:00 19.4 C 80 % 15.86 C
983 17-08-2018 09:50:00 19.6 C 79 % 15.86 C
984 17-08-2018 09:55:00 19.7 C 79 % 15.96 C
985 17-08-2018 10:00:00 19.8 C 78 % 15.85 C
986 17-08-2018 10:05:00 20 C 78 % 16.05 C
987 17-08-2018 10:10:00 20.2 C 77 % 16.04 C
988 17-08-2018 10:15:00 20.2 C 77 % 16.04 C
989 17-08-2018 10:20:00 20.3 C 77 % 16.14 C
990 17-08-2018 10:25:00 20.3 C 77 % 16.14 C
991 17-08-2018 10:30:00 20.2 C 77 % 16.04 C
992 17-08-2018 10:35:00 20.2 C 77 % 16.04 C
993 17-08-2018 10:40:00 20.3 C 78 % 16.34 C
994 17-08-2018 10:45:00 20.6 C 76 % 16.22 C
995 17-08-2018 10:50:00 20.8 C 75 % 16.21 C
996 17-08-2018 10:55:00 21.1 C 74 % 16.29 C
997 17-08-2018 11:00:00 21.2 C 74 % 16.38 C
998 17-08-2018 11:05:00 21.3 C 73 % 16.26 C
999 17-08-2018 11:10:00 21.4 C 73 % 16.36 C
1000 17-08-2018 11:15:00 21.5 C 72 % 16.24 C
Sensor: Nr:Datum:Temp:Feuchte:Taupunkt:
Aussen-T/F 1001 17-08-2018 11:20:00 21.7 C 72 % 16.43 C
1002 17-08-2018 11:25:00 21.8 C 72 % 16.53 C
1003 17-08-2018 11:30:00 21.9 C 72 % 16.62 C
1004 17-08-2018 11:35:00 21.9 C 71 % 16.4 C
1005 17-08-2018 11:40:00 21.9 C 72 % 16.62 C
1006 17-08-2018 11:45:00 22.1 C 71 % 16.6 C
1007 17-08-2018 11:50:00 22.2 C 71 % 16.69 C
1008 17-08-2018 11:55:00 22.4 C 70 % 16.66 C
1009 17-08-2018 12:00:00 22.7 C 69 % 16.72 C
1010 17-08-2018 12:05:00 22.9 C 69 % 16.91 C
1011 17-08-2018 12:10:00 23.2 C 68 % 16.97 C
1012 17-08-2018 12:15:00 23.3 C 67 % 16.83 C
1013 17-08-2018 12:20:00 23.5 C 66 % 16.78 C
1014 17-08-2018 12:25:00 23.6 C 68 % 17.35 C
1015 17-08-2018 12:30:00 23.7 C 66 % 16.97 C
1016 17-08-2018 12:35:00 23.7 C 66 % 16.97 C
1017 17-08-2018 12:40:00 23.7 C 65 % 16.73 C
1018 17-08-2018 12:45:00 23.6 C 65 % 16.64 C
1019 17-08-2018 12:50:00 23.6 C 66 % 16.88 C
1020 17-08-2018 12:55:00 23.6 C 66 % 16.88 C
1021 17-08-2018 13:00:00 23.6 C 64 % 16.39 C
1022 17-08-2018 13:05:00 23.6 C 65 % 16.64 C
1023 17-08-2018 13:10:00 23.6 C 65 % 16.64 C
1024 17-08-2018 13:15:00 23.6 C 64 % 16.39 C
1025 17-08-2018 13:20:00 23.7 C 65 % 16.73 C
Sensor: Nr:Datum:Temp:Feuchte:Taupunkt:
Aussen-T/F 1026 17-08-2018 13:25:00 23.7 C 65 % 16.73 C
1027 17-08-2018 13:30:00 23.7 C 66 % 16.97 C
1028 17-08-2018 13:35:00 23.6 C 67 % 17.11 C
1029 17-08-2018 13:40:00 23.6 C 68 % 17.35 C
1030 17-08-2018 13:45:00 23.7 C 68 % 17.44 C
1031 17-08-2018 13:50:00 23.8 C 68 % 17.54 C
1032 17-08-2018 13:55:00 23.8 C 67 % 17.3 C
1033 17-08-2018 14:00:00 23.9 C 66 % 17.16 C
1034 17-08-2018 14:05:00 24.1 C 67 % 17.59 C
1035 17-08-2018 14:10:00 24.1 C 66 % 17.35 C
1036 17-08-2018 14:15:00 24.1 C 65 % 17.11 C
1037 17-08-2018 14:20:00 24.1 C 66 % 17.35 C
1038 17-08-2018 14:25:00 24.1 C 65 % 17.11 C
1039 17-08-2018 14:30:00 23.9 C 65 % 16.92 C
1040 17-08-2018 14:35:00 23.8 C 66 % 17.07 C
1041 17-08-2018 14:40:00 23.9 C 66 % 17.16 C
1042 17-08-2018 14:45:00 23.9 C 65 % 16.92 C
1043 17-08-2018 14:50:00 23.8 C 65 % 16.83 C
1044 17-08-2018 14:55:00 23.6 C 66 % 16.88 C
1045 17-08-2018 15:00:00 23.6 C 67 % 17.11 C
1046 17-08-2018 15:05:00 23.6 C 66 % 16.88 C
1047 17-08-2018 15:10:00 23.7 C 66 % 16.97 C
1048 17-08-2018 15:15:00 23.8 C 65 % 16.83 C
1049 17-08-2018 15:20:00 23.8 C 64 % 16.58 C
1050 17-08-2018 15:25:00 23.6 C 65 % 16.64 C
Sensor: Nr:Datum:Temp:Feuchte:Taupunkt:
Aussen-T/F 1051 17-08-2018 15:30:00 23.6 C 65 % 16.64 C
1052 17-08-2018 15:35:00 23.6 C 65 % 16.64 C
1053 17-08-2018 15:40:00 23.6 C 64 % 16.39 C
1054 17-08-2018 15:45:00 23.7 C 64 % 16.49 C
1055 17-08-2018 15:50:00 23.7 C 64 % 16.49 C
1056 17-08-2018 15:55:00 23.8 C 65 % 16.83 C
1057 17-08-2018 16:00:00 24.1 C 64 % 16.86 C
1058 17-08-2018 16:05:00 24.2 C 63 % 16.71 C
1059 17-08-2018 16:10:00 24.2 C 63 % 16.71 C
1060 17-08-2018 16:15:00 23.9 C 62 % 16.18 C
1061 17-08-2018 16:20:00 23.6 C 64 % 16.39 C
1062 17-08-2018 16:25:00 23.2 C 65 % 16.26 C
1063 17-08-2018 16:30:00 23.1 C 65 % 16.16 C
1064 17-08-2018 16:35:00 22.9 C 66 % 16.21 C
1065 17-08-2018 16:40:00 22.8 C 66 % 16.12 C
1066 17-08-2018 16:45:00 22.7 C 66 % 16.02 C
1067 17-08-2018 16:50:00 22.6 C 66 % 15.93 C
1068 17-08-2018 16:55:00 22.4 C 66 % 15.74 C
1069 17-08-2018 17:00:00 22.3 C 68 % 16.11 C
1070 17-08-2018 17:05:00 22.3 C 69 % 16.34 C
1071 17-08-2018 17:10:00 22.3 C 68 % 16.11 C
1072 17-08-2018 17:15:00 22.4 C 69 % 16.43 C
1073 17-08-2018 17:20:00 22.8 C 67 % 16.35 C
1074 17-08-2018 17:25:00 23.1 C 65 % 16.16 C
1075 17-08-2018 17:30:00 23.1 C 65 % 16.16 C
Sensor: Nr:Datum:Temp:Feuchte:Taupunkt:
Aussen-T/F 1076 17-08-2018 17:35:00 22.9 C 66 % 16.21 C
1077 17-08-2018 17:40:00 22.7 C 67 % 16.26 C
1078 17-08-2018 17:45:00 22.4 C 68 % 16.2 C
1079 17-08-2018 17:50:00 22.3 C 68 % 16.11 C
1080 17-08-2018 17:55:00 22.3 C 69 % 16.34 C
1081 17-08-2018 18:00:00 22.3 C 69 % 16.34 C
1082 17-08-2018 18:05:00 22.4 C 69 % 16.43 C
1083 17-08-2018 18:10:00 22.4 C 69 % 16.43 C
1084 17-08-2018 18:15:00 22.4 C 68 % 16.2 C
1085 17-08-2018 18:20:00 22.4 C 68 % 16.2 C
1086 17-08-2018 18:25:00 22.4 C 69 % 16.43 C
1087 17-08-2018 18:30:00 22.4 C 68 % 16.2 C
1088 17-08-2018 18:35:00 22.2 C 68 % 16.01 C
1089 17-08-2018 18:40:00 21.9 C 69 % 15.96 C
1090 17-08-2018 18:45:00 21.7 C 69 % 15.77 C
1091 17-08-2018 18:50:00 21.7 C 70 % 15.99 C
1092 17-08-2018 18:55:00 21.7 C 70 % 15.99 C
1093 17-08-2018 19:00:00 21.7 C 70 % 15.99 C
1094 17-08-2018 19:05:00 21.7 C 69 % 15.77 C
1095 17-08-2018 19:10:00 21.7 C 69 % 15.77 C
1096 17-08-2018 19:15:00 21.7 C 69 % 15.77 C
1097 17-08-2018 19:20:00 21.6 C 69 % 15.67 C
1098 17-08-2018 19:25:00 21.6 C 69 % 15.67 C
1099 17-08-2018 19:30:00 21.6 C 69 % 15.67 C
1100 17-08-2018 19:35:00 21.7 C 68 % 15.54 C
Sensor: Nr:Datum:Temp:Feuchte:Taupunkt:
Aussen-T/F 1101 17-08-2018 19:40:00 21.7 C 68 % 15.54 C
1102 17-08-2018 19:45:00 21.7 C 68 % 15.54 C
1103 17-08-2018 19:50:00 21.7 C 68 % 15.54 C
1104 17-08-2018 19:55:00 21.7 C 68 % 15.54 C
1105 17-08-2018 20:00:00 21.7 C 68 % 15.54 C
1106 17-08-2018 20:05:00 21.6 C 68 % 15.44 C
1107 17-08-2018 20:10:00 21.4 C 69 % 15.48 C
1108 17-08-2018 20:15:00 21.3 C 69 % 15.38 C
1109 17-08-2018 20:20:00 21.2 C 68 % 15.06 C
1110 17-08-2018 20:25:00 21.2 C 69 % 15.29 C
1111 17-08-2018 20:30:00 21.1 C 68 % 14.97 C
1112 17-08-2018 20:35:00 20.9 C 67 % 14.55 C
1113 17-08-2018 20:40:00 20.8 C 68 % 14.68 C
1114 17-08-2018 20:45:00 20.6 C 70 % 14.94 C
1115 17-08-2018 20:50:00 20.4 C 70 % 14.75 C
1116 17-08-2018 20:55:00 20.2 C 70 % 14.56 C
1117 17-08-2018 21:00:00 20 C 72 % 14.8 C
1118 17-08-2018 21:05:00 19.7 C 73 % 14.73 C
1119 17-08-2018 21:10:00 19.4 C 74 % 14.65 C
1120 17-08-2018 21:15:00 19.1 C 75 % 14.57 C
1121 17-08-2018 21:20:00 18.9 C 76 % 14.58 C
1122 17-08-2018 21:25:00 18.7 C 77 % 14.59 C
1123 17-08-2018 21:30:00 18.6 C 77 % 14.49 C
1124 17-08-2018 21:35:00 18.4 C 78 % 14.5 C
1125 17-08-2018 21:40:00 18.3 C 78 % 14.4 C
Sensor: Nr:Datum:Temp:Feuchte:Taupunkt:
Aussen-T/F 1126 17-08-2018 21:45:00 18.2 C 78 % 14.3 C
1127 17-08-2018 21:50:00 18.1 C 79 % 14.4 C
1128 17-08-2018 21:55:00 17.9 C 79 % 14.21 C
1129 17-08-2018 22:00:00 17.9 C 79 % 14.21 C
1130 17-08-2018 22:05:00 17.8 C 79 % 14.11 C
1131 17-08-2018 22:10:00 17.7 C 79 % 14.01 C
1132 17-08-2018 22:15:00 17.7 C 80 % 14.21 C
1133 17-08-2018 22:20:00 17.6 C 80 % 14.11 C
1134 17-08-2018 22:25:00 17.5 C 80 % 14.01 C
1135 17-08-2018 22:30:00 17.4 C 80 % 13.92 C
1136 17-08-2018 22:35:00 17.4 C 80 % 13.92 C
1137 17-08-2018 22:40:00 17.3 C 80 % 13.82 C
1138 17-08-2018 22:45:00 17.3 C 80 % 13.82 C
1139 17-08-2018 22:50:00 17.2 C 80 % 13.72 C
1140 17-08-2018 22:55:00 17.1 C 80 % 13.62 C
1141 17-08-2018 23:00:00 17.1 C 80 % 13.62 C
1142 17-08-2018 23:05:00 17 C 80 % 13.53 C
1143 17-08-2018 23:10:00 16.9 C 80 % 13.43 C
1144 17-08-2018 23:15:00 16.9 C 80 % 13.43 C
1145 17-08-2018 23:20:00 16.8 C 80 % 13.33 C
1146 17-08-2018 23:25:00 16.7 C 81 % 13.43 C
1147 17-08-2018 23:30:00 16.7 C 81 % 13.43 C
1148 17-08-2018 23:35:00 16.5 C 81 % 13.23 C
1149 17-08-2018 23:40:00 16.4 C 82 % 13.32 C
1150 17-08-2018 23:45:00 16.3 C 82 % 13.22 C
Sensor: Nr:Datum:Temp:Feuchte:Taupunkt:
Aussen-T/F 1151 17-08-2018 23:50:00 16.3 C 82 % 13.22 C
1152 17-08-2018 23:55:00 16.2 C 82 % 13.13 C
1153 18-08-2018 00:00:00 16.2 C 82 % 13.13 C
1154 18-08-2018 00:05:00 16.1 C 82 % 13.03 C
1155 18-08-2018 00:10:00 16.1 C 83 % 13.21 C
1156 18-08-2018 00:15:00 16 C 83 % 13.12 C
1157 18-08-2018 00:20:00 15.9 C 83 % 13.02 C
1158 18-08-2018 00:25:00 15.8 C 83 % 12.92 C
1159 18-08-2018 00:30:00 15.7 C 83 % 12.82 C
1160 18-08-2018 00:35:00 15.6 C 83 % 12.72 C
1161 18-08-2018 00:40:00 15.5 C 84 % 12.81 C
1162 18-08-2018 00:45:00 15.4 C 84 % 12.71 C
1163 18-08-2018 00:50:00 15.3 C 84 % 12.61 C
1164 18-08-2018 00:55:00 15.3 C 84 % 12.61 C
1165 18-08-2018 01:00:00 15.2 C 85 % 12.7 C
1166 18-08-2018 01:05:00 15.1 C 85 % 12.6 C
1167 18-08-2018 01:10:00 15 C 85 % 12.5 C
1168 18-08-2018 01:15:00 14.9 C 86 % 12.58 C
1169 18-08-2018 01:20:00 14.8 C 86 % 12.48 C
1170 18-08-2018 01:25:00 14.7 C 86 % 12.38 C
1171 18-08-2018 01:30:00 14.7 C 86 % 12.38 C
1172 18-08-2018 01:35:00 14.7 C 87 % 12.56 C
1173 18-08-2018 01:40:00 14.7 C 87 % 12.56 C
1174 18-08-2018 01:45:00 14.7 C 87 % 12.56 C
1175 18-08-2018 01:50:00 14.6 C 87 % 12.46 C
Sensor: Nr:Datum:Temp:Feuchte:Taupunkt:
Aussen-T/F 1176 18-08-2018 01:55:00 14.6 C 87 % 12.46 C
1177 18-08-2018 02:00:00 14.4 C 87 % 12.27 C
1178 18-08-2018 02:05:00 14.3 C 87 % 12.17 C
1179 18-08-2018 02:10:00 14.3 C 87 % 12.17 C
1180 18-08-2018 02:15:00 14.2 C 87 % 12.07 C
1181 18-08-2018 02:20:00 14.2 C 87 % 12.07 C
1182 18-08-2018 02:25:00 14.1 C 88 % 12.14 C
1183 18-08-2018 02:30:00 14.1 C 88 % 12.14 C
1184 18-08-2018 02:35:00 14.1 C 88 % 12.14 C
1185 18-08-2018 02:40:00 14 C 88 % 12.05 C
1186 18-08-2018 02:45:00 14 C 88 % 12.05 C
1187 18-08-2018 02:50:00 13.9 C 88 % 11.95 C
1188 18-08-2018 02:55:00 13.9 C 88 % 11.95 C
1189 18-08-2018 03:00:00 13.8 C 88 % 11.85 C
1190 18-08-2018 03:05:00 13.8 C 89 % 12.02 C
1191 18-08-2018 03:10:00 13.7 C 89 % 11.92 C
1192 18-08-2018 03:15:00 13.7 C 88 % 11.75 C
1193 18-08-2018 03:20:00 13.6 C 89 % 11.82 C
1194 18-08-2018 03:25:00 13.5 C 89 % 11.72 C
1195 18-08-2018 03:30:00 13.5 C 89 % 11.72 C
1196 18-08-2018 03:35:00 13.4 C 89 % 11.63 C
1197 18-08-2018 03:40:00 13.4 C 89 % 11.63 C
1198 18-08-2018 03:45:00 13.2 C 89 % 11.43 C
1199 18-08-2018 03:50:00 13.2 C 89 % 11.43 C
1200 18-08-2018 03:55:00 13.2 C 90 % 11.6 C
Sensor: Nr:Datum:Temp:Feuchte:Taupunkt:
Aussen-T/F 1201 18-08-2018 04:00:00 13.1 C 90 % 11.5 C
1202 18-08-2018 04:05:00 13.1 C 89 % 11.33 C
1203 18-08-2018 04:10:00 13 C 90 % 11.4 C
1204 18-08-2018 04:15:00 12.9 C 90 % 11.3 C
1205 18-08-2018 04:20:00 12.9 C 90 % 11.3 C
1206 18-08-2018 04:25:00 12.8 C 90 % 11.2 C
1207 18-08-2018 04:30:00 12.8 C 90 % 11.2 C
1208 18-08-2018 04:35:00 12.8 C 90 % 11.2 C
1209 18-08-2018 04:40:00 12.8 C 91 % 11.37 C
1210 18-08-2018 04:45:00 12.8 C 90 % 11.2 C
1211 18-08-2018 04:50:00 12.7 C 90 % 11.1 C
1212 18-08-2018 04:55:00 12.7 C 91 % 11.27 C
1213 18-08-2018 05:00:00 12.7 C 91 % 11.27 C
1214 18-08-2018 05:05:00 12.6 C 91 % 11.17 C
1215 18-08-2018 05:10:00 12.6 C 91 % 11.17 C
1216 18-08-2018 05:15:00 12.5 C 91 % 11.07 C
1217 18-08-2018 05:20:00 12.5 C 91 % 11.07 C
1218 18-08-2018 05:25:00 12.5 C 91 % 11.07 C
1219 18-08-2018 05:30:00 12.6 C 91 % 11.17 C
1220 18-08-2018 05:35:00 12.5 C 91 % 11.07 C
1221 18-08-2018 05:40:00 12.4 C 91 % 10.97 C
1222 18-08-2018 05:45:00 12.4 C 91 % 10.97 C
1223 18-08-2018 05:50:00 12.4 C 92 % 11.14 C
1224 18-08-2018 05:55:00 12.4 C 92 % 11.14 C
1225 18-08-2018 06:00:00 12.3 C 91 % 10.87 C
Sensor: Nr:Datum:Temp:Feuchte:Taupunkt:
Aussen-T/F 1226 18-08-2018 06:05:00 12.3 C 91 % 10.87 C
1227 18-08-2018 06:10:00 12.2 C 91 % 10.78 C
1228 18-08-2018 06:15:00 12.2 C 91 % 10.78 C
1229 18-08-2018 06:20:00 12.1 C 91 % 10.68 C
1230 18-08-2018 06:25:00 12 C 92 % 10.74 C
1231 18-08-2018 06:30:00 11.9 C 92 % 10.64 C
1232 18-08-2018 06:35:00 11.9 C 92 % 10.64 C
1233 18-08-2018 06:40:00 11.9 C 92 % 10.64 C
1234 18-08-2018 06:45:00 11.9 C 92 % 10.64 C
1235 18-08-2018 06:50:00 11.8 C 92 % 10.54 C
1236 18-08-2018 06:55:00 11.8 C 92 % 10.54 C
1237 18-08-2018 07:00:00 11.9 C 92 % 10.64 C
1238 18-08-2018 07:05:00 11.9 C 92 % 10.64 C
1239 18-08-2018 07:10:00 11.9 C 92 % 10.64 C
1240 18-08-2018 07:15:00 11.9 C 92 % 10.64 C
1241 18-08-2018 07:20:00 11.9 C 92 % 10.64 C
1242 18-08-2018 07:25:00 12 C 92 % 10.74 C
1243 18-08-2018 07:30:00 12.1 C 93 % 11 C
1244 18-08-2018 07:35:00 12.1 C 93 % 11 C
1245 18-08-2018 07:40:00 12.1 C 93 % 11 C
1246 18-08-2018 07:45:00 12.2 C 93 % 11.1 C
1247 18-08-2018 07:50:00 12.2 C 93 % 11.1 C
1248 18-08-2018 07:55:00 12.2 C 93 % 11.1 C
1249 18-08-2018 08:00:00 12.3 C 93 % 11.2 C
1250 18-08-2018 08:05:00 12.3 C 93 % 11.2 C
Sensor: Nr:Datum:Temp:Feuchte:Taupunkt:
Aussen-T/F 1251 18-08-2018 08:10:00 12.3 C 93 % 11.2 C
1252 18-08-2018 08:15:00 12.3 C 93 % 11.2 C
1253 18-08-2018 08:20:00 12.4 C 93 % 11.3 C
1254 18-08-2018 08:25:00 12.4 C 93 % 11.3 C
1255 18-08-2018 08:30:00 12.5 C 93 % 11.4 C
1256 18-08-2018 08:35:00 12.6 C 93 % 11.5 C
1257 18-08-2018 08:40:00 12.6 C 93 % 11.5 C
1258 18-08-2018 08:45:00 12.7 C 93 % 11.6 C
1259 18-08-2018 08:50:00 12.7 C 93 % 11.6 C
1260 18-08-2018 08:55:00 12.8 C 93 % 11.7 C
1261 18-08-2018 09:00:00 12.9 C 93 % 11.8 C
1262 18-08-2018 09:05:00 13.1 C 93 % 11.99 C
1263 18-08-2018 09:10:00 13.2 C 93 % 12.09 C
1264 18-08-2018 09:15:00 13.3 C 93 % 12.19 C
1265 18-08-2018 09:20:00 13.4 C 93 % 12.29 C
1266 18-08-2018 09:25:00 13.5 C 93 % 12.39 C
1267 18-08-2018 09:30:00 13.7 C 93 % 12.59 C
1268 18-08-2018 09:35:00 13.8 C 93 % 12.69 C
1269 18-08-2018 09:40:00 13.9 C 93 % 12.79 C
1270 18-08-2018 09:45:00 14.1 C 93 % 12.99 C
1271 18-08-2018 09:50:00 14.2 C 93 % 13.08 C
1272 18-08-2018 09:55:00 14.3 C 93 % 13.18 C
1273 18-08-2018 10:00:00 14.4 C 92 % 13.12 C
1274 18-08-2018 10:05:00 14.6 C 92 % 13.32 C
1275 18-08-2018 10:10:00 14.8 C 91 % 13.35 C
Sensor: Nr:Datum:Temp:Feuchte:Taupunkt:
Aussen-T/F 1276 18-08-2018 10:15:00 15 C 91 % 13.54 C
1277 18-08-2018 10:20:00 15.2 C 91 % 13.74 C
1278 18-08-2018 10:25:00 15.4 C 90 % 13.77 C
1279 18-08-2018 10:30:00 15.6 C 89 % 13.79 C
1280 18-08-2018 10:35:00 15.9 C 87 % 13.74 C
1281 18-08-2018 10:40:00 16.3 C 86 % 13.95 C
1282 18-08-2018 10:45:00 16.6 C 84 % 13.89 C
1283 18-08-2018 10:50:00 16.9 C 83 % 14 C
1284 18-08-2018 10:55:00 17.2 C 82 % 14.1 C
1285 18-08-2018 11:00:00 17.4 C 81 % 14.11 C
1286 18-08-2018 11:05:00 17.7 C 80 % 14.21 C
1287 18-08-2018 11:10:00 17.9 C 79 % 14.21 C
1288 18-08-2018 11:15:00 18.1 C 77 % 14.01 C
1289 18-08-2018 11:20:00 18.4 C 77 % 14.3 C
1290 18-08-2018 11:25:00 18.6 C 76 % 14.29 C
1291 18-08-2018 11:30:00 18.8 C 73 % 13.86 C
1292 18-08-2018 11:35:00 19.1 C 72 % 13.94 C
1293 18-08-2018 11:40:00 19.2 C 72 % 14.03 C
1294 18-08-2018 11:45:00 19.5 C 70 % 13.89 C
1295 18-08-2018 11:50:00 19.7 C 65 % 12.94 C
1296 18-08-2018 11:55:00 20 C 64 % 12.99 C
1297 18-08-2018 12:00:00 20.2 C 64 % 13.18 C
1298 18-08-2018 12:05:00 20.4 C 62 % 12.88 C
1299 18-08-2018 12:10:00 20.7 C 59 % 12.41 C
1300 18-08-2018 12:15:00 20.8 C 58 % 12.24 C
Sensor: Nr:Datum:Temp:Feuchte:Taupunkt:
Aussen-T/F 1301 18-08-2018 12:20:00 20.9 C 59 % 12.59 C
1302 18-08-2018 12:25:00 21.2 C 60 % 13.13 C
1303 18-08-2018 12:30:00 21.3 C 60 % 13.22 C
1304 18-08-2018 12:35:00 21.3 C 60 % 13.22 C
1305 18-08-2018 12:40:00 21.4 C 58 % 12.8 C
1306 18-08-2018 12:45:00 21.4 C 59 % 13.06 C
1307 18-08-2018 12:50:00 21.5 C 57 % 12.63 C
1308 18-08-2018 12:55:00 21.6 C 58 % 12.99 C
1309 18-08-2018 13:00:00 21.7 C 59 % 13.34 C
1310 18-08-2018 13:05:00 21.8 C 59 % 13.44 C
1311 18-08-2018 13:10:00 21.8 C 54 % 12.08 C
1312 18-08-2018 13:15:00 21.9 C 53 % 11.89 C
1313 18-08-2018 13:20:00 21.9 C 54 % 12.18 C
1314 18-08-2018 13:25:00 22 C 53 % 11.99 C
1315 18-08-2018 13:30:00 22.3 C 51 % 11.68 C
1316 18-08-2018 13:35:00 22.5 C 53 % 12.45 C
1317 18-08-2018 13:40:00 22.7 C 52 % 12.34 C
1318 18-08-2018 13:45:00 22.8 C 51 % 12.14 C
1319 18-08-2018 13:50:00 22.8 C 50 % 11.84 C
1320 18-08-2018 13:55:00 22.9 C 50 % 11.93 C
1321 18-08-2018 14:00:00 23.1 C 50 % 12.11 C
1322 18-08-2018 14:05:00 23.1 C 49 % 11.81 C
1323 18-08-2018 14:10:00 23.3 C 48 % 11.68 C
1324 18-08-2018 14:15:00 23.4 C 48 % 11.77 C
1325 18-08-2018 14:20:00 23.6 C 47 % 11.63 C
Sensor: Nr:Datum:Temp:Feuchte:Taupunkt:
Aussen-T/F 1326 18-08-2018 14:25:00 23.6 C 46 % 11.31 C
1327 18-08-2018 14:30:00 23.7 C 45 % 11.07 C
1328 18-08-2018 14:35:00 23.8 C 46 % 11.49 C
1329 18-08-2018 14:40:00 23.8 C 47 % 11.82 C
1330 18-08-2018 14:45:00 23.9 C 45 % 11.25 C
1331 18-08-2018 14:50:00 24 C 45 % 11.34 C
1332 18-08-2018 14:55:00 24.2 C 45 % 11.52 C
1333 18-08-2018 15:00:00 24.3 C 44 % 11.27 C
1334 18-08-2018 15:05:00 24.4 C 45 % 11.7 C
1335 18-08-2018 15:10:00 24.5 C 44 % 11.45 C
1336 18-08-2018 15:15:00 24.7 C 44 % 11.63 C
1337 18-08-2018 15:20:00 24.9 C 43 % 11.47 C
1338 18-08-2018 15:25:00 25.1 C 43 % 11.65 C
1339 18-08-2018 15:30:00 25.2 C 42 % 11.38 C
1340 18-08-2018 15:35:00 25.3 C 41 % 11.11 C
1341 18-08-2018 15:40:00 25.3 C 45 % 12.52 C
1342 18-08-2018 15:45:00 25.4 C 42 % 11.56 C
1343 18-08-2018 15:50:00 25.4 C 41 % 11.2 C
1344 18-08-2018 15:55:00 25.6 C 41 % 11.38 C
1345 18-08-2018 16:00:00 26 C 41 % 11.73 C
1346 18-08-2018 16:05:00 26.3 C 39 % 11.25 C
1347 18-08-2018 16:10:00 26.4 C 41 % 12.09 C
1348 18-08-2018 16:15:00 26.8 C 41 % 12.45 C
1349 18-08-2018 16:20:00 27.2 C 39 % 12.05 C
1350 18-08-2018 16:25:00 27.4 C 36 % 11.01 C
Sensor: Nr:Datum:Temp:Feuchte:Taupunkt:
Aussen-T/F 1351 18-08-2018 16:30:00 27.6 C 39 % 12.4 C
1352 18-08-2018 16:35:00 27.8 C 37 % 11.78 C
1353 18-08-2018 16:40:00 27.8 C 37 % 11.78 C
1354 18-08-2018 16:45:00 27.7 C 37 % 11.69 C
1355 18-08-2018 16:50:00 27.3 C 36 % 10.93 C
1356 18-08-2018 16:55:00 27.3 C 36 % 10.93 C
1357 18-08-2018 17:00:00 27.4 C 37 % 11.43 C
1358 18-08-2018 17:05:00 27.6 C 38 % 12.01 C
1359 18-08-2018 17:10:00 27.7 C 37 % 11.69 C
1360 18-08-2018 17:15:00 27.6 C 37 % 11.6 C
1361 18-08-2018 17:20:00 27.6 C 36 % 11.19 C
1362 18-08-2018 17:25:00 27.6 C 36 % 11.19 C
1363 18-08-2018 17:30:00 27.6 C 36 % 11.19 C
1364 18-08-2018 17:35:00 27.7 C 36 % 11.28 C
1365 18-08-2018 17:40:00 27.8 C 35 % 10.94 C
1366 18-08-2018 17:45:00 28.1 C 35 % 11.2 C
1367 18-08-2018 17:50:00 28.1 C 35 % 11.2 C
1368 18-08-2018 17:55:00 28.2 C 34 % 10.86 C
1369 18-08-2018 18:00:00 28.1 C 34 % 10.77 C
1370 18-08-2018 18:05:00 28.2 C 35 % 11.29 C
1371 18-08-2018 18:10:00 28.2 C 35 % 11.29 C
1372 18-08-2018 18:15:00 28.2 C 36 % 11.72 C
1373 18-08-2018 18:20:00 28.2 C 35 % 11.29 C
1374 18-08-2018 18:25:00 28.2 C 35 % 11.29 C
1375 18-08-2018 18:30:00 28.2 C 35 % 11.29 C
Sensor: Nr:Datum:Temp:Feuchte:Taupunkt:
Aussen-T/F 1376 18-08-2018 18:35:00 28.2 C 35 % 11.29 C
1377 18-08-2018 18:40:00 28.1 C 35 % 11.2 C
1378 18-08-2018 18:45:00 28.3 C 34 % 10.94 C
1379 18-08-2018 18:50:00 28.4 C 34 % 11.03 C
1380 18-08-2018 18:55:00 28.5 C 33 % 10.67 C
1381 18-08-2018 19:00:00 28.6 C 33 % 10.76 C
1382 18-08-2018 19:05:00 28.6 C 33 % 10.76 C
1383 18-08-2018 19:10:00 28.4 C 33 % 10.58 C
1384 18-08-2018 19:15:00 28.3 C 33 % 10.49 C
1385 18-08-2018 19:20:00 27.9 C 36 % 11.45 C
1386 18-08-2018 19:25:00 27.5 C 35 % 10.68 C
1387 18-08-2018 19:30:00 27.3 C 37 % 11.34 C
1388 18-08-2018 19:35:00 27.1 C 39 % 11.96 C
1389 18-08-2018 19:40:00 26.8 C 43 % 13.18 C
1390 18-08-2018 19:45:00 26.4 C 45 % 13.51 C
1391 18-08-2018 19:50:00 25.8 C 46 % 13.31 C
1392 18-08-2018 19:55:00 25.2 C 48 % 13.41 C
1393 18-08-2018 20:00:00 24.9 C 43 % 11.47 C
1394 18-08-2018 20:05:00 24.9 C 42 % 11.11 C
1395 18-08-2018 20:10:00 25.1 C 43 % 11.65 C
1396 18-08-2018 20:15:00 25.2 C 44 % 12.09 C
1397 18-08-2018 20:20:00 25.1 C 43 % 11.65 C
1398 18-08-2018 20:25:00 24.8 C 44 % 11.72 C
1399 18-08-2018 20:30:00 24.7 C 48 % 12.96 C
1400 18-08-2018 20:35:00 24.4 C 50 % 13.31 C
Sensor: Nr:Datum:Temp:Feuchte:Taupunkt:
Aussen-T/F 1401 18-08-2018 20:40:00 23.8 C 49 % 12.45 C
1402 18-08-2018 20:45:00 23.3 C 49 % 11.99 C
1403 18-08-2018 20:50:00 22.9 C 54 % 13.1 C
1404 18-08-2018 20:55:00 22.5 C 54 % 12.73 C
1405 18-08-2018 21:00:00 22.1 C 54 % 12.36 C
1406 18-08-2018 21:05:00 21.8 C 55 % 12.36 C
1407 18-08-2018 21:10:00 21.6 C 56 % 12.45 C
1408 18-08-2018 21:15:00 21.4 C 56 % 12.27 C
1409 18-08-2018 21:20:00 21.3 C 58 % 12.71 C
1410 18-08-2018 21:25:00 21.2 C 59 % 12.87 C
1411 18-08-2018 21:30:00 20.9 C 59 % 12.59 C
1412 18-08-2018 21:35:00 20.7 C 60 % 12.66 C
1413 18-08-2018 21:40:00 20.5 C 61 % 12.73 C
1414 18-08-2018 21:45:00 20.2 C 62 % 12.69 C
1415 18-08-2018 21:50:00 20.1 C 63 % 12.84 C
1416 18-08-2018 21:55:00 19.9 C 62 % 12.41 C
1417 18-08-2018 22:00:00 19.8 C 63 % 12.56 C
1418 18-08-2018 22:05:00 19.7 C 64 % 12.7 C
1419 18-08-2018 22:10:00 19.6 C 65 % 12.84 C
1420 18-08-2018 22:15:00 19.6 C 65 % 12.84 C
1421 18-08-2018 22:20:00 19.5 C 64 % 12.51 C
1422 18-08-2018 22:25:00 19.4 C 66 % 12.89 C
1423 18-08-2018 22:30:00 19.3 C 66 % 12.79 C
1424 18-08-2018 22:35:00 19.2 C 66 % 12.7 C
1425 18-08-2018 22:40:00 19.1 C 67 % 12.83 C
Sensor: Nr:Datum:Temp:Feuchte:Taupunkt:
Aussen-T/F 1426 18-08-2018 22:45:00 19 C 67 % 12.74 C
1427 18-08-2018 22:50:00 18.9 C 67 % 12.64 C
1428 18-08-2018 22:55:00 18.8 C 67 % 12.55 C
1429 18-08-2018 23:00:00 18.7 C 68 % 12.68 C
1430 18-08-2018 23:05:00 18.7 C 68 % 12.68 C
1431 18-08-2018 23:10:00 18.6 C 68 % 12.58 C
1432 18-08-2018 23:15:00 18.4 C 69 % 12.61 C
1433 18-08-2018 23:20:00 18.4 C 69 % 12.61 C
1434 18-08-2018 23:25:00 18.3 C 69 % 12.52 C
1435 18-08-2018 23:30:00 18.2 C 69 % 12.42 C
1436 18-08-2018 23:35:00 18.2 C 70 % 12.64 C
1437 18-08-2018 23:40:00 18.1 C 70 % 12.55 C
1438 18-08-2018 23:45:00 17.9 C 71 % 12.57 C
1439 18-08-2018 23:50:00 17.8 C 71 % 12.47 C
1440 18-08-2018 23:55:00 17.6 C 71 % 12.28 C
1441 19-08-2018 00:00:00 17.3 C 72 % 12.21 C
1442 19-08-2018 00:05:00 17.2 C 73 % 12.32 C
1443 19-08-2018 00:10:00 17.1 C 74 % 12.43 C
1444 19-08-2018 00:15:00 16.9 C 74 % 12.24 C
1445 19-08-2018 00:20:00 16.8 C 74 % 12.14 C
1446 19-08-2018 00:25:00 16.7 C 75 % 12.25 C
1447 19-08-2018 00:30:00 16.5 C 76 % 12.26 C
1448 19-08-2018 00:35:00 16.4 C 76 % 12.16 C
1449 19-08-2018 00:40:00 16.2 C 77 % 12.17 C
1450 19-08-2018 00:45:00 16.1 C 77 % 12.07 C
Sensor: Nr:Datum:Temp:Feuchte:Taupunkt:
Aussen-T/F 1451 19-08-2018 00:50:00 15.9 C 78 % 12.07 C
1452 19-08-2018 00:55:00 15.8 C 78 % 11.97 C
1453 19-08-2018 01:00:00 15.7 C 78 % 11.88 C
1454 19-08-2018 01:05:00 15.6 C 79 % 11.97 C
1455 19-08-2018 01:10:00 15.5 C 78 % 11.68 C
1456 19-08-2018 01:15:00 15.4 C 79 % 11.78 C
1457 19-08-2018 01:20:00 15.3 C 80 % 11.87 C
1458 19-08-2018 01:25:00 15.2 C 80 % 11.78 C
1459 19-08-2018 01:30:00 15.1 C 80 % 11.68 C
1460 19-08-2018 01:35:00 15.1 C 80 % 11.68 C
1461 19-08-2018 01:40:00 15 C 81 % 11.77 C
1462 19-08-2018 01:45:00 14.9 C 81 % 11.67 C
1463 19-08-2018 01:50:00 14.8 C 81 % 11.57 C
1464 19-08-2018 01:55:00 14.8 C 82 % 11.76 C
1465 19-08-2018 02:00:00 14.7 C 82 % 11.66 C
1466 19-08-2018 02:05:00 14.6 C 82 % 11.56 C
1467 19-08-2018 02:10:00 14.5 C 82 % 11.47 C
1468 19-08-2018 02:15:00 14.4 C 83 % 11.55 C
1469 19-08-2018 02:20:00 14.4 C 83 % 11.55 C
1470 19-08-2018 02:25:00 14.3 C 83 % 11.45 C
1471 19-08-2018 02:30:00 14.3 C 83 % 11.45 C
1472 19-08-2018 02:35:00 14.2 C 83 % 11.36 C
1473 19-08-2018 02:40:00 14.2 C 84 % 11.54 C
1474 19-08-2018 02:45:00 14.2 C 84 % 11.54 C
1475 19-08-2018 02:50:00 14.2 C 84 % 11.54 C
Sensor: Nr:Datum:Temp:Feuchte:Taupunkt:
Aussen-T/F 1476 19-08-2018 02:55:00 14.2 C 84 % 11.54 C
1477 19-08-2018 03:00:00 14.2 C 85 % 11.72 C
1478 19-08-2018 03:05:00 14.2 C 85 % 11.72 C
1479 19-08-2018 03:10:00 14.2 C 85 % 11.72 C
1480 19-08-2018 03:15:00 14.1 C 85 % 11.62 C
1481 19-08-2018 03:20:00 14.1 C 85 % 11.62 C
1482 19-08-2018 03:25:00 14 C 85 % 11.52 C
1483 19-08-2018 03:30:00 13.9 C 86 % 11.6 C
1484 19-08-2018 03:35:00 13.9 C 86 % 11.6 C
1485 19-08-2018 03:40:00 13.8 C 86 % 11.5 C
1486 19-08-2018 03:45:00 13.8 C 86 % 11.5 C
1487 19-08-2018 03:50:00 13.7 C 86 % 11.4 C
1488 19-08-2018 03:55:00 13.7 C 87 % 11.58 C
1489 19-08-2018 04:00:00 13.7 C 87 % 11.58 C
1490 19-08-2018 04:05:00 13.6 C 87 % 11.48 C
1491 19-08-2018 04:10:00 13.6 C 87 % 11.48 C
1492 19-08-2018 04:15:00 13.6 C 87 % 11.48 C
1493 19-08-2018 04:20:00 13.5 C 87 % 11.38 C
1494 19-08-2018 04:25:00 13.4 C 88 % 11.45 C
1495 19-08-2018 04:30:00 13.4 C 88 % 11.45 C
1496 19-08-2018 04:35:00 13.3 C 88 % 11.36 C
1497 19-08-2018 04:40:00 13.3 C 88 % 11.36 C
1498 19-08-2018 04:45:00 13.3 C 88 % 11.36 C
1499 19-08-2018 04:50:00 13.2 C 88 % 11.26 C
1500 19-08-2018 04:55:00 13.2 C 88 % 11.26 C
Sensor: Nr:Datum:Temp:Feuchte:Taupunkt:
Aussen-T/F 1501 19-08-2018 05:00:00 13.2 C 89 % 11.43 C
1502 19-08-2018 05:05:00 13.2 C 89 % 11.43 C
1503 19-08-2018 05:10:00 13.2 C 89 % 11.43 C
1504 19-08-2018 05:15:00 13.2 C 89 % 11.43 C
1505 19-08-2018 05:20:00 13.2 C 89 % 11.43 C
1506 19-08-2018 05:25:00 13.1 C 89 % 11.33 C
1507 19-08-2018 05:30:00 13.1 C 89 % 11.33 C
1508 19-08-2018 05:35:00 13.1 C 89 % 11.33 C
1509 19-08-2018 05:40:00 13 C 89 % 11.23 C
1510 19-08-2018 05:45:00 12.9 C 89 % 11.13 C
1511 19-08-2018 05:50:00 12.9 C 89 % 11.13 C
1512 19-08-2018 05:55:00 12.8 C 89 % 11.03 C
1513 19-08-2018 06:00:00 12.7 C 89 % 10.94 C
1514 19-08-2018 06:05:00 12.7 C 89 % 10.94 C
1515 19-08-2018 06:10:00 12.6 C 90 % 11 C
1516 19-08-2018 06:15:00 12.6 C 89 % 10.84 C
1517 19-08-2018 06:20:00 12.6 C 90 % 11 C
1518 19-08-2018 06:25:00 12.5 C 90 % 10.91 C
1519 19-08-2018 06:30:00 12.5 C 90 % 10.91 C
1520 19-08-2018 06:35:00 12.5 C 90 % 10.91 C
1521 19-08-2018 06:40:00 12.5 C 90 % 10.91 C
1522 19-08-2018 06:45:00 12.5 C 91 % 11.07 C
1523 19-08-2018 06:50:00 12.5 C 91 % 11.07 C
1524 19-08-2018 06:55:00 12.6 C 91 % 11.17 C
1525 19-08-2018 07:00:00 12.5 C 91 % 11.07 C
Sensor: Nr:Datum:Temp:Feuchte:Taupunkt:
Aussen-T/F 1526 19-08-2018 07:05:00 12.5 C 91 % 11.07 C
1527 19-08-2018 07:10:00 12.6 C 91 % 11.17 C
1528 19-08-2018 07:15:00 12.6 C 91 % 11.17 C
1529 19-08-2018 07:20:00 12.6 C 91 % 11.17 C
1530 19-08-2018 07:25:00 12.6 C 91 % 11.17 C
1531 19-08-2018 07:30:00 12.7 C 91 % 11.27 C
1532 19-08-2018 07:35:00 12.7 C 91 % 11.27 C
1533 19-08-2018 07:40:00 12.7 C 91 % 11.27 C
1534 19-08-2018 07:45:00 12.8 C 91 % 11.37 C
1535 19-08-2018 07:50:00 12.8 C 91 % 11.37 C
1536 19-08-2018 07:55:00 12.8 C 91 % 11.37 C
1537 19-08-2018 08:00:00 12.8 C 91 % 11.37 C
1538 19-08-2018 08:05:00 12.9 C 91 % 11.47 C
1539 19-08-2018 08:10:00 12.9 C 91 % 11.47 C
1540 19-08-2018 08:15:00 13 C 91 % 11.57 C
1541 19-08-2018 08:20:00 13 C 91 % 11.57 C
1542 19-08-2018 08:25:00 13.1 C 91 % 11.67 C
1543 19-08-2018 08:30:00 13.1 C 91 % 11.67 C
1544 19-08-2018 08:35:00 13.2 C 91 % 11.76 C
1545 19-08-2018 08:40:00 13.3 C 91 % 11.86 C
1546 19-08-2018 08:45:00 13.4 C 91 % 11.96 C
1547 19-08-2018 08:50:00 13.4 C 91 % 11.96 C
1548 19-08-2018 08:55:00 13.6 C 91 % 12.16 C
1549 19-08-2018 09:00:00 13.7 C 91 % 12.26 C
1550 19-08-2018 09:05:00 13.8 C 92 % 12.52 C
Sensor: Nr:Datum:Temp:Feuchte:Taupunkt:
Aussen-T/F 1551 19-08-2018 09:10:00 14 C 91 % 12.56 C
1552 19-08-2018 09:15:00 14.2 C 91 % 12.75 C
1553 19-08-2018 09:20:00 14.3 C 91 % 12.85 C
1554 19-08-2018 09:25:00 14.5 C 91 % 13.05 C
1555 19-08-2018 09:30:00 14.7 C 90 % 13.08 C
1556 19-08-2018 09:35:00 15 C 90 % 13.37 C
1557 19-08-2018 09:40:00 15.2 C 89 % 13.4 C
1558 19-08-2018 09:45:00 15.4 C 89 % 13.6 C
1559 19-08-2018 09:50:00 15.6 C 88 % 13.62 C
1560 19-08-2018 09:55:00 15.8 C 88 % 13.82 C
1561 19-08-2018 10:00:00 15.9 C 87 % 13.74 C
1562 19-08-2018 10:05:00 16.3 C 86 % 13.95 C
1563 19-08-2018 10:10:00 16.6 C 86 % 14.25 C
1564 19-08-2018 10:15:00 16.8 C 85 % 14.26 C
1565 19-08-2018 10:20:00 16.9 C 84 % 14.18 C
1566 19-08-2018 10:25:00 17.2 C 84 % 14.47 C
1567 19-08-2018 10:30:00 17.3 C 84 % 14.57 C
1568 19-08-2018 10:35:00 17.5 C 83 % 14.58 C
1569 19-08-2018 10:40:00 17.6 C 83 % 14.68 C
1570 19-08-2018 10:45:00 17.8 C 82 % 14.69 C
1571 19-08-2018 10:50:00 17.9 C 80 % 14.4 C
1572 19-08-2018 10:55:00 18.2 C 81 % 14.89 C
1573 19-08-2018 11:00:00 18.4 C 79 % 14.69 C
1574 19-08-2018 11:05:00 18.8 C 77 % 14.68 C
1575 19-08-2018 11:10:00 19.1 C 76 % 14.77 C
Sensor: Nr:Datum:Temp:Feuchte:Taupunkt:
Aussen-T/F 1576 19-08-2018 11:15:00 19.4 C 75 % 14.86 C
1577 19-08-2018 11:20:00 19.7 C 74 % 14.94 C
1578 19-08-2018 11:25:00 20 C 72 % 14.8 C
1579 19-08-2018 11:30:00 20.2 C 72 % 14.99 C
1580 19-08-2018 11:35:00 20.4 C 69 % 14.52 C
1581 19-08-2018 11:40:00 20.7 C 69 % 14.81 C
1582 19-08-2018 11:45:00 20.9 C 68 % 14.77 C
1583 19-08-2018 11:50:00 21.2 C 66 % 14.6 C
1584 19-08-2018 11:55:00 21.6 C 65 % 14.74 C
1585 19-08-2018 12:00:00 21.9 C 63 % 14.54 C
1586 19-08-2018 12:05:00 22.2 C 62 % 14.58 C
1587 19-08-2018 12:10:00 22.4 C 61 % 14.51 C
1588 19-08-2018 12:15:00 22.6 C 60 % 14.44 C
1589 19-08-2018 12:20:00 22.8 C 59 % 14.37 C
1590 19-08-2018 12:25:00 23.1 C 59 % 14.65 C
1591 19-08-2018 12:30:00 23.3 C 57 % 14.31 C
1592 19-08-2018 12:35:00 23.4 C 57 % 14.4 C
1593 19-08-2018 12:40:00 23.6 C 57 % 14.59 C
1594 19-08-2018 12:45:00 23.7 C 57 % 14.68 C
1595 19-08-2018 12:50:00 23.8 C 56 % 14.5 C
1596 19-08-2018 12:55:00 23.9 C 55 % 14.31 C
1597 19-08-2018 13:00:00 24.2 C 55 % 14.59 C
1598 19-08-2018 13:05:00 24.3 C 53 % 14.11 C
1599 19-08-2018 13:10:00 24.5 C 52 % 14 C
1600 19-08-2018 13:15:00 24.7 C 52 % 14.19 C
Sensor: Nr:Datum:Temp:Feuchte:Taupunkt:
Aussen-T/F 1601 19-08-2018 13:20:00 24.8 C 50 % 13.67 C
1602 19-08-2018 13:25:00 25.1 C 50 % 13.95 C
1603 19-08-2018 13:30:00 25.1 C 50 % 13.95 C
1604 19-08-2018 13:35:00 25.2 C 50 % 14.04 C
1605 19-08-2018 13:40:00 25.3 C 48 % 13.5 C
1606 19-08-2018 13:45:00 25.4 C 48 % 13.6 C
1607 19-08-2018 13:50:00 25.6 C 48 % 13.78 C
1608 19-08-2018 13:55:00 25.7 C 47 % 13.55 C
1609 19-08-2018 14:00:00 25.7 C 47 % 13.55 C
1610 19-08-2018 14:05:00 25.7 C 48 % 13.87 C
1611 19-08-2018 14:10:00 25.8 C 48 % 13.96 C
1612 19-08-2018 14:15:00 26 C 47 % 13.82 C
1613 19-08-2018 14:20:00 26.2 C 46 % 13.67 C
1614 19-08-2018 14:25:00 26.3 C 45 % 13.42 C
1615 19-08-2018 14:30:00 26.4 C 45 % 13.51 C
1616 19-08-2018 14:35:00 26.5 C 45 % 13.6 C
1617 19-08-2018 14:40:00 26.7 C 46 % 14.12 C
1618 19-08-2018 14:45:00 26.8 C 45 % 13.87 C
1619 19-08-2018 14:50:00 26.8 C 45 % 13.87 C
1620 19-08-2018 14:55:00 26.9 C 43 % 13.27 C
1621 19-08-2018 15:00:00 27.1 C 44 % 13.8 C
1622 19-08-2018 15:05:00 27.3 C 44 % 13.98 C
1623 19-08-2018 15:10:00 27.5 C 43 % 13.81 C
1624 19-08-2018 15:15:00 27.7 C 43 % 13.99 C
1625 19-08-2018 15:20:00 27.8 C 44 % 14.43 C
Sensor: Nr:Datum:Temp:Feuchte:Taupunkt:
Aussen-T/F 1626 19-08-2018 15:25:00 27.9 C 44 % 14.52 C
1627 19-08-2018 15:30:00 28 C 44 % 14.61 C
1628 19-08-2018 15:35:00 28.1 C 43 % 14.35 C
1629 19-08-2018 15:40:00 28.2 C 44 % 14.79 C
1630 19-08-2018 15:45:00 28.4 C 43 % 14.62 C
1631 19-08-2018 15:50:00 28.4 C 43 % 14.62 C
1632 19-08-2018 15:55:00 28.7 C 43 % 14.88 C
1633 19-08-2018 16:00:00 29 C 41 % 14.42 C
1634 19-08-2018 16:05:00 29.2 C 42 % 14.97 C
1635 19-08-2018 16:10:00 29.3 C 41 % 14.68 C
1636 19-08-2018 16:15:00 29.4 C 41 % 14.77 C
1637 19-08-2018 16:20:00 29.6 C 41 % 14.95 C
1638 19-08-2018 16:25:00 29.8 C 41 % 15.13 C
1639 19-08-2018 16:30:00 30.2 C 41 % 15.49 C
1640 19-08-2018 16:35:00 30.4 C 39 % 14.89 C
1641 19-08-2018 16:40:00 30.6 C 39 % 15.07 C
1642 19-08-2018 16:45:00 30.6 C 39 % 15.07 C
1643 19-08-2018 16:50:00 30.6 C 38 % 14.66 C
1644 19-08-2018 16:55:00 30.7 C 38 % 14.75 C
1645 19-08-2018 17:00:00 30.7 C 37 % 14.34 C
1646 19-08-2018 17:05:00 30.6 C 39 % 15.07 C
1647 19-08-2018 17:10:00 30.6 C 39 % 15.07 C
1648 19-08-2018 17:15:00 30.7 C 39 % 15.15 C
1649 19-08-2018 17:20:00 30.9 C 37 % 14.51 C
1650 19-08-2018 17:25:00 30.9 C 37 % 14.51 C
Sensor: Nr:Datum:Temp:Feuchte:Taupunkt:
Aussen-T/F 1651 19-08-2018 17:30:00 31.1 C 36 % 14.27 C
1652 19-08-2018 17:35:00 31.1 C 33 % 12.93 C
1653 19-08-2018 17:40:00 30.9 C 35 % 13.66 C
1654 19-08-2018 17:45:00 30.6 C 35 % 13.39 C
1655 19-08-2018 17:50:00 30.7 C 37 % 14.34 C
1656 19-08-2018 17:55:00 30.8 C 35 % 13.57 C
1657 19-08-2018 18:00:00 30.8 C 36 % 14 C
1658 19-08-2018 18:05:00 30.8 C 36 % 14 C
1659 19-08-2018 18:10:00 30.8 C 35 % 13.57 C
1660 19-08-2018 18:15:00 30.8 C 37 % 14.43 C
1661 19-08-2018 18:20:00 30.7 C 36 % 13.92 C
1662 19-08-2018 18:25:00 30.4 C 37 % 14.07 C
1663 19-08-2018 18:30:00 30.3 C 37 % 13.99 C
1664 19-08-2018 18:35:00 30.1 C 37 % 13.81 C
1665 19-08-2018 18:40:00 30.2 C 38 % 14.31 C
1666 19-08-2018 18:45:00 30.3 C 37 % 13.99 C
1667 19-08-2018 18:50:00 30.3 C 36 % 13.56 C
1668 19-08-2018 18:55:00 30.3 C 37 % 13.99 C
1669 19-08-2018 19:00:00 30.2 C 38 % 14.31 C
1670 19-08-2018 19:05:00 30 C 39 % 14.53 C
1671 19-08-2018 19:10:00 29.6 C 42 % 15.33 C
1672 19-08-2018 19:15:00 28.9 C 42 % 14.7 C
1673 19-08-2018 19:20:00 28.6 C 41 % 14.06 C
1674 19-08-2018 19:25:00 28.3 C 42 % 14.16 C
1675 19-08-2018 19:30:00 28.2 C 42 % 14.07 C
Sensor: Nr:Datum:Temp:Feuchte:Taupunkt:
Aussen-T/F 1676 19-08-2018 19:35:00 28.1 C 42 % 13.98 C
1677 19-08-2018 19:40:00 27.9 C 44 % 14.52 C
1678 19-08-2018 19:45:00 27.9 C 44 % 14.52 C
1679 19-08-2018 19:50:00 27.8 C 42 % 13.71 C
1680 19-08-2018 19:55:00 27.8 C 43 % 14.08 C
1681 19-08-2018 20:00:00 27.7 C 45 % 14.69 C
1682 19-08-2018 20:05:00 27.4 C 47 % 15.09 C
1683 19-08-2018 20:10:00 27.2 C 47 % 14.91 C
1684 19-08-2018 20:15:00 26.8 C 46 % 14.21 C
1685 19-08-2018 20:20:00 26.4 C 47 % 14.18 C
1686 19-08-2018 20:25:00 25.9 C 48 % 14.05 C
1687 19-08-2018 20:30:00 25.6 C 49 % 14.1 C
1688 19-08-2018 20:35:00 25.2 C 50 % 14.04 C
1689 19-08-2018 20:40:00 24.8 C 50 % 13.67 C
1690 19-08-2018 20:45:00 24.6 C 52 % 14.09 C
1691 19-08-2018 20:50:00 24.2 C 53 % 14.02 C
1692 19-08-2018 20:55:00 23.8 C 53 % 13.65 C
1693 19-08-2018 21:00:00 23.4 C 54 % 13.57 C
1694 19-08-2018 21:05:00 23.2 C 54 % 13.38 C
1695 19-08-2018 21:10:00 23 C 55 % 13.48 C
1696 19-08-2018 21:15:00 22.8 C 56 % 13.57 C
1697 19-08-2018 21:20:00 22.7 C 57 % 13.75 C
1698 19-08-2018 21:25:00 22.5 C 58 % 13.83 C
1699 19-08-2018 21:30:00 22.3 C 58 % 13.64 C
1700 19-08-2018 21:35:00 22.2 C 59 % 13.81 C
Sensor: Nr:Datum:Temp:Feuchte:Taupunkt:
Aussen-T/F 1701 19-08-2018 21:40:00 22.1 C 58 % 13.45 C
1702 19-08-2018 21:45:00 22 C 59 % 13.62 C
1703 19-08-2018 21:50:00 21.9 C 60 % 13.79 C
1704 19-08-2018 21:55:00 21.8 C 60 % 13.69 C
1705 19-08-2018 22:00:00 21.7 C 61 % 13.85 C
1706 19-08-2018 22:05:00 21.7 C 62 % 14.1 C
1707 19-08-2018 22:10:00 21.6 C 63 % 14.26 C
1708 19-08-2018 22:15:00 21.4 C 64 % 14.31 C
1709 19-08-2018 22:20:00 21.2 C 65 % 14.36 C
1710 19-08-2018 22:25:00 21 C 66 % 14.41 C
1711 19-08-2018 22:30:00 20.8 C 67 % 14.45 C
1712 19-08-2018 22:35:00 20.6 C 68 % 14.49 C
1713 19-08-2018 22:40:00 20.4 C 68 % 14.3 C
1714 19-08-2018 22:45:00 20.2 C 70 % 14.56 C
1715 19-08-2018 22:50:00 20.1 C 70 % 14.46 C
1716 19-08-2018 22:55:00 19.9 C 71 % 14.49 C
1717 19-08-2018 23:00:00 19.8 C 72 % 14.61 C
1718 19-08-2018 23:05:00 19.6 C 72 % 14.42 C
1719 19-08-2018 23:10:00 19.4 C 73 % 14.44 C
1720 19-08-2018 23:15:00 19.4 C 73 % 14.44 C
1721 19-08-2018 23:20:00 19.3 C 74 % 14.55 C
1722 19-08-2018 23:25:00 19.2 C 74 % 14.46 C
1723 19-08-2018 23:30:00 19.1 C 74 % 14.36 C
1724 19-08-2018 23:35:00 19.1 C 75 % 14.57 C
1725 19-08-2018 23:40:00 18.9 C 75 % 14.37 C
Sensor: Nr:Datum:Temp:Feuchte:Taupunkt:
Aussen-T/F 1726 19-08-2018 23:45:00 18.9 C 75 % 14.37 C
1727 19-08-2018 23:50:00 18.8 C 76 % 14.48 C
1728 19-08-2018 23:55:00 18.6 C 76 % 14.29 C
1729 20-08-2018 00:00:00 18.5 C 76 % 14.19 C
1730 20-08-2018 00:05:00 18.4 C 77 % 14.3 C
1731 20-08-2018 00:10:00 18.3 C 76 % 14 C
1732 20-08-2018 00:15:00 18.2 C 76 % 13.9 C
1733 20-08-2018 00:20:00 18.2 C 77 % 14.1 C
1734 20-08-2018 00:25:00 18.1 C 77 % 14.01 C
1735 20-08-2018 00:30:00 18.1 C 77 % 14.01 C
1736 20-08-2018 00:35:00 18 C 77 % 13.91 C
1737 20-08-2018 00:40:00 17.9 C 77 % 13.81 C
1738 20-08-2018 00:45:00 17.8 C 77 % 13.72 C
1739 20-08-2018 00:50:00 17.8 C 78 % 13.91 C
1740 20-08-2018 00:55:00 17.7 C 78 % 13.82 C
1741 20-08-2018 01:00:00 17.7 C 78 % 13.82 C
1742 20-08-2018 01:05:00 17.7 C 78 % 13.82 C
1743 20-08-2018 01:10:00 17.7 C 78 % 13.82 C
1744 20-08-2018 01:15:00 17.6 C 79 % 13.92 C
1745 20-08-2018 01:20:00 17.6 C 79 % 13.92 C
1746 20-08-2018 01:25:00 17.6 C 79 % 13.92 C
1747 20-08-2018 01:30:00 17.6 C 79 % 13.92 C
1748 20-08-2018 01:35:00 17.5 C 79 % 13.82 C
1749 20-08-2018 01:40:00 17.4 C 79 % 13.72 C
1750 20-08-2018 01:45:00 17.4 C 79 % 13.72 C
Sensor: Nr:Datum:Temp:Feuchte:Taupunkt:
Aussen-T/F 1751 20-08-2018 01:50:00 17.4 C 79 % 13.72 C
1752 20-08-2018 01:55:00 17.3 C 79 % 13.63 C
1753 20-08-2018 02:00:00 17.3 C 79 % 13.63 C
1754 20-08-2018 02:05:00 17.3 C 80 % 13.82 C
1755 20-08-2018 02:10:00 17.2 C 79 % 13.53 C
1756 20-08-2018 02:15:00 17.2 C 80 % 13.72 C
1757 20-08-2018 02:20:00 17.2 C 80 % 13.72 C
1758 20-08-2018 02:25:00 17.2 C 80 % 13.72 C
1759 20-08-2018 02:30:00 17.2 C 80 % 13.72 C
1760 20-08-2018 02:35:00 17.2 C 80 % 13.72 C
1761 20-08-2018 02:40:00 17.2 C 80 % 13.72 C
1762 20-08-2018 02:45:00 17.2 C 80 % 13.72 C
1763 20-08-2018 02:50:00 17.2 C 80 % 13.72 C
1764 20-08-2018 02:55:00 17.1 C 80 % 13.62 C
1765 20-08-2018 03:00:00 17 C 81 % 13.72 C
1766 20-08-2018 03:05:00 16.9 C 81 % 13.62 C
1767 20-08-2018 03:10:00 16.9 C 81 % 13.62 C
1768 20-08-2018 03:15:00 16.8 C 82 % 13.71 C
1769 20-08-2018 03:20:00 16.8 C 82 % 13.71 C
1770 20-08-2018 03:25:00 16.8 C 81 % 13.52 C
1771 20-08-2018 03:30:00 16.9 C 81 % 13.62 C
1772 20-08-2018 03:35:00 16.9 C 81 % 13.62 C
1773 20-08-2018 03:40:00 17 C 81 % 13.72 C
1774 20-08-2018 03:45:00 16.9 C 81 % 13.62 C
1775 20-08-2018 03:50:00 16.9 C 81 % 13.62 C
Sensor: Nr:Datum:Temp:Feuchte:Taupunkt:
Aussen-T/F 1776 20-08-2018 03:55:00 16.8 C 81 % 13.52 C
1777 20-08-2018 04:00:00 16.7 C 81 % 13.43 C
1778 20-08-2018 04:05:00 16.5 C 82 % 13.42 C
1779 20-08-2018 04:10:00 16.3 C 82 % 13.22 C
1780 20-08-2018 04:15:00 16.2 C 83 % 13.31 C
1781 20-08-2018 04:20:00 16.1 C 84 % 13.4 C
1782 20-08-2018 04:25:00 16.1 C 84 % 13.4 C
1783 20-08-2018 04:30:00 16 C 84 % 13.3 C
1784 20-08-2018 04:35:00 16 C 85 % 13.48 C
1785 20-08-2018 04:40:00 16 C 85 % 13.48 C
1786 20-08-2018 04:45:00 15.9 C 85 % 13.38 C
1787 20-08-2018 04:50:00 15.9 C 85 % 13.38 C
1788 20-08-2018 04:55:00 15.8 C 85 % 13.28 C
1789 20-08-2018 05:00:00 15.8 C 85 % 13.28 C
1790 20-08-2018 05:05:00 15.8 C 86 % 13.46 C
1791 20-08-2018 05:10:00 15.7 C 86 % 13.37 C
1792 20-08-2018 05:15:00 15.7 C 86 % 13.37 C
1793 20-08-2018 05:20:00 15.8 C 86 % 13.46 C
1794 20-08-2018 05:25:00 15.8 C 86 % 13.46 C
1795 20-08-2018 05:30:00 15.8 C 86 % 13.46 C
1796 20-08-2018 05:35:00 15.9 C 86 % 13.56 C
1797 20-08-2018 05:40:00 16.1 C 85 % 13.58 C
1798 20-08-2018 05:45:00 16.2 C 85 % 13.68 C
1799 20-08-2018 05:50:00 16.2 C 85 % 13.68 C
1800 20-08-2018 05:55:00 16.1 C 85 % 13.58 C
Sensor: Nr:Datum:Temp:Feuchte:Taupunkt:
Aussen-T/F 1801 20-08-2018 06:00:00 16.1 C 84 % 13.4 C
1802 20-08-2018 06:05:00 16 C 85 % 13.48 C
1803 20-08-2018 06:10:00 15.9 C 85 % 13.38 C
1804 20-08-2018 06:15:00 15.8 C 85 % 13.28 C
1805 20-08-2018 06:20:00 15.8 C 85 % 13.28 C
1806 20-08-2018 06:25:00 15.7 C 86 % 13.37 C
1807 20-08-2018 06:30:00 15.6 C 86 % 13.27 C
1808 20-08-2018 06:35:00 15.6 C 86 % 13.27 C
1809 20-08-2018 06:40:00 15.6 C 87 % 13.45 C
1810 20-08-2018 06:45:00 15.6 C 87 % 13.45 C
1811 20-08-2018 06:50:00 15.7 C 87 % 13.54 C
1812 20-08-2018 06:55:00 15.8 C 87 % 13.64 C
1813 20-08-2018 07:00:00 15.8 C 87 % 13.64 C
1814 20-08-2018 07:05:00 15.9 C 87 % 13.74 C
1815 20-08-2018 07:10:00 16.1 C 86 % 13.76 C
1816 20-08-2018 07:15:00 16.2 C 86 % 13.86 C
1817 20-08-2018 07:20:00 16.4 C 85 % 13.87 C
1818 20-08-2018 07:25:00 16.6 C 85 % 14.07 C
1819 20-08-2018 07:30:00 16.8 C 85 % 14.26 C
1820 20-08-2018 07:35:00 16.8 C 84 % 14.08 C
1821 20-08-2018 07:40:00 16.9 C 84 % 14.18 C
1822 20-08-2018 07:45:00 17 C 84 % 14.28 C
1823 20-08-2018 07:50:00 17.1 C 84 % 14.38 C
1824 20-08-2018 07:55:00 17.2 C 84 % 14.47 C
1825 20-08-2018 08:00:00 17.2 C 84 % 14.47 C
Sensor: Nr:Datum:Temp:Feuchte:Taupunkt:
Aussen-T/F 1826 20-08-2018 08:05:00 17.3 C 84 % 14.57 C
1827 20-08-2018 08:10:00 17.4 C 83 % 14.48 C
1828 20-08-2018 08:15:00 17.5 C 83 % 14.58 C
1829 20-08-2018 08:20:00 17.6 C 83 % 14.68 C
1830 20-08-2018 08:25:00 17.7 C 83 % 14.78 C
1831 20-08-2018 08:30:00 17.8 C 83 % 14.88 C
1832 20-08-2018 08:35:00 17.8 C 83 % 14.88 C
1833 20-08-2018 08:40:00 17.9 C 82 % 14.78 C
1834 20-08-2018 08:45:00 17.9 C 83 % 14.97 C
1835 20-08-2018 08:50:00 17.9 C 83 % 14.97 C
1836 20-08-2018 08:55:00 17.9 C 83 % 14.97 C
1837 20-08-2018 09:00:00 17.9 C 83 % 14.97 C
1838 20-08-2018 09:05:00 18 C 83 % 15.07 C
1839 20-08-2018 09:10:00 18.1 C 84 % 15.35 C
1840 20-08-2018 09:15:00 18.1 C 84 % 15.35 C
1841 20-08-2018 09:20:00 18.1 C 84 % 15.35 C
1842 20-08-2018 09:25:00 18.2 C 84 % 15.45 C
1843 20-08-2018 09:30:00 18.3 C 84 % 15.55 C
1844 20-08-2018 09:35:00 18.4 C 84 % 15.65 C
1845 20-08-2018 09:40:00 18.7 C 83 % 15.75 C
1846 20-08-2018 09:45:00 19 C 83 % 16.05 C
1847 20-08-2018 09:50:00 19.3 C 82 % 16.15 C
1848 20-08-2018 09:55:00 19.5 C 81 % 16.15 C
1849 20-08-2018 10:00:00 19.8 C 81 % 16.45 C
1850 20-08-2018 10:05:00 20.1 C 80 % 16.54 C
Sensor: Nr:Datum:Temp:Feuchte:Taupunkt:
Aussen-T/F 1851 20-08-2018 10:10:00 20.4 C 79 % 16.64 C
1852 20-08-2018 10:15:00 20.7 C 78 % 16.73 C
1853 20-08-2018 10:20:00 20.8 C 77 % 16.62 C
1854 20-08-2018 10:25:00 20.9 C 76 % 16.51 C
1855 20-08-2018 10:30:00 21 C 75 % 16.4 C
1856 20-08-2018 10:35:00 21.1 C 75 % 16.5 C
1857 20-08-2018 10:40:00 21.2 C 76 % 16.8 C
1858 20-08-2018 10:45:00 21.2 C 75 % 16.59 C
1859 20-08-2018 10:50:00 21.3 C 75 % 16.69 C
1860 20-08-2018 10:55:00 21.4 C 74 % 16.57 C
1861 20-08-2018 11:00:00 21.6 C 75 % 16.98 C
1862 20-08-2018 11:05:00 21.8 C 74 % 16.96 C
1863 20-08-2018 11:10:00 22.2 C 73 % 17.13 C
1864 20-08-2018 11:15:00 22.5 C 71 % 16.98 C
1865 20-08-2018 11:20:00 22.7 C 70 % 16.95 C
1866 20-08-2018 11:25:00 22.8 C 71 % 17.27 C
1867 20-08-2018 11:30:00 23 C 69 % 17.01 C
1868 20-08-2018 11:35:00 23.1 C 68 % 16.87 C
1869 20-08-2018 11:40:00 23.2 C 68 % 16.97 C
1870 20-08-2018 11:45:00 23.3 C 68 % 17.06 C
1871 20-08-2018 11:50:00 23.4 C 68 % 17.16 C
1872 20-08-2018 11:55:00 23.5 C 67 % 17.02 C
1873 20-08-2018 12:00:00 23.5 C 68 % 17.25 C
1874 20-08-2018 12:05:00 23.6 C 67 % 17.11 C
1875 20-08-2018 12:10:00 23.7 C 66 % 16.97 C
Sensor: Nr:Datum:Temp:Feuchte:Taupunkt:
Aussen-T/F 1876 20-08-2018 12:15:00 23.8 C 66 % 17.07 C
1877 20-08-2018 12:20:00 23.9 C 66 % 17.16 C
1878 20-08-2018 12:25:00 24.1 C 65 % 17.11 C
1879 20-08-2018 12:30:00 24.1 C 65 % 17.11 C
1880 20-08-2018 12:35:00 24.2 C 65 % 17.2 C
1881 20-08-2018 12:40:00 24.3 C 64 % 17.05 C
1882 20-08-2018 12:45:00 24.3 C 63 % 16.81 C
1883 20-08-2018 12:50:00 24.4 C 65 % 17.39 C
1884 20-08-2018 12:55:00 24.4 C 62 % 16.65 C
1885 20-08-2018 13:00:00 24.4 C 62 % 16.65 C
1886 20-08-2018 13:05:00 24.3 C 63 % 16.81 C
1887 20-08-2018 13:10:00 24.3 C 63 % 16.81 C
1888 20-08-2018 13:15:00 24.4 C 60 % 16.13 C
1889 20-08-2018 13:20:00 24.6 C 61 % 16.58 C
1890 20-08-2018 13:25:00 24.8 C 60 % 16.51 C
1891 20-08-2018 13:30:00 24.9 C 59 % 16.34 C
1892 20-08-2018 13:35:00 24.9 C 59 % 16.34 C
1893 20-08-2018 13:40:00 24.9 C 60 % 16.6 C
1894 20-08-2018 13:45:00 24.9 C 59 % 16.34 C
1895 20-08-2018 13:50:00 24.9 C 59 % 16.34 C
1896 20-08-2018 13:55:00 24.8 C 59 % 16.24 C
1897 20-08-2018 14:00:00 24.8 C 58 % 15.98 C
1898 20-08-2018 14:05:00 24.8 C 59 % 16.24 C
1899 20-08-2018 14:10:00 24.9 C 59 % 16.34 C
1900 20-08-2018 14:15:00 25 C 59 % 16.43 C
Sensor: Nr:Datum:Temp:Feuchte:Taupunkt:
Aussen-T/F 1901 20-08-2018 14:20:00 25.1 C 59 % 16.52 C
1902 20-08-2018 14:25:00 25.2 C 58 % 16.35 C
1903 20-08-2018 14:30:00 25.3 C 58 % 16.44 C
1904 20-08-2018 14:35:00 25.3 C 58 % 16.44 C
1905 20-08-2018 14:40:00 25.4 C 58 % 16.54 C
1906 20-08-2018 14:45:00 25.6 C 58 % 16.72 C
1907 20-08-2018 14:50:00 25.6 C 58 % 16.72 C
1908 20-08-2018 14:55:00 25.6 C 58 % 16.72 C
1909 20-08-2018 15:00:00 25.6 C 59 % 16.99 C
1910 20-08-2018 15:05:00 25.7 C 59 % 17.09 C
1911 20-08-2018 15:10:00 25.9 C 60 % 17.54 C
1912 20-08-2018 15:15:00 26.1 C 58 % 17.19 C
1913 20-08-2018 15:20:00 26.2 C 57 % 17.01 C
1914 20-08-2018 15:25:00 26 C 58 % 17.1 C
1915 20-08-2018 15:30:00 26 C 58 % 17.1 C
1916 20-08-2018 15:35:00 26 C 59 % 17.37 C
1917 20-08-2018 15:40:00 26.1 C 58 % 17.19 C
1918 20-08-2018 15:45:00 26.1 C 58 % 17.19 C
1919 20-08-2018 15:50:00 26.2 C 58 % 17.28 C
1920 20-08-2018 15:55:00 26.1 C 58 % 17.19 C
1921 20-08-2018 16:00:00 26 C 59 % 17.37 C
1922 20-08-2018 16:05:00 25.8 C 59 % 17.18 C
1923 20-08-2018 16:10:00 25.7 C 60 % 17.35 C
1924 20-08-2018 16:15:00 25.5 C 60 % 17.16 C
1925 20-08-2018 16:20:00 25.5 C 61 % 17.43 C
Sensor: Nr:Datum:Temp:Feuchte:Taupunkt:
Aussen-T/F 1926 20-08-2018 16:25:00 25.4 C 61 % 17.33 C
1927 20-08-2018 16:30:00 25.4 C 61 % 17.33 C
1928 20-08-2018 16:35:00 25.4 C 61 % 17.33 C
1929 20-08-2018 16:40:00 25.5 C 62 % 17.68 C
1930 20-08-2018 16:45:00 25.6 C 62 % 17.78 C
1931 20-08-2018 16:50:00 25.7 C 60 % 17.35 C
1932 20-08-2018 16:55:00 25.7 C 61 % 17.61 C
1933 20-08-2018 17:00:00 25.8 C 61 % 17.71 C
1934 20-08-2018 17:05:00 26.1 C 60 % 17.73 C
1935 20-08-2018 17:10:00 26.1 C 59 % 17.46 C
1936 20-08-2018 17:15:00 25.8 C 60 % 17.45 C
1937 20-08-2018 17:20:00 25.7 C 61 % 17.61 C
1938 20-08-2018 17:25:00 25.6 C 61 % 17.52 C
1939 20-08-2018 17:30:00 25.4 C 61 % 17.33 C
1940 20-08-2018 17:35:00 25.3 C 62 % 17.5 C
1941 20-08-2018 17:40:00 25.2 C 62 % 17.4 C
1942 20-08-2018 17:45:00 25.1 C 63 % 17.56 C
1943 20-08-2018 17:50:00 25.1 C 64 % 17.81 C
1944 20-08-2018 17:55:00 24.9 C 64 % 17.62 C
1945 20-08-2018 18:00:00 24.8 C 65 % 17.77 C
1946 20-08-2018 18:05:00 24.7 C 65 % 17.68 C
1947 20-08-2018 18:10:00 24.6 C 66 % 17.83 C
1948 20-08-2018 18:15:00 24.6 C 66 % 17.83 C
1949 20-08-2018 18:20:00 24.5 C 66 % 17.73 C
1950 20-08-2018 18:25:00 24.4 C 66 % 17.64 C
Sensor: Nr:Datum:Temp:Feuchte:Taupunkt:
Aussen-T/F 1951 20-08-2018 18:30:00 24.4 C 67 % 17.87 C
1952 20-08-2018 18:35:00 24.4 C 66 % 17.64 C
1953 20-08-2018 18:40:00 24.4 C 67 % 17.87 C
1954 20-08-2018 18:45:00 24.4 C 67 % 17.87 C
1955 20-08-2018 18:50:00 24.4 C 67 % 17.87 C
1956 20-08-2018 18:55:00 24.3 C 67 % 17.78 C
1957 20-08-2018 19:00:00 24.2 C 67 % 17.68 C
1958 20-08-2018 19:05:00 24.2 C 67 % 17.68 C
1959 20-08-2018 19:10:00 24.1 C 67 % 17.59 C
1960 20-08-2018 19:15:00 24.1 C 67 % 17.59 C
1961 20-08-2018 19:20:00 24.1 C 66 % 17.35 C
1962 20-08-2018 19:25:00 24 C 66 % 17.26 C
1963 20-08-2018 19:30:00 23.9 C 67 % 17.4 C
1964 20-08-2018 19:35:00 23.8 C 68 % 17.54 C
1965 20-08-2018 19:40:00 23.8 C 67 % 17.3 C
1966 20-08-2018 19:45:00 23.8 C 68 % 17.54 C
1967 20-08-2018 19:50:00 23.8 C 68 % 17.54 C
1968 20-08-2018 19:55:00 23.7 C 67 % 17.21 C
1969 20-08-2018 20:00:00 23.7 C 67 % 17.21 C
1970 20-08-2018 20:05:00 23.6 C 67 % 17.11 C
1971 20-08-2018 20:10:00 23.6 C 68 % 17.35 C
1972 20-08-2018 20:15:00 23.4 C 69 % 17.39 C
1973 20-08-2018 20:20:00 23.3 C 69 % 17.29 C
1974 20-08-2018 20:25:00 23.1 C 71 % 17.55 C
1975 20-08-2018 20:30:00 22.7 C 71 % 17.17 C
Sensor: Nr:Datum:Temp:Feuchte:Taupunkt:
Aussen-T/F 1976 20-08-2018 20:35:00 22.4 C 71 % 16.88 C
1977 20-08-2018 20:40:00 22.2 C 72 % 16.91 C
1978 20-08-2018 20:45:00 22.1 C 71 % 16.6 C
1979 20-08-2018 20:50:00 22.1 C 72 % 16.82 C
1980 20-08-2018 20:55:00 22.1 C 72 % 16.82 C
1981 20-08-2018 21:00:00 22.1 C 73 % 17.03 C
1982 20-08-2018 21:05:00 22.1 C 73 % 17.03 C
1983 20-08-2018 21:10:00 22.1 C 73 % 17.03 C
1984 20-08-2018 21:15:00 22.1 C 71 % 16.6 C
1985 20-08-2018 21:20:00 22.2 C 73 % 17.13 C
1986 20-08-2018 21:25:00 22.2 C 73 % 17.13 C
1987 20-08-2018 21:30:00 22.1 C 73 % 17.03 C
1988 20-08-2018 21:35:00 21.9 C 73 % 16.84 C
1989 20-08-2018 21:40:00 21.9 C 74 % 17.06 C
1990 20-08-2018 21:45:00 21.8 C 73 % 16.75 C
1991 20-08-2018 21:50:00 21.7 C 74 % 16.86 C
1992 20-08-2018 21:55:00 21.6 C 75 % 16.98 C
1993 20-08-2018 22:00:00 21.6 C 75 % 16.98 C
1994 20-08-2018 22:05:00 21.5 C 76 % 17.09 C
1995 20-08-2018 22:10:00 21.4 C 76 % 16.99 C
1996 20-08-2018 22:15:00 21.4 C 76 % 16.99 C
1997 20-08-2018 22:20:00 21.3 C 76 % 16.9 C
1998 20-08-2018 22:25:00 21.3 C 76 % 16.9 C
1999 20-08-2018 22:30:00 21.3 C 76 % 16.9 C
2000 20-08-2018 22:35:00 21.2 C 77 % 17.01 C
Sensor: Nr:Datum:Temp:Feuchte:Taupunkt:
Aussen-T/F 2001 20-08-2018 22:40:00 21.2 C 77 % 17.01 C
2002 20-08-2018 22:45:00 21.3 C 77 % 17.1 C
2003 20-08-2018 22:50:00 21.3 C 77 % 17.1 C
2004 20-08-2018 22:55:00 21.3 C 77 % 17.1 C
2005 20-08-2018 23:00:00 21.4 C 77 % 17.2 C
2006 20-08-2018 23:05:00 21.4 C 78 % 17.4 C
2007 20-08-2018 23:10:00 21.4 C 77 % 17.2 C
2008 20-08-2018 23:15:00 21.3 C 78 % 17.31 C
2009 20-08-2018 23:20:00 21.2 C 78 % 17.21 C
2010 20-08-2018 23:25:00 21.1 C 78 % 17.11 C
2011 20-08-2018 23:30:00 20.8 C 79 % 17.02 C
2012 20-08-2018 23:35:00 20.6 C 79 % 16.83 C
2013 20-08-2018 23:40:00 20.4 C 80 % 16.83 C
2014 20-08-2018 23:45:00 20.2 C 81 % 16.84 C
2015 20-08-2018 23:50:00 20.1 C 81 % 16.74 C
2016 20-08-2018 23:55:00 19.9 C 82 % 16.74 C
2017 21-08-2018 00:00:00 19.8 C 82 % 16.64 C
2018 21-08-2018 00:05:00 19.8 C 83 % 16.83 C
2019 21-08-2018 00:10:00 19.7 C 83 % 16.73 C
2020 21-08-2018 00:15:00 19.7 C 83 % 16.73 C
2021 21-08-2018 00:20:00 19.7 C 84 % 16.92 C
2022 21-08-2018 00:25:00 19.6 C 84 % 16.82 C
2023 21-08-2018 00:30:00 19.6 C 84 % 16.82 C
2024 21-08-2018 00:35:00 19.6 C 84 % 16.82 C
2025 21-08-2018 00:40:00 19.6 C 84 % 16.82 C
Sensor: Nr:Datum:Temp:Feuchte:Taupunkt:
Aussen-T/F 2026 21-08-2018 00:45:00 19.6 C 84 % 16.82 C
2027 21-08-2018 00:50:00 19.6 C 84 % 16.82 C
2028 21-08-2018 00:55:00 19.7 C 84 % 16.92 C
2029 21-08-2018 01:00:00 19.7 C 83 % 16.73 C
2030 21-08-2018 01:05:00 19.7 C 83 % 16.73 C
2031 21-08-2018 01:10:00 19.6 C 83 % 16.63 C
2032 21-08-2018 01:15:00 19.6 C 83 % 16.63 C
2033 21-08-2018 01:20:00 19.6 C 82 % 16.44 C
2034 21-08-2018 01:25:00 19.5 C 82 % 16.35 C
2035 21-08-2018 01:30:00 19.5 C 82 % 16.35 C
2036 21-08-2018 01:35:00 19.4 C 81 % 16.06 C
2037 21-08-2018 01:40:00 19.4 C 81 % 16.06 C
2038 21-08-2018 01:45:00 19.4 C 81 % 16.06 C
2039 21-08-2018 01:50:00 19.3 C 81 % 15.96 C
2040 21-08-2018 01:55:00 19.3 C 81 % 15.96 C
2041 21-08-2018 02:00:00 19.3 C 81 % 15.96 C
2042 21-08-2018 02:05:00 19.3 C 81 % 15.96 C
2043 21-08-2018 02:10:00 19.2 C 81 % 15.86 C
2044 21-08-2018 02:15:00 19.2 C 81 % 15.86 C
2045 21-08-2018 02:20:00 19.1 C 82 % 15.96 C
2046 21-08-2018 02:25:00 19 C 82 % 15.86 C
2047 21-08-2018 02:30:00 18.9 C 83 % 15.95 C
2048 21-08-2018 02:35:00 18.9 C 83 % 15.95 C
2049 21-08-2018 02:40:00 18.8 C 83 % 15.85 C
2050 21-08-2018 02:45:00 18.8 C 84 % 16.04 C
Sensor: Nr:Datum:Temp:Feuchte:Taupunkt:
Aussen-T/F 2051 21-08-2018 02:50:00 18.8 C 84 % 16.04 C
2052 21-08-2018 02:55:00 18.7 C 84 % 15.94 C
2053 21-08-2018 03:00:00 18.7 C 84 % 15.94 C
2054 21-08-2018 03:05:00 18.7 C 84 % 15.94 C
2055 21-08-2018 03:10:00 18.6 C 84 % 15.84 C
2056 21-08-2018 03:15:00 18.6 C 84 % 15.84 C
2057 21-08-2018 03:20:00 18.4 C 85 % 15.83 C
2058 21-08-2018 03:25:00 18.4 C 85 % 15.83 C
2059 21-08-2018 03:30:00 18.4 C 85 % 15.83 C
2060 21-08-2018 03:35:00 18.3 C 85 % 15.74 C
2061 21-08-2018 03:40:00 18.3 C 85 % 15.74 C
2062 21-08-2018 03:45:00 18.3 C 85 % 15.74 C
2063 21-08-2018 03:50:00 18.2 C 86 % 15.82 C
2064 21-08-2018 03:55:00 18.2 C 86 % 15.82 C
2065 21-08-2018 04:00:00 18.2 C 86 % 15.82 C
2066 21-08-2018 04:05:00 18.1 C 86 % 15.72 C
2067 21-08-2018 04:10:00 18.1 C 86 % 15.72 C
2068 21-08-2018 04:15:00 18 C 86 % 15.62 C
2069 21-08-2018 04:20:00 17.9 C 86 % 15.53 C
2070 21-08-2018 04:25:00 17.8 C 87 % 15.61 C
2071 21-08-2018 04:30:00 17.8 C 87 % 15.61 C
2072 21-08-2018 04:35:00 17.7 C 87 % 15.51 C
2073 21-08-2018 04:40:00 17.7 C 87 % 15.51 C
2074 21-08-2018 04:45:00 17.6 C 87 % 15.41 C
2075 21-08-2018 04:50:00 17.6 C 88 % 15.59 C
Sensor: Nr:Datum:Temp:Feuchte:Taupunkt:
Aussen-T/F 2076 21-08-2018 04:55:00 17.5 C 88 % 15.49 C
2077 21-08-2018 05:00:00 17.4 C 88 % 15.39 C
2078 21-08-2018 05:05:00 17.3 C 88 % 15.29 C
2079 21-08-2018 05:10:00 17.3 C 88 % 15.29 C
2080 21-08-2018 05:15:00 17.2 C 88 % 15.2 C
2081 21-08-2018 05:20:00 17.1 C 88 % 15.1 C
2082 21-08-2018 05:25:00 16.9 C 88 % 14.9 C
2083 21-08-2018 05:30:00 16.8 C 89 % 14.98 C
2084 21-08-2018 05:35:00 16.8 C 88 % 14.8 C
2085 21-08-2018 05:40:00 16.7 C 89 % 14.88 C
2086 21-08-2018 05:45:00 16.6 C 89 % 14.78 C
2087 21-08-2018 05:50:00 16.4 C 89 % 14.58 C
2088 21-08-2018 05:55:00 16.4 C 89 % 14.58 C
2089 21-08-2018 06:00:00 16.3 C 89 % 14.48 C
2090 21-08-2018 06:05:00 16.3 C 90 % 14.66 C
2091 21-08-2018 06:10:00 16.2 C 90 % 14.56 C
2092 21-08-2018 06:15:00 16.2 C 90 % 14.56 C
2093 21-08-2018 06:20:00 16.1 C 90 % 14.46 C
2094 21-08-2018 06:25:00 16 C 90 % 14.36 C
2095 21-08-2018 06:30:00 16 C 91 % 14.53 C
2096 21-08-2018 06:35:00 16.1 C 91 % 14.63 C
2097 21-08-2018 06:40:00 16 C 91 % 14.53 C
2098 21-08-2018 06:45:00 16 C 91 % 14.53 C
2099 21-08-2018 06:50:00 16 C 91 % 14.53 C
2100 21-08-2018 06:55:00 16.1 C 91 % 14.63 C
Sensor: Nr:Datum:Temp:Feuchte:Taupunkt:
Aussen-T/F 2101 21-08-2018 07:00:00 16.1 C 91 % 14.63 C
2102 21-08-2018 07:05:00 16.1 C 91 % 14.63 C
2103 21-08-2018 07:10:00 16 C 91 % 14.53 C
2104 21-08-2018 07:15:00 16 C 92 % 14.7 C
2105 21-08-2018 07:20:00 16.1 C 92 % 14.8 C
2106 21-08-2018 07:25:00 16.1 C 92 % 14.8 C
2107 21-08-2018 07:30:00 16.1 C 92 % 14.8 C
2108 21-08-2018 07:35:00 16.1 C 92 % 14.8 C
2109 21-08-2018 07:40:00 16.1 C 92 % 14.8 C
2110 21-08-2018 07:45:00 16.2 C 92 % 14.9 C
2111 21-08-2018 07:50:00 16.2 C 92 % 14.9 C
2112 21-08-2018 07:55:00 16.3 C 92 % 15 C
2113 21-08-2018 08:00:00 16.4 C 92 % 15.1 C
2114 21-08-2018 08:05:00 16.4 C 92 % 15.1 C
2115 21-08-2018 08:10:00 16.5 C 92 % 15.2 C
2116 21-08-2018 08:15:00 16.6 C 92 % 15.3 C
2117 21-08-2018 08:20:00 16.7 C 92 % 15.39 C
2118 21-08-2018 08:25:00 16.8 C 92 % 15.49 C
2119 21-08-2018 08:30:00 16.9 C 93 % 15.76 C
2120 21-08-2018 08:35:00 17 C 92 % 15.69 C
2121 21-08-2018 08:40:00 17.1 C 92 % 15.79 C
2122 21-08-2018 08:45:00 17.2 C 92 % 15.89 C
2123 21-08-2018 08:50:00 17.3 C 93 % 16.16 C
2124 21-08-2018 08:55:00 17.5 C 92 % 16.19 C
2125 21-08-2018 09:00:00 17.6 C 92 % 16.28 C
Sensor: Nr:Datum:Temp:Feuchte:Taupunkt:
Aussen-T/F 2126 21-08-2018 09:05:00 17.7 C 92 % 16.38 C
2127 21-08-2018 09:10:00 17.9 C 92 % 16.58 C
2128 21-08-2018 09:15:00 18.1 C 92 % 16.78 C
2129 21-08-2018 09:20:00 18.2 C 92 % 16.88 C
2130 21-08-2018 09:25:00 18.4 C 91 % 16.9 C
2131 21-08-2018 09:30:00 18.5 C 90 % 16.83 C
2132 21-08-2018 09:35:00 18.7 C 90 % 17.03 C
2133 21-08-2018 09:40:00 18.8 C 90 % 17.12 C
2134 21-08-2018 09:45:00 18.9 C 89 % 17.05 C
2135 21-08-2018 09:50:00 19 C 89 % 17.15 C
2136 21-08-2018 09:55:00 19.2 C 88 % 17.16 C
2137 21-08-2018 10:00:00 19.3 C 88 % 17.26 C
2138 21-08-2018 10:05:00 19.4 C 87 % 17.18 C
2139 21-08-2018 10:10:00 19.6 C 87 % 17.38 C
2140 21-08-2018 10:15:00 19.8 C 86 % 17.39 C
2141 21-08-2018 10:20:00 19.9 C 84 % 17.12 C
2142 21-08-2018 10:25:00 20.2 C 84 % 17.41 C
2143 21-08-2018 10:30:00 20.5 C 82 % 17.32 C
2144 21-08-2018 10:35:00 20.8 C 81 % 17.42 C
2145 21-08-2018 10:40:00 21.1 C 79 % 17.32 C
2146 21-08-2018 10:45:00 21.3 C 78 % 17.31 C
2147 21-08-2018 10:50:00 21.5 C 78 % 17.5 C
2148 21-08-2018 10:55:00 21.7 C 77 % 17.49 C
2149 21-08-2018 11:00:00 22 C 76 % 17.57 C
2150 21-08-2018 11:05:00 22.2 C 74 % 17.34 C
Sensor: Nr:Datum:Temp:Feuchte:Taupunkt:
Aussen-T/F 2151 21-08-2018 11:10:00 22.4 C 74 % 17.54 C
2152 21-08-2018 11:15:00 22.7 C 73 % 17.61 C
2153 21-08-2018 11:20:00 22.8 C 71 % 17.27 C
2154 21-08-2018 11:25:00 22.9 C 70 % 17.14 C
2155 21-08-2018 11:30:00 23.1 C 68 % 16.87 C
2156 21-08-2018 11:35:00 23.1 C 67 % 16.64 C
2157 21-08-2018 11:40:00 23.2 C 67 % 16.73 C
2158 21-08-2018 11:45:00 23.3 C 68 % 17.06 C
2159 21-08-2018 11:50:00 23.4 C 67 % 16.92 C
2160 21-08-2018 11:55:00 23.6 C 66 % 16.88 C
2161 21-08-2018 12:00:00 23.6 C 66 % 16.88 C
2162 21-08-2018 12:05:00 23.6 C 65 % 16.64 C
2163 21-08-2018 12:10:00 23.7 C 64 % 16.49 C
2164 21-08-2018 12:15:00 23.7 C 62 % 15.99 C
2165 21-08-2018 12:20:00 23.8 C 62 % 16.08 C
2166 21-08-2018 12:25:00 24 C 61 % 16.02 C
2167 21-08-2018 12:30:00 24.2 C 61 % 16.2 C
2168 21-08-2018 12:35:00 24.4 C 60 % 16.13 C
2169 21-08-2018 12:40:00 24.6 C 61 % 16.58 C
2170 21-08-2018 12:45:00 24.7 C 60 % 16.41 C
2171 21-08-2018 12:50:00 24.8 C 59 % 16.24 C
2172 21-08-2018 12:55:00 24.8 C 59 % 16.24 C
2173 21-08-2018 13:00:00 24.8 C 58 % 15.98 C
2174 21-08-2018 13:05:00 24.8 C 58 % 15.98 C
2175 21-08-2018 13:10:00 24.8 C 58 % 15.98 C
Sensor: Nr:Datum:Temp:Feuchte:Taupunkt:
Aussen-T/F 2176 21-08-2018 13:15:00 24.8 C 58 % 15.98 C
2177 21-08-2018 13:20:00 24.9 C 58 % 16.07 C
2178 21-08-2018 13:25:00 25.2 C 58 % 16.35 C
2179 21-08-2018 13:30:00 25.4 C 56 % 15.99 C
2180 21-08-2018 13:35:00 25.5 C 57 % 16.36 C
2181 21-08-2018 13:40:00 25.6 C 57 % 16.45 C
2182 21-08-2018 13:45:00 25.6 C 56 % 16.17 C
2183 21-08-2018 13:50:00 25.6 C 55 % 15.89 C
2184 21-08-2018 13:55:00 25.7 C 56 % 16.26 C
2185 21-08-2018 14:00:00 25.7 C 55 % 15.98 C
2186 21-08-2018 14:05:00 25.8 C 54 % 15.79 C
2187 21-08-2018 14:10:00 26 C 55 % 16.26 C
2188 21-08-2018 14:15:00 26.2 C 54 % 16.16 C
2189 21-08-2018 14:20:00 26.3 C 52 % 15.66 C
2190 21-08-2018 14:25:00 26.4 C 52 % 15.75 C
2191 21-08-2018 14:30:00 26.6 C 52 % 15.94 C
2192 21-08-2018 14:35:00 26.7 C 52 % 16.03 C
2193 21-08-2018 14:40:00 26.9 C 51 % 15.91 C
2194 21-08-2018 14:45:00 27.1 C 50 % 15.78 C
2195 21-08-2018 14:50:00 27.3 C 47 % 15 C
2196 21-08-2018 14:55:00 27.4 C 48 % 15.42 C
2197 21-08-2018 15:00:00 27.3 C 47 % 15 C
2198 21-08-2018 15:05:00 27.2 C 47 % 14.91 C
2199 21-08-2018 15:10:00 27.2 C 47 % 14.91 C
2200 21-08-2018 15:15:00 27.2 C 47 % 14.91 C
Sensor: Nr:Datum:Temp:Feuchte:Taupunkt:
Aussen-T/F 2201 21-08-2018 15:20:00 27.2 C 48 % 15.24 C
2202 21-08-2018 15:25:00 27.4 C 46 % 14.76 C
2203 21-08-2018 15:30:00 27.4 C 46 % 14.76 C
2204 21-08-2018 15:35:00 27.4 C 48 % 15.42 C
2205 21-08-2018 15:40:00 27.4 C 47 % 15.09 C
2206 21-08-2018 15:45:00 27.5 C 47 % 15.18 C
2207 21-08-2018 15:50:00 27.5 C 47 % 15.18 C
2208 21-08-2018 15:55:00 27.6 C 47 % 15.27 C
2209 21-08-2018 16:00:00 27.6 C 46 % 14.94 C
2210 21-08-2018 16:05:00 27.6 C 47 % 15.27 C
2211 21-08-2018 16:10:00 27.7 C 47 % 15.36 C
2212 21-08-2018 16:15:00 27.7 C 47 % 15.36 C
2213 21-08-2018 16:20:00 27.7 C 46 % 15.03 C
2214 21-08-2018 16:25:00 27.7 C 46 % 15.03 C
2215 21-08-2018 16:30:00 27.7 C 46 % 15.03 C
2216 21-08-2018 16:35:00 27.7 C 46 % 15.03 C
2217 21-08-2018 16:40:00 27.7 C 46 % 15.03 C
2218 21-08-2018 16:45:00 27.8 C 46 % 15.12 C
2219 21-08-2018 16:50:00 28.2 C 44 % 14.79 C
2220 21-08-2018 16:55:00 28.2 C 45 % 15.14 C
2221 21-08-2018 17:00:00 28.1 C 45 % 15.05 C
2222 21-08-2018 17:05:00 28.1 C 46 % 15.39 C
2223 21-08-2018 17:10:00 28.1 C 45 % 15.05 C
2224 21-08-2018 17:15:00 28 C 46 % 15.3 C
2225 21-08-2018 17:20:00 27.9 C 45 % 14.87 C
Sensor: Nr:Datum:Temp:Feuchte:Taupunkt:
Aussen-T/F 2226 21-08-2018 17:25:00 27.9 C 44 % 14.52 C
2227 21-08-2018 17:30:00 27.8 C 45 % 14.78 C
2228 21-08-2018 17:35:00 27.8 C 45 % 14.78 C
2229 21-08-2018 17:40:00 27.8 C 46 % 15.12 C
2230 21-08-2018 17:45:00 27.8 C 45 % 14.78 C
2231 21-08-2018 17:50:00 27.9 C 45 % 14.87 C
2232 21-08-2018 17:55:00 28.4 C 44 % 14.97 C
2233 21-08-2018 18:00:00 28.9 C 45 % 15.77 C
2234 21-08-2018 18:05:00 29.4 C 44 % 15.87 C
2235 21-08-2018 18:10:00 29.8 C 42 % 15.51 C
2236 21-08-2018 18:15:00 29.9 C 42 % 15.6 C
2237 21-08-2018 18:20:00 29.9 C 43 % 15.96 C
2238 21-08-2018 18:25:00 30 C 43 % 16.05 C
2239 21-08-2018 18:30:00 29.9 C 43 % 15.96 C
2240 21-08-2018 18:35:00 29.6 C 44 % 16.05 C
2241 21-08-2018 18:40:00 29.4 C 44 % 15.87 C
2242 21-08-2018 18:45:00 29.3 C 44 % 15.78 C
2243 21-08-2018 18:50:00 29.1 C 45 % 15.95 C
2244 21-08-2018 18:55:00 28.8 C 45 % 15.68 C
2245 21-08-2018 19:00:00 28.6 C 46 % 15.85 C
2246 21-08-2018 19:05:00 28.5 C 46 % 15.75 C
2247 21-08-2018 19:10:00 28.3 C 47 % 15.91 C
2248 21-08-2018 19:15:00 28.2 C 47 % 15.82 C
2249 21-08-2018 19:20:00 27.9 C 48 % 15.87 C
2250 21-08-2018 19:25:00 27.6 C 48 % 15.6 C
Sensor: Nr:Datum:Temp:Feuchte:Taupunkt:
Aussen-T/F 2251 21-08-2018 19:30:00 27.3 C 50 % 15.97 C
2252 21-08-2018 19:35:00 27 C 51 % 16 C
2253 21-08-2018 19:40:00 26.7 C 52 % 16.03 C
2254 21-08-2018 19:45:00 26.4 C 55 % 16.63 C
2255 21-08-2018 19:50:00 26.2 C 55 % 16.45 C
2256 21-08-2018 19:55:00 26 C 56 % 16.54 C
2257 21-08-2018 20:00:00 25.8 C 58 % 16.91 C
2258 21-08-2018 20:05:00 25.6 C 57 % 16.45 C
2259 21-08-2018 20:10:00 25.3 C 58 % 16.44 C
2260 21-08-2018 20:15:00 25.1 C 59 % 16.52 C
2261 21-08-2018 20:20:00 24.9 C 59 % 16.34 C
2262 21-08-2018 20:25:00 24.7 C 60 % 16.41 C
2263 21-08-2018 20:30:00 24.5 C 61 % 16.49 C
2264 21-08-2018 20:35:00 24.3 C 61 % 16.3 C
2265 21-08-2018 20:40:00 24.2 C 61 % 16.2 C
2266 21-08-2018 20:45:00 24 C 62 % 16.27 C
2267 21-08-2018 20:50:00 23.8 C 62 % 16.08 C
2268 21-08-2018 20:55:00 23.6 C 62 % 15.89 C
2269 21-08-2018 21:00:00 23.3 C 63 % 15.86 C
2270 21-08-2018 21:05:00 23.2 C 64 % 16.01 C
2271 21-08-2018 21:10:00 22.9 C 65 % 15.97 C
2272 21-08-2018 21:15:00 22.7 C 65 % 15.78 C
2273 21-08-2018 21:20:00 22.6 C 66 % 15.93 C
2274 21-08-2018 21:25:00 22.4 C 67 % 15.97 C
2275 21-08-2018 21:30:00 22.3 C 68 % 16.11 C
Sensor: Nr:Datum:Temp:Feuchte:Taupunkt:
Aussen-T/F 2276 21-08-2018 21:35:00 22.3 C 68 % 16.11 C
2277 21-08-2018 21:40:00 22.2 C 68 % 16.01 C
2278 21-08-2018 21:45:00 22.2 C 68 % 16.01 C
2279 21-08-2018 21:50:00 22.2 C 68 % 16.01 C
2280 21-08-2018 21:55:00 22.2 C 68 % 16.01 C
2281 21-08-2018 22:00:00 22.2 C 68 % 16.01 C
2282 21-08-2018 22:05:00 22.1 C 68 % 15.92 C
2283 21-08-2018 22:10:00 22 C 69 % 16.05 C
2284 21-08-2018 22:15:00 21.9 C 69 % 15.96 C
2285 21-08-2018 22:20:00 21.8 C 69 % 15.86 C
2286 21-08-2018 22:25:00 21.7 C 69 % 15.77 C
2287 21-08-2018 22:30:00 21.6 C 69 % 15.67 C
2288 21-08-2018 22:35:00 21.6 C 69 % 15.67 C
2289 21-08-2018 22:40:00 21.4 C 69 % 15.48 C
2290 21-08-2018 22:45:00 21.3 C 70 % 15.61 C
2291 21-08-2018 22:50:00 21.2 C 70 % 15.51 C
2292 21-08-2018 22:55:00 21.1 C 70 % 15.42 C
2293 21-08-2018 23:00:00 20.9 C 70 % 15.23 C
2294 21-08-2018 23:05:00 20.8 C 71 % 15.35 C
2295 21-08-2018 23:10:00 20.7 C 71 % 15.25 C
2296 21-08-2018 23:15:00 20.6 C 71 % 15.16 C
2297 21-08-2018 23:20:00 20.5 C 72 % 15.28 C
2298 21-08-2018 23:25:00 20.3 C 72 % 15.09 C
2299 21-08-2018 23:30:00 20.2 C 72 % 14.99 C
2300 21-08-2018 23:35:00 20.2 C 72 % 14.99 C
Sensor: Nr:Datum:Temp:Feuchte:Taupunkt:
Aussen-T/F 2301 21-08-2018 23:40:00 20.1 C 73 % 15.11 C
2302 21-08-2018 23:45:00 20 C 74 % 15.23 C
2303 21-08-2018 23:50:00 20 C 74 % 15.23 C
2304 21-08-2018 23:55:00 20 C 74 % 15.23 C
2305 22-08-2018 00:00:00 20.1 C 74 % 15.32 C
2306 22-08-2018 00:05:00 20.1 C 74 % 15.32 C
2307 22-08-2018 00:10:00 20.1 C 74 % 15.32 C
2308 22-08-2018 00:15:00 20.1 C 74 % 15.32 C
2309 22-08-2018 00:20:00 20.1 C 74 % 15.32 C
2310 22-08-2018 00:25:00 20 C 74 % 15.23 C
2311 22-08-2018 00:30:00 19.9 C 75 % 15.34 C
2312 22-08-2018 00:35:00 19.9 C 74 % 15.13 C
2313 22-08-2018 00:40:00 19.8 C 74 % 15.03 C
2314 22-08-2018 00:45:00 19.8 C 74 % 15.03 C
2315 22-08-2018 00:50:00 19.7 C 75 % 15.15 C
2316 22-08-2018 00:55:00 19.7 C 75 % 15.15 C
2317 22-08-2018 01:00:00 19.6 C 75 % 15.05 C
2318 22-08-2018 01:05:00 19.4 C 75 % 14.86 C
2319 22-08-2018 01:10:00 19.3 C 75 % 14.76 C
2320 22-08-2018 01:15:00 19.2 C 76 % 14.87 C
2321 22-08-2018 01:20:00 19.2 C 76 % 14.87 C
2322 22-08-2018 01:25:00 19.1 C 76 % 14.77 C
2323 22-08-2018 01:30:00 18.9 C 76 % 14.58 C
2324 22-08-2018 01:35:00 18.8 C 77 % 14.68 C
2325 22-08-2018 01:40:00 18.7 C 77 % 14.59 C
Sensor: Nr:Datum:Temp:Feuchte:Taupunkt:
Aussen-T/F 2326 22-08-2018 01:45:00 18.6 C 77 % 14.49 C
2327 22-08-2018 01:50:00 18.5 C 78 % 14.59 C
2328 22-08-2018 01:55:00 18.4 C 78 % 14.5 C
2329 22-08-2018 02:00:00 18.3 C 79 % 14.6 C
2330 22-08-2018 02:05:00 18.3 C 79 % 14.6 C
2331 22-08-2018 02:10:00 18.2 C 80 % 14.69 C
2332 22-08-2018 02:15:00 18.1 C 80 % 14.6 C
2333 22-08-2018 02:20:00 18 C 80 % 14.5 C
2334 22-08-2018 02:25:00 17.9 C 80 % 14.4 C
2335 22-08-2018 02:30:00 17.8 C 81 % 14.5 C
2336 22-08-2018 02:35:00 17.7 C 81 % 14.4 C
2337 22-08-2018 02:40:00 17.5 C 81 % 14.2 C
2338 22-08-2018 02:45:00 17.4 C 82 % 14.3 C
2339 22-08-2018 02:50:00 17.3 C 82 % 14.2 C
2340 22-08-2018 02:55:00 17.3 C 82 % 14.2 C
2341 22-08-2018 03:00:00 17.2 C 82 % 14.1 C
2342 22-08-2018 03:05:00 17.1 C 83 % 14.19 C
2343 22-08-2018 03:10:00 17.1 C 83 % 14.19 C
2344 22-08-2018 03:15:00 17 C 83 % 14.09 C
2345 22-08-2018 03:20:00 16.9 C 83 % 14 C
2346 22-08-2018 03:25:00 16.9 C 84 % 14.18 C
2347 22-08-2018 03:30:00 16.8 C 85 % 14.26 C
2348 22-08-2018 03:35:00 16.8 C 85 % 14.26 C
2349 22-08-2018 03:40:00 16.7 C 85 % 14.17 C
2350 22-08-2018 03:45:00 16.6 C 85 % 14.07 C
Sensor: Nr:Datum:Temp:Feuchte:Taupunkt:
Aussen-T/F 2351 22-08-2018 03:50:00 16.6 C 85 % 14.07 C
2352 22-08-2018 03:55:00 16.5 C 85 % 13.97 C
2353 22-08-2018 04:00:00 16.4 C 86 % 14.05 C
2354 22-08-2018 04:05:00 16.4 C 85 % 13.87 C
2355 22-08-2018 04:10:00 16.3 C 86 % 13.95 C
2356 22-08-2018 04:15:00 16.2 C 86 % 13.86 C
2357 22-08-2018 04:20:00 16.1 C 86 % 13.76 C
2358 22-08-2018 04:25:00 16.1 C 86 % 13.76 C
2359 22-08-2018 04:30:00 16 C 86 % 13.66 C
2360 22-08-2018 04:35:00 15.9 C 86 % 13.56 C
2361 22-08-2018 04:40:00 15.8 C 86 % 13.46 C
2362 22-08-2018 04:45:00 15.8 C 87 % 13.64 C
2363 22-08-2018 04:50:00 15.7 C 87 % 13.54 C
2364 22-08-2018 04:55:00 15.7 C 87 % 13.54 C
2365 22-08-2018 05:00:00 15.7 C 87 % 13.54 C
2366 22-08-2018 05:05:00 15.6 C 87 % 13.45 C
2367 22-08-2018 05:10:00 15.6 C 87 % 13.45 C
2368 22-08-2018 05:15:00 15.6 C 87 % 13.45 C
2369 22-08-2018 05:20:00 15.6 C 87 % 13.45 C
2370 22-08-2018 05:25:00 15.5 C 87 % 13.35 C
2371 22-08-2018 05:30:00 15.4 C 87 % 13.25 C
2372 22-08-2018 05:35:00 15.4 C 87 % 13.25 C
2373 22-08-2018 05:40:00 15.3 C 88 % 13.33 C
2374 22-08-2018 05:45:00 15.4 C 88 % 13.42 C
2375 22-08-2018 05:50:00 15.4 C 88 % 13.42 C
Sensor: Nr:Datum:Temp:Feuchte:Taupunkt:
Aussen-T/F 2376 22-08-2018 05:55:00 15.3 C 88 % 13.33 C
2377 22-08-2018 06:00:00 15.3 C 88 % 13.33 C
2378 22-08-2018 06:05:00 15.3 C 88 % 13.33 C
2379 22-08-2018 06:10:00 15.3 C 88 % 13.33 C
2380 22-08-2018 06:15:00 15.3 C 88 % 13.33 C
2381 22-08-2018 06:20:00 15.3 C 88 % 13.33 C
2382 22-08-2018 06:25:00 15.3 C 89 % 13.5 C
2383 22-08-2018 06:30:00 15.3 C 89 % 13.5 C
2384 22-08-2018 06:35:00 15.2 C 89 % 13.4 C
2385 22-08-2018 06:40:00 15.1 C 88 % 13.13 C
2386 22-08-2018 06:45:00 15.1 C 89 % 13.3 C
2387 22-08-2018 06:50:00 15.1 C 89 % 13.3 C
2388 22-08-2018 06:55:00 15.1 C 89 % 13.3 C
2389 22-08-2018 07:00:00 15.1 C 89 % 13.3 C
2390 22-08-2018 07:05:00 15.1 C 89 % 13.3 C
2391 22-08-2018 07:10:00 15.1 C 90 % 13.47 C
2392 22-08-2018 07:15:00 15.2 C 90 % 13.57 C
2393 22-08-2018 07:20:00 15.2 C 90 % 13.57 C
2394 22-08-2018 07:25:00 15.2 C 90 % 13.57 C
2395 22-08-2018 07:30:00 15.3 C 90 % 13.67 C
2396 22-08-2018 07:35:00 15.4 C 90 % 13.77 C
2397 22-08-2018 07:40:00 15.4 C 90 % 13.77 C
2398 22-08-2018 07:45:00 15.5 C 90 % 13.87 C
2399 22-08-2018 07:50:00 15.6 C 90 % 13.97 C
2400 22-08-2018 07:55:00 15.6 C 90 % 13.97 C
Sensor: Nr:Datum:Temp:Feuchte:Taupunkt:
Aussen-T/F 2401 22-08-2018 08:00:00 15.6 C 90 % 13.97 C
2402 22-08-2018 08:05:00 15.7 C 90 % 14.06 C
2403 22-08-2018 08:10:00 15.7 C 90 % 14.06 C
2404 22-08-2018 08:15:00 15.8 C 90 % 14.16 C
2405 22-08-2018 08:20:00 15.9 C 90 % 14.26 C
2406 22-08-2018 08:25:00 16 C 90 % 14.36 C
2407 22-08-2018 08:30:00 16.1 C 90 % 14.46 C
2408 22-08-2018 08:35:00 16.2 C 90 % 14.56 C
2409 22-08-2018 08:40:00 16.3 C 90 % 14.66 C
2410 22-08-2018 08:45:00 16.4 C 90 % 14.76 C
2411 22-08-2018 08:50:00 16.6 C 90 % 14.95 C
2412 22-08-2018 08:55:00 16.7 C 90 % 15.05 C
2413 22-08-2018 09:00:00 16.8 C 89 % 14.98 C
2414 22-08-2018 09:05:00 16.9 C 89 % 15.08 C
2415 22-08-2018 09:10:00 17 C 89 % 15.17 C
2416 22-08-2018 09:15:00 17.1 C 89 % 15.27 C
2417 22-08-2018 09:20:00 17.2 C 89 % 15.37 C
2418 22-08-2018 09:25:00 17.3 C 89 % 15.47 C
2419 22-08-2018 09:30:00 17.5 C 89 % 15.67 C
2420 22-08-2018 09:35:00 17.7 C 89 % 15.86 C
2421 22-08-2018 09:40:00 17.8 C 88 % 15.79 C
2422 22-08-2018 09:45:00 18.1 C 88 % 16.08 C
2423 22-08-2018 09:50:00 18.3 C 87 % 16.1 C
2424 22-08-2018 09:55:00 18.5 C 87 % 16.3 C
2425 22-08-2018 10:00:00 18.8 C 85 % 16.23 C
Sensor: Nr:Datum:Temp:Feuchte:Taupunkt:
Aussen-T/F 2426 22-08-2018 10:05:00 18.9 C 84 % 16.14 C
2427 22-08-2018 10:10:00 19.2 C 84 % 16.43 C
2428 22-08-2018 10:15:00 19.4 C 84 % 16.63 C
2429 22-08-2018 10:20:00 19.7 C 83 % 16.73 C
2430 22-08-2018 10:25:00 19.8 C 82 % 16.64 C
2431 22-08-2018 10:30:00 20 C 82 % 16.83 C
2432 22-08-2018 10:35:00 20.2 C 80 % 16.64 C
2433 22-08-2018 10:40:00 20.4 C 78 % 16.44 C
2434 22-08-2018 10:45:00 20.7 C 79 % 16.93 C
2435 22-08-2018 10:50:00 20.9 C 79 % 17.12 C
2436 22-08-2018 10:55:00 21.1 C 78 % 17.11 C
2437 22-08-2018 11:00:00 21.2 C 75 % 16.59 C
2438 22-08-2018 11:05:00 21.4 C 75 % 16.79 C
2439 22-08-2018 11:10:00 21.7 C 75 % 17.07 C
2440 22-08-2018 11:15:00 22 C 72 % 16.72 C
2441 22-08-2018 11:20:00 22.3 C 72 % 17.01 C
2442 22-08-2018 11:25:00 22.6 C 71 % 17.07 C
2443 22-08-2018 11:30:00 22.8 C 71 % 17.27 C
2444 22-08-2018 11:35:00 23.2 C 69 % 17.2 C
2445 22-08-2018 11:40:00 23.4 C 69 % 17.39 C
2446 22-08-2018 11:45:00 23.6 C 67 % 17.11 C
2447 22-08-2018 11:50:00 23.8 C 67 % 17.3 C
2448 22-08-2018 11:55:00 24.1 C 66 % 17.35 C
2449 22-08-2018 12:00:00 24.3 C 63 % 16.81 C
2450 22-08-2018 12:05:00 24.6 C 66 % 17.83 C
Sensor: Nr:Datum:Temp:Feuchte:Taupunkt:
Aussen-T/F 2451 22-08-2018 12:10:00 24.8 C 63 % 17.28 C
2452 22-08-2018 12:15:00 25 C 62 % 17.21 C
2453 22-08-2018 12:20:00 25.2 C 61 % 17.14 C
2454 22-08-2018 12:25:00 25.3 C 59 % 16.71 C
2455 22-08-2018 12:30:00 25.7 C 57 % 16.54 C
2456 22-08-2018 12:35:00 26.1 C 57 % 16.92 C
2457 22-08-2018 12:40:00 26.3 C 56 % 16.82 C
2458 22-08-2018 12:45:00 26.5 C 55 % 16.72 C
2459 22-08-2018 12:50:00 26.7 C 55 % 16.91 C
2460 22-08-2018 12:55:00 27 C 55 % 17.19 C
2461 22-08-2018 13:00:00 27.2 C 53 % 16.79 C
2462 22-08-2018 13:05:00 27.4 C 52 % 16.67 C
2463 22-08-2018 13:10:00 27.6 C 51 % 16.55 C
2464 22-08-2018 13:15:00 27.8 C 50 % 16.42 C
2465 22-08-2018 13:20:00 27.9 C 50 % 16.51 C
2466 22-08-2018 13:25:00 28.1 C 50 % 16.7 C
2467 22-08-2018 13:30:00 28.2 C 50 % 16.79 C
2468 22-08-2018 13:35:00 28.3 C 48 % 16.24 C
2469 22-08-2018 13:40:00 28.6 C 48 % 16.51 C
2470 22-08-2018 13:45:00 28.7 C 49 % 16.93 C
2471 22-08-2018 13:50:00 28.8 C 47 % 16.36 C
2472 22-08-2018 13:55:00 29.1 C 46 % 16.3 C
2473 22-08-2018 14:00:00 29.2 C 46 % 16.39 C
2474 22-08-2018 14:05:00 29.4 C 44 % 15.87 C
2475 22-08-2018 14:10:00 29.5 C 43 % 15.6 C
Sensor: Nr:Datum:Temp:Feuchte:Taupunkt:
Aussen-T/F 2476 22-08-2018 14:15:00 29.7 C 43 % 15.78 C
2477 22-08-2018 14:20:00 29.8 C 42 % 15.51 C
2478 22-08-2018 14:25:00 30 C 43 % 16.05 C
2479 22-08-2018 14:30:00 30.1 C 43 % 16.14 C
2480 22-08-2018 14:35:00 30.2 C 42 % 15.86 C
2481 22-08-2018 14:40:00 30.3 C 39 % 14.8 C
2482 22-08-2018 14:45:00 30.6 C 40 % 15.46 C
2483 22-08-2018 14:50:00 30.7 C 39 % 15.15 C
2484 22-08-2018 14:55:00 30.8 C 38 % 14.84 C
2485 22-08-2018 15:00:00 31 C 38 % 15.02 C
2486 22-08-2018 15:05:00 31.1 C 37 % 14.69 C
2487 22-08-2018 15:10:00 31.2 C 37 % 14.78 C
2488 22-08-2018 15:15:00 31.3 C 36 % 14.44 C
2489 22-08-2018 15:20:00 31.4 C 36 % 14.53 C
2490 22-08-2018 15:25:00 31.6 C 36 % 14.71 C
2491 22-08-2018 15:30:00 31.7 C 38 % 15.64 C
2492 22-08-2018 15:35:00 31.7 C 37 % 15.22 C
2493 22-08-2018 15:40:00 31.8 C 36 % 14.88 C
2494 22-08-2018 15:45:00 31.9 C 35 % 14.53 C
2495 22-08-2018 15:50:00 31.9 C 33 % 13.63 C
2496 22-08-2018 15:55:00 32.1 C 34 % 14.26 C
2497 22-08-2018 16:00:00 32.3 C 35 % 14.88 C
2498 22-08-2018 16:05:00 32.6 C 36 % 15.58 C
2499 22-08-2018 16:10:00 32.7 C 35 % 15.23 C
2500 22-08-2018 16:15:00 32.8 C 35 % 15.32 C
Sensor: Nr:Datum:Temp:Feuchte:Taupunkt:
Aussen-T/F 2501 22-08-2018 16:20:00 32.9 C 35 % 15.41 C
2502 22-08-2018 16:25:00 33.2 C 33 % 14.75 C
2503 22-08-2018 16:30:00 33.3 C 33 % 14.84 C
2504 22-08-2018 16:35:00 33.5 C 33 % 15.02 C
2505 22-08-2018 16:40:00 33.6 C 35 % 16.02 C
2506 22-08-2018 16:45:00 33.8 C 33 % 15.28 C
2507 22-08-2018 16:50:00 33.7 C 34 % 15.65 C
2508 22-08-2018 16:55:00 33.8 C 33 % 15.28 C
2509 22-08-2018 17:00:00 33.9 C 33 % 15.36 C
2510 22-08-2018 17:05:00 34.2 C 33 % 15.62 C
2511 22-08-2018 17:10:00 34.3 C 33 % 15.71 C
2512 22-08-2018 17:15:00 34.4 C 32 % 15.32 C
2513 22-08-2018 17:20:00 34.3 C 31 % 14.74 C
2514 22-08-2018 17:25:00 34.2 C 32 % 15.14 C
2515 22-08-2018 17:30:00 34.1 C 32 % 15.06 C
2516 22-08-2018 17:35:00 33.8 C 35 % 16.19 C
2517 22-08-2018 17:40:00 33.6 C 36 % 16.46 C
2518 22-08-2018 17:45:00 33.8 C 33 % 15.28 C
2519 22-08-2018 17:50:00 33.8 C 33 % 15.28 C
2520 22-08-2018 17:55:00 34.1 C 32 % 15.06 C
2521 22-08-2018 18:00:00 34.3 C 31 % 14.74 C
2522 22-08-2018 18:05:00 34.3 C 32 % 15.23 C
2523 22-08-2018 18:10:00 34.1 C 31 % 14.56 C
2524 22-08-2018 18:15:00 33.5 C 33 % 15.02 C
2525 22-08-2018 18:20:00 33.1 C 35 % 15.58 C
Sensor: Nr:Datum:Temp:Feuchte:Taupunkt:
Aussen-T/F 2526 22-08-2018 18:25:00 32.6 C 37 % 16.01 C
2527 22-08-2018 18:30:00 32.2 C 38 % 16.08 C
2528 22-08-2018 18:35:00 32.1 C 39 % 16.4 C
2529 22-08-2018 18:40:00 32.3 C 38 % 16.17 C
2530 22-08-2018 18:45:00 32.5 C 38 % 16.34 C
2531 22-08-2018 18:50:00 32.5 C 38 % 16.34 C
2532 22-08-2018 18:55:00 32.4 C 39 % 16.66 C
2533 22-08-2018 19:00:00 32.3 C 39 % 16.57 C
2534 22-08-2018 19:05:00 32.1 C 39 % 16.4 C
2535 22-08-2018 19:10:00 31.7 C 40 % 16.44 C
2536 22-08-2018 19:15:00 31.4 C 41 % 16.56 C
2537 22-08-2018 19:20:00 31.2 C 41 % 16.38 C
2538 22-08-2018 19:25:00 30.9 C 42 % 16.49 C
2539 22-08-2018 19:30:00 30.7 C 43 % 16.68 C
2540 22-08-2018 19:35:00 30.4 C 43 % 16.41 C
2541 22-08-2018 19:40:00 30.2 C 44 % 16.59 C
2542 22-08-2018 19:45:00 30 C 45 % 16.77 C
2543 22-08-2018 19:50:00 29.8 C 45 % 16.59 C
2544 22-08-2018 19:55:00 29.7 C 46 % 16.84 C
2545 22-08-2018 20:00:00 29.4 C 46 % 16.57 C
2546 22-08-2018 20:05:00 29.2 C 47 % 16.73 C
2547 22-08-2018 20:10:00 29 C 47 % 16.55 C
2548 22-08-2018 20:15:00 28.8 C 48 % 16.69 C
2549 22-08-2018 20:20:00 28.5 C 49 % 16.75 C
2550 22-08-2018 20:25:00 28.3 C 49 % 16.56 C
Sensor: Nr:Datum:Temp:Feuchte:Taupunkt:
Aussen-T/F 2551 22-08-2018 20:30:00 28.1 C 50 % 16.7 C
2552 22-08-2018 20:35:00 27.9 C 52 % 17.13 C
2553 22-08-2018 20:40:00 27.7 C 58 % 18.68 C
2554 22-08-2018 20:45:00 27.2 C 55 % 17.37 C
2555 22-08-2018 20:50:00 26.6 C 56 % 17.1 C
2556 22-08-2018 20:55:00 26.3 C 57 % 17.1 C
2557 22-08-2018 21:00:00 26.2 C 58 % 17.28 C
2558 22-08-2018 21:05:00 26.1 C 58 % 17.19 C
2559 22-08-2018 21:10:00 25.9 C 58 % 17 C
2560 22-08-2018 21:15:00 25.8 C 58 % 16.91 C
2561 22-08-2018 21:20:00 25.7 C 59 % 17.09 C
2562 22-08-2018 21:25:00 25.4 C 59 % 16.81 C
2563 22-08-2018 21:30:00 25.3 C 61 % 17.24 C
2564 22-08-2018 21:35:00 25.1 C 61 % 17.05 C
2565 22-08-2018 21:40:00 24.9 C 61 % 16.86 C
2566 22-08-2018 21:45:00 24.9 C 62 % 17.12 C
2567 22-08-2018 21:50:00 24.9 C 62 % 17.12 C
2568 22-08-2018 21:55:00 24.7 C 63 % 17.18 C
2569 22-08-2018 22:00:00 24.5 C 63 % 16.99 C
2570 22-08-2018 22:05:00 24.2 C 65 % 17.2 C
2571 22-08-2018 22:10:00 24.1 C 65 % 17.11 C
2572 22-08-2018 22:15:00 24 C 66 % 17.26 C
2573 22-08-2018 22:20:00 24 C 65 % 17.01 C
2574 22-08-2018 22:25:00 23.9 C 66 % 17.16 C
2575 22-08-2018 22:30:00 23.8 C 66 % 17.07 C
Sensor: Nr:Datum:Temp:Feuchte:Taupunkt:
Aussen-T/F 2576 22-08-2018 22:35:00 23.7 C 66 % 16.97 C
2577 22-08-2018 22:40:00 23.5 C 67 % 17.02 C
2578 22-08-2018 22:45:00 23.4 C 68 % 17.16 C
2579 22-08-2018 22:50:00 23.3 C 68 % 17.06 C
2580 22-08-2018 22:55:00 23.2 C 68 % 16.97 C
2581 22-08-2018 23:00:00 23.1 C 69 % 17.1 C
2582 22-08-2018 23:05:00 22.9 C 69 % 16.91 C
2583 22-08-2018 23:10:00 22.8 C 70 % 17.04 C
2584 22-08-2018 23:15:00 22.7 C 70 % 16.95 C
2585 22-08-2018 23:20:00 22.6 C 71 % 17.07 C
2586 22-08-2018 23:25:00 22.4 C 71 % 16.88 C
2587 22-08-2018 23:30:00 22.3 C 72 % 17.01 C
2588 22-08-2018 23:35:00 22.1 C 72 % 16.82 C
2589 22-08-2018 23:40:00 22.1 C 73 % 17.03 C
2590 22-08-2018 23:45:00 21.9 C 73 % 16.84 C
2591 22-08-2018 23:50:00 21.9 C 73 % 16.84 C
2592 22-08-2018 23:55:00 21.8 C 73 % 16.75 C
2593 23-08-2018 00:00:00 21.7 C 73 % 16.65 C
2594 23-08-2018 00:05:00 21.7 C 74 % 16.86 C
2595 23-08-2018 00:10:00 21.6 C 75 % 16.98 C
2596 23-08-2018 00:15:00 21.4 C 75 % 16.79 C
2597 23-08-2018 00:20:00 21.3 C 75 % 16.69 C
2598 23-08-2018 00:25:00 21.2 C 75 % 16.59 C
2599 23-08-2018 00:30:00 21.2 C 76 % 16.8 C
2600 23-08-2018 00:35:00 21.1 C 76 % 16.7 C
Sensor: Nr:Datum:Temp:Feuchte:Taupunkt:
Aussen-T/F 2601 23-08-2018 00:40:00 21 C 76 % 16.61 C
2602 23-08-2018 00:45:00 20.9 C 77 % 16.72 C
2603 23-08-2018 00:50:00 20.9 C 77 % 16.72 C
2604 23-08-2018 00:55:00 20.8 C 77 % 16.62 C
2605 23-08-2018 01:00:00 20.7 C 77 % 16.52 C
2606 23-08-2018 01:05:00 20.5 C 77 % 16.33 C
2607 23-08-2018 01:10:00 20.4 C 78 % 16.44 C
2608 23-08-2018 01:15:00 20.3 C 78 % 16.34 C
2609 23-08-2018 01:20:00 20.2 C 79 % 16.44 C
2610 23-08-2018 01:25:00 20.1 C 79 % 16.34 C
2611 23-08-2018 01:30:00 20.1 C 79 % 16.34 C
2612 23-08-2018 01:35:00 19.9 C 79 % 16.15 C
2613 23-08-2018 01:40:00 19.8 C 79 % 16.05 C
2614 23-08-2018 01:45:00 19.7 C 80 % 16.15 C
2615 23-08-2018 01:50:00 19.6 C 80 % 16.06 C
2616 23-08-2018 01:55:00 19.5 C 81 % 16.15 C
2617 23-08-2018 02:00:00 19.4 C 81 % 16.06 C
2618 23-08-2018 02:05:00 19.4 C 81 % 16.06 C
2619 23-08-2018 02:10:00 19.4 C 81 % 16.06 C
2620 23-08-2018 02:15:00 19.4 C 81 % 16.06 C
2621 23-08-2018 02:20:00 19.4 C 81 % 16.06 C
2622 23-08-2018 02:25:00 19.3 C 81 % 15.96 C
2623 23-08-2018 02:30:00 19.3 C 81 % 15.96 C
2624 23-08-2018 02:35:00 19.2 C 81 % 15.86 C
2625 23-08-2018 02:40:00 19.2 C 82 % 16.05 C
Sensor: Nr:Datum:Temp:Feuchte:Taupunkt:
Aussen-T/F 2626 23-08-2018 02:45:00 19.1 C 82 % 15.96 C
2627 23-08-2018 02:50:00 19.1 C 82 % 15.96 C
2628 23-08-2018 02:55:00 19 C 82 % 15.86 C
2629 23-08-2018 03:00:00 18.9 C 82 % 15.76 C
2630 23-08-2018 03:05:00 18.9 C 83 % 15.95 C
2631 23-08-2018 03:10:00 18.9 C 83 % 15.95 C
2632 23-08-2018 03:15:00 18.8 C 83 % 15.85 C
2633 23-08-2018 03:20:00 18.8 C 83 % 15.85 C
2634 23-08-2018 03:25:00 18.7 C 83 % 15.75 C
2635 23-08-2018 03:30:00 18.6 C 83 % 15.66 C
2636 23-08-2018 03:35:00 18.4 C 84 % 15.65 C
2637 23-08-2018 03:40:00 18.3 C 84 % 15.55 C
2638 23-08-2018 03:45:00 18.2 C 85 % 15.64 C
2639 23-08-2018 03:50:00 18.2 C 85 % 15.64 C
2640 23-08-2018 03:55:00 18.2 C 85 % 15.64 C
2641 23-08-2018 04:00:00 18.1 C 85 % 15.54 C
2642 23-08-2018 04:05:00 17.9 C 85 % 15.34 C
2643 23-08-2018 04:10:00 17.8 C 86 % 15.43 C
2644 23-08-2018 04:15:00 17.7 C 86 % 15.33 C
2645 23-08-2018 04:20:00 17.6 C 86 % 15.23 C
2646 23-08-2018 04:25:00 17.4 C 86 % 15.03 C
2647 23-08-2018 04:30:00 17.4 C 87 % 15.21 C
2648 23-08-2018 04:35:00 17.3 C 87 % 15.12 C
2649 23-08-2018 04:40:00 17.2 C 87 % 15.02 C
2650 23-08-2018 04:45:00 17.2 C 87 % 15.02 C
Sensor: Nr:Datum:Temp:Feuchte:Taupunkt:
Aussen-T/F 2651 23-08-2018 04:50:00 17.1 C 87 % 14.92 C
2652 23-08-2018 04:55:00 17 C 88 % 15 C
2653 23-08-2018 05:00:00 16.9 C 88 % 14.9 C
2654 23-08-2018 05:05:00 16.9 C 89 % 15.08 C
2655 23-08-2018 05:10:00 16.9 C 89 % 15.08 C
2656 23-08-2018 05:15:00 16.8 C 88 % 14.8 C
2657 23-08-2018 05:20:00 16.7 C 89 % 14.88 C
2658 23-08-2018 05:25:00 16.8 C 89 % 14.98 C
2659 23-08-2018 05:30:00 16.7 C 89 % 14.88 C
2660 23-08-2018 05:35:00 16.6 C 89 % 14.78 C
2661 23-08-2018 05:40:00 16.6 C 89 % 14.78 C
2662 23-08-2018 05:45:00 16.5 C 89 % 14.68 C
2663 23-08-2018 05:50:00 16.5 C 90 % 14.85 C
2664 23-08-2018 05:55:00 16.4 C 90 % 14.76 C
2665 23-08-2018 06:00:00 16.4 C 90 % 14.76 C
2666 23-08-2018 06:05:00 16.4 C 90 % 14.76 C
2667 23-08-2018 06:10:00 16.4 C 90 % 14.76 C
2668 23-08-2018 06:15:00 16.4 C 90 % 14.76 C
2669 23-08-2018 06:20:00 16.4 C 90 % 14.76 C
2670 23-08-2018 06:25:00 16.4 C 91 % 14.93 C
2671 23-08-2018 06:30:00 16.3 C 90 % 14.66 C
2672 23-08-2018 06:35:00 16.3 C 91 % 14.83 C
2673 23-08-2018 06:40:00 16.3 C 91 % 14.83 C
2674 23-08-2018 06:45:00 16.3 C 91 % 14.83 C
2675 23-08-2018 06:50:00 16.2 C 90 % 14.56 C
Sensor: Nr:Datum:Temp:Feuchte:Taupunkt:
Aussen-T/F 2676 23-08-2018 06:55:00 16.2 C 90 % 14.56 C
2677 23-08-2018 07:00:00 16.2 C 90 % 14.56 C
2678 23-08-2018 07:05:00 16.2 C 91 % 14.73 C
2679 23-08-2018 07:10:00 16.2 C 91 % 14.73 C
2680 23-08-2018 07:15:00 16.2 C 91 % 14.73 C
2681 23-08-2018 07:20:00 16.2 C 91 % 14.73 C
2682 23-08-2018 07:25:00 16.1 C 91 % 14.63 C
2683 23-08-2018 07:30:00 16.1 C 91 % 14.63 C
2684 23-08-2018 07:35:00 16.2 C 91 % 14.73 C
2685 23-08-2018 07:40:00 16.2 C 91 % 14.73 C
2686 23-08-2018 07:45:00 16.2 C 91 % 14.73 C
2687 23-08-2018 07:50:00 16.3 C 92 % 15 C
2688 23-08-2018 07:55:00 16.4 C 92 % 15.1 C
2689 23-08-2018 08:00:00 16.4 C 92 % 15.1 C
2690 23-08-2018 08:05:00 16.5 C 92 % 15.2 C
2691 23-08-2018 08:10:00 16.6 C 92 % 15.3 C
2692 23-08-2018 08:15:00 16.6 C 92 % 15.3 C
2693 23-08-2018 08:20:00 16.7 C 92 % 15.39 C
2694 23-08-2018 08:25:00 16.8 C 91 % 15.32 C
2695 23-08-2018 08:30:00 16.9 C 91 % 15.42 C
2696 23-08-2018 08:35:00 17.1 C 91 % 15.62 C
2697 23-08-2018 08:40:00 17.2 C 90 % 15.55 C
2698 23-08-2018 08:45:00 17.3 C 90 % 15.64 C
2699 23-08-2018 08:50:00 17.4 C 90 % 15.74 C
2700 23-08-2018 08:55:00 17.5 C 90 % 15.84 C
Sensor: Nr:Datum:Temp:Feuchte:Taupunkt:
Aussen-T/F 2701 23-08-2018 09:00:00 17.7 C 89 % 15.86 C
2702 23-08-2018 09:05:00 17.8 C 89 % 15.96 C
2703 23-08-2018 09:10:00 17.9 C 88 % 15.88 C
2704 23-08-2018 09:15:00 18.1 C 88 % 16.08 C
2705 23-08-2018 09:20:00 18.3 C 88 % 16.28 C
2706 23-08-2018 09:25:00 18.4 C 88 % 16.38 C
2707 23-08-2018 09:30:00 18.7 C 87 % 16.49 C
2708 23-08-2018 09:35:00 18.8 C 87 % 16.59 C
2709 23-08-2018 09:40:00 19.1 C 86 % 16.7 C
2710 23-08-2018 09:45:00 19.3 C 85 % 16.72 C
2711 23-08-2018 09:50:00 19.5 C 84 % 16.72 C
2712 23-08-2018 09:55:00 19.7 C 84 % 16.92 C
2713 23-08-2018 10:00:00 19.9 C 83 % 16.93 C
2714 23-08-2018 10:05:00 20.2 C 83 % 17.22 C
2715 23-08-2018 10:10:00 20.4 C 82 % 17.22 C
2716 23-08-2018 10:15:00 20.7 C 82 % 17.52 C
2717 23-08-2018 10:20:00 20.8 C 81 % 17.42 C
2718 23-08-2018 10:25:00 20.9 C 81 % 17.52 C
2719 23-08-2018 10:30:00 21.1 C 80 % 17.51 C
2720 23-08-2018 10:35:00 21.3 C 80 % 17.71 C
2721 23-08-2018 10:40:00 21.4 C 80 % 17.81 C
2722 23-08-2018 10:45:00 21.6 C 79 % 17.8 C
2723 23-08-2018 10:50:00 21.7 C 79 % 17.9 C
2724 23-08-2018 10:55:00 21.9 C 78 % 17.89 C
2725 23-08-2018 11:00:00 22.2 C 78 % 18.18 C
Sensor: Nr:Datum:Temp:Feuchte:Taupunkt:
Aussen-T/F 2726 23-08-2018 11:05:00 22.3 C 77 % 18.07 C
2727 23-08-2018 11:10:00 22.6 C 75 % 17.94 C
2728 23-08-2018 11:15:00 22.9 C 74 % 18.02 C
2729 23-08-2018 11:20:00 23.1 C 72 % 17.78 C
2730 23-08-2018 11:25:00 23.4 C 71 % 17.84 C
2731 23-08-2018 11:30:00 23.6 C 70 % 17.81 C
2732 23-08-2018 11:35:00 23.8 C 69 % 17.77 C
2733 23-08-2018 11:40:00 24.1 C 67 % 17.59 C
2734 23-08-2018 11:45:00 24.3 C 66 % 17.54 C
2735 23-08-2018 11:50:00 24.4 C 65 % 17.39 C
2736 23-08-2018 11:55:00 24.6 C 65 % 17.58 C
2737 23-08-2018 12:00:00 24.8 C 63 % 17.28 C
2738 23-08-2018 12:05:00 24.9 C 62 % 17.12 C
2739 23-08-2018 12:10:00 25.1 C 60 % 16.79 C
2740 23-08-2018 12:15:00 25.2 C 59 % 16.62 C
2741 23-08-2018 12:20:00 25.4 C 59 % 16.81 C
2742 23-08-2018 12:25:00 25.6 C 59 % 16.99 C
2743 23-08-2018 12:30:00 25.8 C 57 % 16.64 C
2744 23-08-2018 12:35:00 26 C 56 % 16.54 C
2745 23-08-2018 12:40:00 26.2 C 56 % 16.73 C
2746 23-08-2018 12:45:00 26.3 C 54 % 16.25 C
2747 23-08-2018 12:50:00 26.4 C 55 % 16.63 C
2748 23-08-2018 12:55:00 26.6 C 54 % 16.53 C
2749 23-08-2018 13:00:00 26.8 C 52 % 16.12 C
2750 23-08-2018 13:05:00 27.1 C 52 % 16.4 C
Sensor: Nr:Datum:Temp:Feuchte:Taupunkt:
Aussen-T/F 2751 23-08-2018 13:10:00 27.3 C 51 % 16.28 C
2752 23-08-2018 13:15:00 27.6 C 46 % 14.94 C
2753 23-08-2018 13:20:00 27.7 C 42 % 13.62 C
2754 23-08-2018 13:25:00 27.9 C 42 % 13.8 C
2755 23-08-2018 13:30:00 28.1 C 43 % 14.35 C
2756 23-08-2018 13:35:00 28.2 C 42 % 14.07 C
2757 23-08-2018 13:40:00 28.2 C 44 % 14.79 C
2758 23-08-2018 13:45:00 28.1 C 43 % 14.35 C
2759 23-08-2018 13:50:00 28.2 C 44 % 14.79 C
2760 23-08-2018 13:55:00 28.3 C 44 % 14.88 C
2761 23-08-2018 14:00:00 28.3 C 45 % 15.23 C
2762 23-08-2018 14:05:00 28.4 C 44 % 14.97 C
2763 23-08-2018 14:10:00 28.4 C 45 % 15.32 C
2764 23-08-2018 14:15:00 28.5 C 45 % 15.41 C
2765 23-08-2018 14:20:00 28.7 C 44 % 15.24 C
2766 23-08-2018 14:25:00 28.7 C 43 % 14.88 C
2767 23-08-2018 14:30:00 28.9 C 43 % 15.06 C
2768 23-08-2018 14:35:00 29.1 C 43 % 15.24 C
2769 23-08-2018 14:40:00 29.3 C 43 % 15.42 C
2770 23-08-2018 14:45:00 29.6 C 42 % 15.33 C
2771 23-08-2018 14:50:00 29.6 C 43 % 15.69 C
2772 23-08-2018 14:55:00 29.6 C 44 % 16.05 C
2773 23-08-2018 15:00:00 29.6 C 45 % 16.41 C
2774 23-08-2018 15:05:00 29.7 C 46 % 16.84 C
2775 23-08-2018 15:10:00 29.9 C 43 % 15.96 C
Sensor: Nr:Datum:Temp:Feuchte:Taupunkt:
Aussen-T/F 2776 23-08-2018 15:15:00 29.8 C 43 % 15.87 C
2777 23-08-2018 15:20:00 29.9 C 43 % 15.96 C
2778 23-08-2018 15:25:00 29.9 C 45 % 16.68 C
2779 23-08-2018 15:30:00 30 C 45 % 16.77 C
2780 23-08-2018 15:35:00 30.1 C 44 % 16.5 C
2781 23-08-2018 15:40:00 30.2 C 43 % 16.23 C
2782 23-08-2018 15:45:00 30.3 C 44 % 16.68 C
2783 23-08-2018 15:50:00 30.4 C 42 % 16.04 C
2784 23-08-2018 15:55:00 30.2 C 43 % 16.23 C
2785 23-08-2018 16:00:00 30.1 C 45 % 16.86 C
2786 23-08-2018 16:05:00 29.9 C 44 % 16.32 C
2787 23-08-2018 16:10:00 29.8 C 46 % 16.93 C
2788 23-08-2018 16:15:00 29.6 C 45 % 16.41 C
2789 23-08-2018 16:20:00 29.7 C 45 % 16.5 C
2790 23-08-2018 16:25:00 30.2 C 44 % 16.59 C
2791 23-08-2018 16:30:00 30.7 C 44 % 17.04 C
2792 23-08-2018 16:35:00 31.2 C 42 % 16.76 C
2793 23-08-2018 16:40:00 31.4 C 40 % 16.17 C
2794 23-08-2018 16:45:00 31.2 C 40 % 15.99 C
2795 23-08-2018 16:50:00 30.8 C 41 % 16.02 C
2796 23-08-2018 16:55:00 30.6 C 42 % 16.22 C
2797 23-08-2018 17:00:00 30.3 C 43 % 16.32 C
2798 23-08-2018 17:05:00 30.2 C 46 % 17.3 C
2799 23-08-2018 17:10:00 30.2 C 45 % 16.95 C
2800 23-08-2018 17:15:00 30.3 C 43 % 16.32 C
Sensor: Nr:Datum:Temp:Feuchte:Taupunkt:
Aussen-T/F 2801 23-08-2018 17:20:00 30.6 C 42 % 16.22 C
2802 23-08-2018 17:25:00 30.4 C 42 % 16.04 C
2803 23-08-2018 17:30:00 30.2 C 42 % 15.86 C
2804 23-08-2018 17:35:00 29.9 C 44 % 16.32 C
2805 23-08-2018 17:40:00 29.8 C 43 % 15.87 C
2806 23-08-2018 17:45:00 29.8 C 44 % 16.23 C
2807 23-08-2018 17:50:00 29.7 C 45 % 16.5 C
2808 23-08-2018 17:55:00 29.7 C 44 % 16.14 C
2809 23-08-2018 18:00:00 29.6 C 44 % 16.05 C
2810 23-08-2018 18:05:00 29.3 C 45 % 16.13 C
2811 23-08-2018 18:10:00 29.2 C 46 % 16.39 C
2812 23-08-2018 18:15:00 29.2 C 46 % 16.39 C
2813 23-08-2018 18:20:00 29.4 C 47 % 16.91 C
2814 23-08-2018 18:25:00 29.7 C 46 % 16.84 C
2815 23-08-2018 18:30:00 29.9 C 46 % 17.02 C
2816 23-08-2018 18:35:00 30 C 45 % 16.77 C
2817 23-08-2018 18:40:00 30.1 C 45 % 16.86 C
2818 23-08-2018 18:45:00 29.9 C 45 % 16.68 C
2819 23-08-2018 18:50:00 29.8 C 46 % 16.93 C
2820 23-08-2018 18:55:00 29.4 C 46 % 16.57 C
2821 23-08-2018 19:00:00 28.9 C 47 % 16.45 C
2822 23-08-2018 19:05:00 28.6 C 49 % 16.84 C
2823 23-08-2018 19:10:00 28.3 C 49 % 16.56 C
2824 23-08-2018 19:15:00 28.1 C 50 % 16.7 C
2825 23-08-2018 19:20:00 27.9 C 52 % 17.13 C
Sensor: Nr:Datum:Temp:Feuchte:Taupunkt:
Aussen-T/F 2826 23-08-2018 19:25:00 27.7 C 53 % 17.25 C
2827 23-08-2018 19:30:00 27.5 C 54 % 17.36 C
2828 23-08-2018 19:35:00 27.3 C 54 % 17.18 C
2829 23-08-2018 19:40:00 27.2 C 54 % 17.08 C
2830 23-08-2018 19:45:00 27.1 C 55 % 17.28 C
2831 23-08-2018 19:50:00 27 C 57 % 17.75 C
2832 23-08-2018 19:55:00 26.9 C 58 % 17.94 C
2833 23-08-2018 20:00:00 26.8 C 56 % 17.29 C
2834 23-08-2018 20:05:00 26.7 C 57 % 17.47 C
2835 23-08-2018 20:10:00 26.7 C 58 % 17.75 C
2836 23-08-2018 20:15:00 26.6 C 57 % 17.38 C
2837 23-08-2018 20:20:00 26.4 C 57 % 17.19 C
2838 23-08-2018 20:25:00 26 C 57 % 16.82 C
2839 23-08-2018 20:30:00 25.7 C 59 % 17.09 C
2840 23-08-2018 20:35:00 25.4 C 60 % 17.07 C
2841 23-08-2018 20:40:00 25.1 C 61 % 17.05 C
2842 23-08-2018 20:45:00 24.8 C 62 % 17.02 C
2843 23-08-2018 20:50:00 24.7 C 62 % 16.93 C
2844 23-08-2018 20:55:00 24.6 C 63 % 17.09 C
2845 23-08-2018 21:00:00 24.3 C 64 % 17.05 C
2846 23-08-2018 21:05:00 24.1 C 65 % 17.11 C
2847 23-08-2018 21:10:00 23.8 C 66 % 17.07 C
2848 23-08-2018 21:15:00 23.6 C 68 % 17.35 C
2849 23-08-2018 21:20:00 23.4 C 69 % 17.39 C
2850 23-08-2018 21:25:00 23.3 C 69 % 17.29 C
Sensor: Nr:Datum:Temp:Feuchte:Taupunkt:
Aussen-T/F 2851 23-08-2018 21:30:00 23.2 C 70 % 17.42 C
2852 23-08-2018 21:35:00 23.1 C 71 % 17.55 C
2853 23-08-2018 21:40:00 22.9 C 71 % 17.36 C
2854 23-08-2018 21:45:00 22.8 C 72 % 17.49 C
2855 23-08-2018 21:50:00 22.7 C 72 % 17.39 C
2856 23-08-2018 21:55:00 22.7 C 72 % 17.39 C
2857 23-08-2018 22:00:00 22.8 C 72 % 17.49 C
2858 23-08-2018 22:05:00 22.9 C 72 % 17.58 C
2859 23-08-2018 22:10:00 23 C 72 % 17.68 C
2860 23-08-2018 22:15:00 22.9 C 72 % 17.58 C
2861 23-08-2018 22:20:00 22.9 C 72 % 17.58 C
2862 23-08-2018 22:25:00 22.9 C 72 % 17.58 C
2863 23-08-2018 22:30:00 22.8 C 72 % 17.49 C
2864 23-08-2018 22:35:00 22.8 C 72 % 17.49 C
2865 23-08-2018 22:40:00 22.7 C 72 % 17.39 C
2866 23-08-2018 22:45:00 22.6 C 73 % 17.51 C
2867 23-08-2018 22:50:00 22.4 C 73 % 17.32 C
2868 23-08-2018 22:55:00 22.2 C 73 % 17.13 C
2869 23-08-2018 23:00:00 21.9 C 74 % 17.06 C
2870 23-08-2018 23:05:00 21.7 C 75 % 17.07 C
2871 23-08-2018 23:10:00 21.6 C 75 % 16.98 C
2872 23-08-2018 23:15:00 21.6 C 75 % 16.98 C
2873 23-08-2018 23:20:00 21.6 C 75 % 16.98 C
2874 23-08-2018 23:25:00 21.5 C 76 % 17.09 C
2875 23-08-2018 23:30:00 21.3 C 76 % 16.9 C
Sensor: Nr:Datum:Temp:Feuchte:Taupunkt:
Aussen-T/F 2876 23-08-2018 23:35:00 21.2 C 76 % 16.8 C
2877 23-08-2018 23:40:00 21.1 C 77 % 16.91 C
2878 23-08-2018 23:45:00 21 C 77 % 16.81 C
2879 23-08-2018 23:50:00 20.9 C 77 % 16.72 C
2880 23-08-2018 23:55:00 20.8 C 78 % 16.82 C
2881 24-08-2018 00:00:00 20.7 C 78 % 16.73 C
2882 24-08-2018 00:05:00 20.5 C 78 % 16.53 C
2883 24-08-2018 00:10:00 20.4 C 79 % 16.64 C
2884 24-08-2018 00:15:00 20.5 C 78 % 16.53 C
2885 24-08-2018 00:20:00 20.7 C 78 % 16.73 C
2886 24-08-2018 00:25:00 20.7 C 78 % 16.73 C
2887 24-08-2018 00:30:00 20.8 C 77 % 16.62 C
2888 24-08-2018 00:35:00 20.9 C 76 % 16.51 C
2889 24-08-2018 00:40:00 21.1 C 76 % 16.7 C
2890 24-08-2018 00:45:00 21.2 C 75 % 16.59 C
2891 24-08-2018 00:50:00 21.2 C 75 % 16.59 C
2892 24-08-2018 00:55:00 21.2 C 75 % 16.59 C
2893 24-08-2018 01:00:00 21.3 C 74 % 16.48 C
2894 24-08-2018 01:05:00 21.3 C 75 % 16.69 C
2895 24-08-2018 01:10:00 21.3 C 75 % 16.69 C
2896 24-08-2018 01:15:00 21.3 C 75 % 16.69 C
2897 24-08-2018 01:20:00 21.2 C 75 % 16.59 C
2898 24-08-2018 01:25:00 21.2 C 76 % 16.8 C
2899 24-08-2018 01:30:00 21.1 C 76 % 16.7 C
2900 24-08-2018 01:35:00 21.1 C 76 % 16.7 C
Sensor: Nr:Datum:Temp:Feuchte:Taupunkt:
Aussen-T/F 2901 24-08-2018 01:40:00 21 C 76 % 16.61 C
2902 24-08-2018 01:45:00 20.9 C 76 % 16.51 C
2903 24-08-2018 01:50:00 20.8 C 76 % 16.41 C
2904 24-08-2018 01:55:00 20.7 C 76 % 16.32 C
2905 24-08-2018 02:00:00 20.5 C 76 % 16.12 C
2906 24-08-2018 02:05:00 20.3 C 77 % 16.14 C
2907 24-08-2018 02:10:00 20.2 C 78 % 16.24 C
2908 24-08-2018 02:15:00 20.2 C 78 % 16.24 C
2909 24-08-2018 02:20:00 20.2 C 78 % 16.24 C
2910 24-08-2018 02:25:00 20.2 C 79 % 16.44 C
2911 24-08-2018 02:30:00 20.1 C 78 % 16.14 C
2912 24-08-2018 02:35:00 20.1 C 78 % 16.14 C
2913 24-08-2018 02:40:00 20 C 78 % 16.05 C
2914 24-08-2018 02:45:00 19.9 C 78 % 15.95 C
2915 24-08-2018 02:50:00 19.7 C 78 % 15.76 C
2916 24-08-2018 02:55:00 19.6 C 79 % 15.86 C
2917 24-08-2018 03:00:00 19.5 C 79 % 15.76 C
2918 24-08-2018 03:05:00 19.4 C 80 % 15.86 C
2919 24-08-2018 03:10:00 19.3 C 80 % 15.76 C
2920 24-08-2018 03:15:00 19.2 C 81 % 15.86 C
2921 24-08-2018 03:20:00 19.1 C 81 % 15.76 C
2922 24-08-2018 03:25:00 18.9 C 81 % 15.57 C
2923 24-08-2018 03:30:00 18.8 C 81 % 15.47 C
2924 24-08-2018 03:35:00 18.7 C 82 % 15.57 C
2925 24-08-2018 03:40:00 18.6 C 82 % 15.47 C
Sensor: Nr:Datum:Temp:Feuchte:Taupunkt:
Aussen-T/F 2926 24-08-2018 03:45:00 18.5 C 82 % 15.37 C
2927 24-08-2018 03:50:00 18.4 C 83 % 15.46 C
2928 24-08-2018 03:55:00 18.3 C 83 % 15.36 C
2929 24-08-2018 04:00:00 18.3 C 83 % 15.36 C
2930 24-08-2018 04:05:00 18.3 C 84 % 15.55 C
2931 24-08-2018 04:10:00 18.2 C 83 % 15.27 C
2932 24-08-2018 04:15:00 18.2 C 83 % 15.27 C
2933 24-08-2018 04:20:00 18.2 C 83 % 15.27 C
2934 24-08-2018 04:25:00 18.2 C 83 % 15.27 C
2935 24-08-2018 04:30:00 18.2 C 83 % 15.27 C
2936 24-08-2018 04:35:00 18.2 C 83 % 15.27 C
2937 24-08-2018 04:40:00 18.2 C 83 % 15.27 C
2938 24-08-2018 04:45:00 18.1 C 83 % 15.17 C
2939 24-08-2018 04:50:00 18.1 C 83 % 15.17 C
2940 24-08-2018 04:55:00 17.9 C 83 % 14.97 C
2941 24-08-2018 05:00:00 17.9 C 83 % 14.97 C
2942 24-08-2018 05:05:00 17.8 C 83 % 14.88 C
2943 24-08-2018 05:10:00 17.7 C 84 % 14.96 C
2944 24-08-2018 05:15:00 17.6 C 84 % 14.87 C
2945 24-08-2018 05:20:00 17.6 C 84 % 14.87 C
2946 24-08-2018 05:25:00 17.6 C 84 % 14.87 C
2947 24-08-2018 05:30:00 17.5 C 84 % 14.77 C
2948 24-08-2018 05:35:00 17.5 C 83 % 14.58 C
2949 24-08-2018 05:40:00 17.5 C 83 % 14.58 C
2950 24-08-2018 05:45:00 17.6 C 81 % 14.3 C
Sensor: Nr:Datum:Temp:Feuchte:Taupunkt:
Aussen-T/F 2951 24-08-2018 05:50:00 17.6 C 80 % 14.11 C
2952 24-08-2018 05:55:00 17.6 C 77 % 13.52 C
2953 24-08-2018 06:00:00 17.7 C 77 % 13.62 C
2954 24-08-2018 06:05:00 17.7 C 77 % 13.62 C
2955 24-08-2018 06:10:00 17.6 C 77 % 13.52 C
2956 24-08-2018 06:15:00 17.6 C 77 % 13.52 C
2957 24-08-2018 06:20:00 17.4 C 78 % 13.53 C
2958 24-08-2018 06:25:00 17.4 C 78 % 13.53 C
2959 24-08-2018 06:30:00 17.4 C 78 % 13.53 C
2960 24-08-2018 06:35:00 17.4 C 78 % 13.53 C
2961 24-08-2018 06:40:00 17.4 C 77 % 13.33 C
2962 24-08-2018 06:45:00 17.5 C 77 % 13.43 C
2963 24-08-2018 06:50:00 17.6 C 76 % 13.32 C
2964 24-08-2018 06:55:00 17.6 C 76 % 13.32 C
2965 24-08-2018 07:00:00 17.7 C 76 % 13.42 C
2966 24-08-2018 07:05:00 17.6 C 76 % 13.32 C
2967 24-08-2018 07:10:00 17.6 C 75 % 13.12 C
2968 24-08-2018 07:15:00 17.7 C 74 % 13.01 C
2969 24-08-2018 07:20:00 17.7 C 72 % 12.59 C
2970 24-08-2018 07:25:00 17.8 C 72 % 12.69 C
2971 24-08-2018 07:30:00 17.8 C 72 % 12.69 C
2972 24-08-2018 07:35:00 17.8 C 71 % 12.47 C
2973 24-08-2018 07:40:00 17.8 C 72 % 12.69 C
2974 24-08-2018 07:45:00 17.8 C 71 % 12.47 C
2975 24-08-2018 07:50:00 17.8 C 72 % 12.69 C
Sensor: Nr:Datum:Temp:Feuchte:Taupunkt:
Aussen-T/F 2976 24-08-2018 07:55:00 17.8 C 72 % 12.69 C
2977 24-08-2018 08:00:00 17.8 C 72 % 12.69 C
2978 24-08-2018 08:05:00 17.8 C 72 % 12.69 C
2979 24-08-2018 08:10:00 17.7 C 72 % 12.59 C
2980 24-08-2018 08:15:00 17.7 C 72 % 12.59 C
2981 24-08-2018 08:20:00 17.7 C 72 % 12.59 C
2982 24-08-2018 08:25:00 17.7 C 72 % 12.59 C
2983 24-08-2018 08:30:00 17.8 C 72 % 12.69 C
2984 24-08-2018 08:35:00 17.8 C 75 % 13.31 C
2985 24-08-2018 08:40:00 17.7 C 77 % 13.62 C
2986 24-08-2018 08:45:00 17.4 C 78 % 13.53 C
2987 24-08-2018 08:50:00 17.2 C 79 % 13.53 C
2988 24-08-2018 08:55:00 17.1 C 81 % 13.82 C
2989 24-08-2018 09:00:00 17 C 81 % 13.72 C
2990 24-08-2018 09:05:00 16.8 C 82 % 13.71 C
2991 24-08-2018 09:10:00 16.7 C 83 % 13.8 C
2992 24-08-2018 09:15:00 16.7 C 84 % 13.98 C
2993 24-08-2018 09:20:00 16.6 C 84 % 13.89 C
2994 24-08-2018 09:25:00 16.6 C 84 % 13.89 C
2995 24-08-2018 09:30:00 16.6 C 84 % 13.89 C
2996 24-08-2018 09:35:00 16.7 C 83 % 13.8 C
2997 24-08-2018 09:40:00 16.7 C 84 % 13.98 C
2998 24-08-2018 09:45:00 16.8 C 85 % 14.26 C
2999 24-08-2018 09:50:00 16.7 C 86 % 14.35 C
3000 24-08-2018 09:55:00 16.8 C 87 % 14.62 C
Sensor: Nr:Datum:Temp:Feuchte:Taupunkt:
Aussen-T/F 3001 24-08-2018 10:00:00 16.8 C 87 % 14.62 C
3002 24-08-2018 10:05:00 16.8 C 87 % 14.62 C
3003 24-08-2018 10:10:00 16.8 C 86 % 14.45 C
3004 24-08-2018 10:15:00 16.8 C 86 % 14.45 C
3005 24-08-2018 10:20:00 17 C 86 % 14.64 C
3006 24-08-2018 10:25:00 17.2 C 85 % 14.66 C
3007 24-08-2018 10:30:00 17.2 C 84 % 14.47 C
3008 24-08-2018 10:35:00 17.3 C 85 % 14.76 C
3009 24-08-2018 10:40:00 17.3 C 85 % 14.76 C
3010 24-08-2018 10:45:00 17.4 C 85 % 14.85 C
3011 24-08-2018 10:50:00 17.4 C 84 % 14.67 C
3012 24-08-2018 10:55:00 17.6 C 85 % 15.05 C
3013 24-08-2018 11:00:00 17.7 C 85 % 15.15 C
3014 24-08-2018 11:05:00 17.9 C 84 % 15.16 C
3015 24-08-2018 11:10:00 18 C 83 % 15.07 C
3016 24-08-2018 11:15:00 18.2 C 83 % 15.27 C
3017 24-08-2018 11:20:00 18.3 C 82 % 15.17 C
3018 24-08-2018 11:25:00 18.5 C 81 % 15.18 C
3019 24-08-2018 11:30:00 18.6 C 80 % 15.08 C
3020 24-08-2018 11:35:00 18.7 C 79 % 14.99 C
3021 24-08-2018 11:40:00 18.8 C 76 % 14.48 C
3022 24-08-2018 11:45:00 18.8 C 76 % 14.48 C
3023 24-08-2018 11:50:00 18.8 C 71 % 13.43 C
3024 24-08-2018 11:55:00 18.9 C 73 % 13.96 C
3025 24-08-2018 12:00:00 19.1 C 70 % 13.5 C
Sensor: Nr:Datum:Temp:Feuchte:Taupunkt:
Aussen-T/F 3026 24-08-2018 12:05:00 19.2 C 69 % 13.38 C
3027 24-08-2018 12:10:00 19.3 C 69 % 13.47 C
3028 24-08-2018 12:15:00 19.4 C 67 % 13.12 C
3029 24-08-2018 12:20:00 19.6 C 66 % 13.08 C
3030 24-08-2018 12:25:00 19.8 C 65 % 13.03 C
3031 24-08-2018 12:30:00 20 C 63 % 12.75 C
3032 24-08-2018 12:35:00 20.1 C 62 % 12.6 C
3033 24-08-2018 12:40:00 20.2 C 61 % 12.44 C
3034 24-08-2018 12:45:00 20.2 C 60 % 12.19 C
3035 24-08-2018 12:50:00 20.3 C 62 % 12.79 C
3036 24-08-2018 12:55:00 20.6 C 61 % 12.82 C
3037 24-08-2018 13:00:00 20.7 C 59 % 12.41 C
3038 24-08-2018 13:05:00 20.8 C 58 % 12.24 C
3039 24-08-2018 13:10:00 20.9 C 58 % 12.33 C
3040 24-08-2018 13:15:00 20.9 C 58 % 12.33 C
3041 24-08-2018 13:20:00 20.9 C 56 % 11.8 C
3042 24-08-2018 13:25:00 20.9 C 55 % 11.53 C
3043 24-08-2018 13:30:00 21 C 54 % 11.34 C
3044 24-08-2018 13:35:00 21.1 C 53 % 11.15 C
3045 24-08-2018 13:40:00 21.2 C 53 % 11.25 C
3046 24-08-2018 13:45:00 21.2 C 57 % 12.35 C
3047 24-08-2018 13:50:00 21.1 C 59 % 12.78 C
3048 24-08-2018 13:55:00 20.8 C 58 % 12.24 C
3049 24-08-2018 14:00:00 20.6 C 58 % 12.05 C
3050 24-08-2018 14:05:00 20.4 C 59 % 12.12 C
Sensor: Nr:Datum:Temp:Feuchte:Taupunkt:
Aussen-T/F 3051 24-08-2018 14:10:00 20.4 C 58 % 11.86 C
3052 24-08-2018 14:15:00 20.4 C 58 % 11.86 C
3053 24-08-2018 14:20:00 20.6 C 58 % 12.05 C
3054 24-08-2018 14:25:00 20.7 C 57 % 11.88 C
3055 24-08-2018 14:30:00 20.7 C 57 % 11.88 C
3056 24-08-2018 14:35:00 20.7 C 57 % 11.88 C
3057 24-08-2018 14:40:00 20.7 C 57 % 11.88 C
3058 24-08-2018 14:45:00 20.7 C 57 % 11.88 C
3059 24-08-2018 14:50:00 20.8 C 53 % 10.88 C
3060 24-08-2018 14:55:00 20.9 C 53 % 10.97 C
3061 24-08-2018 15:00:00 21.2 C 54 % 11.53 C
3062 24-08-2018 15:05:00 21.6 C 53 % 11.62 C
3063 24-08-2018 15:10:00 21.5 C 54 % 11.81 C
3064 24-08-2018 15:15:00 21.4 C 53 % 11.43 C
3065 24-08-2018 15:20:00 21.4 C 53 % 11.43 C
3066 24-08-2018 15:25:00 21.4 C 54 % 11.71 C
3067 24-08-2018 15:30:00 21.6 C 54 % 11.9 C
3068 24-08-2018 15:35:00 21.6 C 51 % 11.04 C
3069 24-08-2018 15:40:00 21.4 C 49 % 10.25 C
3070 24-08-2018 15:45:00 21.3 C 49 % 10.16 C
3071 24-08-2018 15:50:00 21.2 C 48 % 9.76 C
3072 24-08-2018 15:55:00 21.1 C 49 % 9.98 C
3073 24-08-2018 16:00:00 21 C 48 % 9.58 C
3074 24-08-2018 16:05:00 21 C 49 % 9.89 C
3075 24-08-2018 16:10:00 21 C 49 % 9.89 C
Sensor: Nr:Datum:Temp:Feuchte:Taupunkt:
Aussen-T/F 3076 24-08-2018 16:15:00 21 C 50 % 10.19 C
3077 24-08-2018 16:20:00 21.1 C 49 % 9.98 C
3078 24-08-2018 16:25:00 21.1 C 50 % 10.28 C
3079 24-08-2018 16:30:00 21.3 C 49 % 10.16 C
3080 24-08-2018 16:35:00 21.4 C 47 % 9.63 C
3081 24-08-2018 16:40:00 21.3 C 47 % 9.54 C
3082 24-08-2018 16:45:00 21.3 C 47 % 9.54 C
3083 24-08-2018 16:50:00 21.4 C 47 % 9.63 C
3084 24-08-2018 16:55:00 21.3 C 46 % 9.22 C
3085 24-08-2018 17:00:00 21.2 C 47 % 9.45 C
3086 24-08-2018 17:05:00 21.2 C 47 % 9.45 C
3087 24-08-2018 17:10:00 21.2 C 46 % 9.13 C
3088 24-08-2018 17:15:00 21.3 C 47 % 9.54 C
3089 24-08-2018 17:20:00 21.4 C 46 % 9.31 C
3090 24-08-2018 17:25:00 21.7 C 46 % 9.58 C
3091 24-08-2018 17:30:00 21.7 C 46 % 9.58 C
3092 24-08-2018 17:35:00 21.4 C 45 % 8.99 C
3093 24-08-2018 17:40:00 21.3 C 45 % 8.89 C
3094 24-08-2018 17:45:00 21.3 C 45 % 8.89 C
3095 24-08-2018 17:50:00 21.2 C 45 % 8.8 C
3096 24-08-2018 17:55:00 21.2 C 44 % 8.47 C
3097 24-08-2018 18:00:00 21.3 C 44 % 8.56 C
3098 24-08-2018 18:05:00 21.2 C 43 % 8.13 C
3099 24-08-2018 18:10:00 21.2 C 44 % 8.47 C
3100 24-08-2018 18:15:00 21.3 C 43 % 8.22 C
Sensor: Nr:Datum:Temp:Feuchte:Taupunkt:
Aussen-T/F 3101 24-08-2018 18:20:00 21.3 C 43 % 8.22 C
3102 24-08-2018 18:25:00 21.2 C 41 % 7.44 C
3103 24-08-2018 18:30:00 21.2 C 43 % 8.13 C
3104 24-08-2018 18:35:00 21.1 C 42 % 7.7 C
3105 24-08-2018 18:40:00 20.9 C 42 % 7.52 C
3106 24-08-2018 18:45:00 20.8 C 43 % 7.77 C
3107 24-08-2018 18:50:00 20.7 C 45 % 8.35 C
3108 24-08-2018 18:55:00 20.5 C 46 % 8.49 C
3109 24-08-2018 19:00:00 20.3 C 46 % 8.31 C
3110 24-08-2018 19:05:00 20.2 C 47 % 8.54 C
3111 24-08-2018 19:10:00 20.1 C 47 % 8.45 C
3112 24-08-2018 19:15:00 19.9 C 48 % 8.57 C
3113 24-08-2018 19:20:00 19.8 C 48 % 8.48 C
3114 24-08-2018 19:25:00 19.8 C 48 % 8.48 C
3115 24-08-2018 19:30:00 19.7 C 48 % 8.39 C
3116 24-08-2018 19:35:00 19.6 C 49 % 8.6 C
3117 24-08-2018 19:40:00 19.6 C 49 % 8.6 C
3118 24-08-2018 19:45:00 19.5 C 49 % 8.51 C
3119 24-08-2018 19:50:00 19.4 C 49 % 8.42 C
3120 24-08-2018 19:55:00 19.4 C 47 % 7.81 C
3121 24-08-2018 20:00:00 19.4 C 47 % 7.81 C
3122 24-08-2018 20:05:00 19.3 C 48 % 8.03 C
3123 24-08-2018 20:10:00 19.3 C 47 % 7.72 C
3124 24-08-2018 20:15:00 19.2 C 47 % 7.63 C
3125 24-08-2018 20:20:00 19.2 C 47 % 7.63 C
Sensor: Nr:Datum:Temp:Feuchte:Taupunkt:
Aussen-T/F 3126 24-08-2018 20:25:00 19.1 C 47 % 7.53 C
3127 24-08-2018 20:30:00 19.1 C 47 % 7.53 C
3128 24-08-2018 20:35:00 19 C 48 % 7.75 C
3129 24-08-2018 20:40:00 18.9 C 47 % 7.35 C
3130 24-08-2018 20:45:00 18.9 C 47 % 7.35 C
3131 24-08-2018 20:50:00 18.8 C 46 % 6.95 C
3132 24-08-2018 20:55:00 18.7 C 46 % 6.86 C
3133 24-08-2018 21:00:00 18.6 C 45 % 6.45 C
3134 24-08-2018 21:05:00 18.6 C 46 % 6.77 C
3135 24-08-2018 21:10:00 18.5 C 46 % 6.67 C
3136 24-08-2018 21:15:00 18.4 C 46 % 6.58 C
3137 24-08-2018 21:20:00 18.4 C 46 % 6.58 C
3138 24-08-2018 21:25:00 18.3 C 48 % 7.11 C
3139 24-08-2018 21:30:00 18.2 C 48 % 7.02 C
3140 24-08-2018 21:35:00 18.1 C 48 % 6.93 C
3141 24-08-2018 21:40:00 17.9 C 47 % 6.44 C
3142 24-08-2018 21:45:00 17.9 C 47 % 6.44 C
3143 24-08-2018 21:50:00 17.9 C 50 % 7.34 C
3144 24-08-2018 21:55:00 17.7 C 51 % 7.45 C
3145 24-08-2018 22:00:00 17.4 C 50 % 6.88 C
3146 24-08-2018 22:05:00 17.2 C 51 % 6.98 C
3147 24-08-2018 22:10:00 16.9 C 53 % 7.27 C
3148 24-08-2018 22:15:00 16.8 C 53 % 7.18 C
3149 24-08-2018 22:20:00 16.6 C 53 % 6.99 C
3150 24-08-2018 22:25:00 16.4 C 54 % 7.08 C
Sensor: Nr:Datum:Temp:Feuchte:Taupunkt:
Aussen-T/F 3151 24-08-2018 22:30:00 16.3 C 54 % 6.98 C
3152 24-08-2018 22:35:00 16.2 C 55 % 7.16 C
3153 24-08-2018 22:40:00 16 C 55 % 6.97 C
3154 24-08-2018 22:45:00 15.9 C 55 % 6.88 C
3155 24-08-2018 22:50:00 15.8 C 56 % 7.05 C
3156 24-08-2018 22:55:00 15.7 C 57 % 7.21 C
3157 24-08-2018 23:00:00 15.6 C 56 % 6.86 C
3158 24-08-2018 23:05:00 15.5 C 58 % 7.28 C
3159 24-08-2018 23:10:00 15.3 C 58 % 7.09 C
3160 24-08-2018 23:15:00 15.3 C 58 % 7.09 C
3161 24-08-2018 23:20:00 15.2 C 60 % 7.5 C
3162 24-08-2018 23:25:00 15.1 C 61 % 7.64 C
3163 24-08-2018 23:30:00 14.9 C 60 % 7.21 C
3164 24-08-2018 23:35:00 14.9 C 61 % 7.45 C
3165 24-08-2018 23:40:00 14.8 C 61 % 7.36 C
3166 24-08-2018 23:45:00 14.7 C 61 % 7.27 C
3167 24-08-2018 23:50:00 14.7 C 62 % 7.5 C
3168 24-08-2018 23:55:00 14.7 C 63 % 7.74 C
3169 25-08-2018 00:00:00 14.6 C 63 % 7.64 C
3170 25-08-2018 00:05:00 14.6 C 63 % 7.64 C
3171 25-08-2018 00:10:00 14.5 C 64 % 7.78 C
3172 25-08-2018 00:15:00 14.4 C 64 % 7.68 C
3173 25-08-2018 00:20:00 14.4 C 64 % 7.68 C
3174 25-08-2018 00:25:00 14.4 C 64 % 7.68 C
3175 25-08-2018 00:30:00 14.3 C 64 % 7.59 C
Sensor: Nr:Datum:Temp:Feuchte:Taupunkt:
Aussen-T/F 3176 25-08-2018 00:35:00 14.3 C 64 % 7.59 C
3177 25-08-2018 00:40:00 14.3 C 65 % 7.82 C
3178 25-08-2018 00:45:00 14.3 C 65 % 7.82 C
3179 25-08-2018 00:50:00 14.3 C 65 % 7.82 C
3180 25-08-2018 00:55:00 14.2 C 65 % 7.72 C
3181 25-08-2018 01:00:00 14.2 C 65 % 7.72 C
3182 25-08-2018 01:05:00 14.2 C 66 % 7.95 C
3183 25-08-2018 01:10:00 14.2 C 66 % 7.95 C
3184 25-08-2018 01:15:00 14.2 C 65 % 7.72 C
3185 25-08-2018 01:20:00 14.1 C 65 % 7.63 C
3186 25-08-2018 01:25:00 14.1 C 66 % 7.85 C
3187 25-08-2018 01:30:00 14.1 C 66 % 7.85 C
3188 25-08-2018 01:35:00 14.1 C 66 % 7.85 C
3189 25-08-2018 01:40:00 14.1 C 66 % 7.85 C
3190 25-08-2018 01:45:00 14.1 C 66 % 7.85 C
3191 25-08-2018 01:50:00 14.2 C 67 % 8.17 C
3192 25-08-2018 01:55:00 14.2 C 66 % 7.95 C
3193 25-08-2018 02:00:00 14.2 C 66 % 7.95 C
3194 25-08-2018 02:05:00 14.2 C 67 % 8.17 C
3195 25-08-2018 02:10:00 14.2 C 67 % 8.17 C
3196 25-08-2018 02:15:00 14.2 C 67 % 8.17 C
3197 25-08-2018 02:20:00 14.3 C 68 % 8.48 C
3198 25-08-2018 02:25:00 14.3 C 66 % 8.04 C
3199 25-08-2018 02:30:00 14.3 C 65 % 7.82 C
3200 25-08-2018 02:35:00 14.4 C 65 % 7.91 C
Sensor: Nr:Datum:Temp:Feuchte:Taupunkt:
Aussen-T/F 3201 25-08-2018 02:40:00 14.6 C 65 % 8.1 C
3202 25-08-2018 02:45:00 14.8 C 64 % 8.06 C
3203 25-08-2018 02:50:00 14.9 C 64 % 8.16 C
3204 25-08-2018 02:55:00 15.1 C 64 % 8.35 C
3205 25-08-2018 03:00:00 15.1 C 64 % 8.35 C
3206 25-08-2018 03:05:00 15.1 C 64 % 8.35 C
3207 25-08-2018 03:10:00 15.1 C 65 % 8.58 C
3208 25-08-2018 03:15:00 15.1 C 65 % 8.58 C
3209 25-08-2018 03:20:00 15.1 C 66 % 8.8 C
3210 25-08-2018 03:25:00 14.9 C 67 % 8.83 C
3211 25-08-2018 03:30:00 14.8 C 67 % 8.74 C
3212 25-08-2018 03:35:00 14.7 C 68 % 8.86 C
3213 25-08-2018 03:40:00 14.6 C 69 % 8.98 C
3214 25-08-2018 03:45:00 14.5 C 69 % 8.89 C
3215 25-08-2018 03:50:00 14.3 C 69 % 8.7 C
3216 25-08-2018 03:55:00 14.2 C 69 % 8.6 C
3217 25-08-2018 04:00:00 14.1 C 70 % 8.72 C
3218 25-08-2018 04:05:00 13.9 C 71 % 8.73 C
3219 25-08-2018 04:10:00 13.8 C 70 % 8.43 C
3220 25-08-2018 04:15:00 13.8 C 72 % 8.85 C
3221 25-08-2018 04:20:00 13.7 C 72 % 8.75 C
3222 25-08-2018 04:25:00 13.7 C 73 % 8.95 C
3223 25-08-2018 04:30:00 13.7 C 73 % 8.95 C
3224 25-08-2018 04:35:00 13.7 C 74 % 9.15 C
3225 25-08-2018 04:40:00 13.7 C 74 % 9.15 C
Sensor: Nr:Datum:Temp:Feuchte:Taupunkt:
Aussen-T/F 3226 25-08-2018 04:45:00 13.6 C 74 % 9.06 C
3227 25-08-2018 04:50:00 13.6 C 74 % 9.06 C
3228 25-08-2018 04:55:00 13.6 C 74 % 9.06 C
3229 25-08-2018 05:00:00 13.6 C 74 % 9.06 C
3230 25-08-2018 05:05:00 13.6 C 74 % 9.06 C
3231 25-08-2018 05:10:00 13.7 C 75 % 9.35 C
3232 25-08-2018 05:15:00 13.7 C 74 % 9.15 C
3233 25-08-2018 05:20:00 13.8 C 74 % 9.25 C
3234 25-08-2018 05:25:00 13.9 C 74 % 9.35 C
3235 25-08-2018 05:30:00 13.9 C 73 % 9.15 C
3236 25-08-2018 05:35:00 14 C 74 % 9.44 C
3237 25-08-2018 05:40:00 14 C 74 % 9.44 C
3238 25-08-2018 05:45:00 14 C 74 % 9.44 C
3239 25-08-2018 05:50:00 14.1 C 73 % 9.34 C
3240 25-08-2018 05:55:00 14.1 C 73 % 9.34 C
3241 25-08-2018 06:00:00 14.2 C 73 % 9.43 C
3242 25-08-2018 06:05:00 14.2 C 73 % 9.43 C
3243 25-08-2018 06:10:00 14.3 C 73 % 9.53 C
3244 25-08-2018 06:15:00 14.3 C 73 % 9.53 C
3245 25-08-2018 06:20:00 14.3 C 72 % 9.33 C
3246 25-08-2018 06:25:00 14.4 C 72 % 9.42 C
3247 25-08-2018 06:30:00 14.4 C 74 % 9.83 C
3248 25-08-2018 06:35:00 14.4 C 76 % 10.23 C
3249 25-08-2018 06:40:00 14.3 C 76 % 10.13 C
3250 25-08-2018 06:45:00 14.2 C 76 % 10.03 C
Sensor: Nr:Datum:Temp:Feuchte:Taupunkt:
Aussen-T/F 3251 25-08-2018 06:50:00 14.1 C 76 % 9.94 C
3252 25-08-2018 06:55:00 14 C 76 % 9.84 C
3253 25-08-2018 07:00:00 13.9 C 77 % 9.94 C
3254 25-08-2018 07:05:00 13.9 C 77 % 9.94 C
3255 25-08-2018 07:10:00 13.9 C 76 % 9.74 C
3256 25-08-2018 07:15:00 13.9 C 76 % 9.74 C
3257 25-08-2018 07:20:00 13.9 C 76 % 9.74 C
3258 25-08-2018 07:25:00 14 C 76 % 9.84 C
3259 25-08-2018 07:30:00 14.1 C 77 % 10.13 C
3260 25-08-2018 07:35:00 14.1 C 80 % 10.71 C
3261 25-08-2018 07:40:00 14 C 81 % 10.79 C
3262 25-08-2018 07:45:00 13.8 C 82 % 10.78 C
3263 25-08-2018 07:50:00 13.6 C 83 % 10.77 C
3264 25-08-2018 07:55:00 13.4 C 84 % 10.75 C
3265 25-08-2018 08:00:00 13.3 C 85 % 10.83 C
3266 25-08-2018 08:05:00 13.3 C 86 % 11.01 C
3267 25-08-2018 08:10:00 13.2 C 86 % 10.91 C
3268 25-08-2018 08:15:00 13.2 C 85 % 10.74 C
3269 25-08-2018 08:20:00 13.1 C 85 % 10.64 C
3270 25-08-2018 08:25:00 13.2 C 85 % 10.74 C
3271 25-08-2018 08:30:00 13.2 C 85 % 10.74 C
3272 25-08-2018 08:35:00 13.3 C 85 % 10.83 C
3273 25-08-2018 08:40:00 13.3 C 85 % 10.83 C
3274 25-08-2018 08:45:00 13.4 C 85 % 10.93 C
3275 25-08-2018 08:50:00 13.4 C 85 % 10.93 C
Sensor: Nr:Datum:Temp:Feuchte:Taupunkt:
Aussen-T/F 3276 25-08-2018 08:55:00 13.4 C 84 % 10.75 C
3277 25-08-2018 09:00:00 13.6 C 84 % 10.95 C
3278 25-08-2018 09:05:00 13.6 C 85 % 11.13 C
3279 25-08-2018 09:10:00 13.6 C 85 % 11.13 C
3280 25-08-2018 09:15:00 13.6 C 86 % 11.3 C
3281 25-08-2018 09:20:00 13.6 C 87 % 11.48 C
3282 25-08-2018 09:25:00 13.5 C 87 % 11.38 C
3283 25-08-2018 09:30:00 13.4 C 87 % 11.28 C
3284 25-08-2018 09:35:00 13.4 C 87 % 11.28 C
3285 25-08-2018 09:40:00 13.4 C 87 % 11.28 C
3286 25-08-2018 09:45:00 13.4 C 88 % 11.45 C
3287 25-08-2018 09:50:00 13.5 C 88 % 11.55 C
3288 25-08-2018 09:55:00 13.5 C 88 % 11.55 C
3289 25-08-2018 10:00:00 13.6 C 88 % 11.65 C
3290 25-08-2018 10:05:00 13.6 C 87 % 11.48 C
3291 25-08-2018 10:10:00 13.7 C 86 % 11.4 C
3292 25-08-2018 10:15:00 13.7 C 84 % 11.05 C
3293 25-08-2018 10:20:00 13.7 C 82 % 10.69 C
3294 25-08-2018 10:25:00 13.7 C 81 % 10.5 C
3295 25-08-2018 10:30:00 13.8 C 80 % 10.41 C
3296 25-08-2018 10:35:00 13.9 C 79 % 10.32 C
3297 25-08-2018 10:40:00 13.9 C 77 % 9.94 C
3298 25-08-2018 10:45:00 13.9 C 74 % 9.35 C
3299 25-08-2018 10:50:00 13.9 C 74 % 9.35 C
3300 25-08-2018 10:55:00 14 C 72 % 9.04 C
Sensor: Nr:Datum:Temp:Feuchte:Taupunkt:
Aussen-T/F 3301 25-08-2018 11:00:00 14.2 C 73 % 9.43 C
3302 25-08-2018 11:05:00 14.3 C 71 % 9.12 C
3303 25-08-2018 11:10:00 14.3 C 71 % 9.12 C
3304 25-08-2018 11:15:00 14.4 C 70 % 9 C
3305 25-08-2018 11:20:00 14.6 C 70 % 9.2 C
3306 25-08-2018 11:25:00 14.9 C 70 % 9.48 C
3307 25-08-2018 11:30:00 15.1 C 69 % 9.46 C
3308 25-08-2018 11:35:00 15.2 C 68 % 9.34 C
3309 25-08-2018 11:40:00 15.2 C 68 % 9.34 C
3310 25-08-2018 11:45:00 15.2 C 67 % 9.12 C
3311 25-08-2018 11:50:00 15.2 C 66 % 8.9 C
3312 25-08-2018 11:55:00 15.3 C 66 % 8.99 C
3313 25-08-2018 12:00:00 15.4 C 66 % 9.09 C
3314 25-08-2018 12:05:00 15.4 C 67 % 9.31 C
3315 25-08-2018 12:10:00 15.4 C 66 % 9.09 C
3316 25-08-2018 12:15:00 15.7 C 64 % 8.92 C
3317 25-08-2018 12:20:00 15.8 C 62 % 8.54 C
3318 25-08-2018 12:25:00 16 C 60 % 8.25 C
3319 25-08-2018 12:30:00 16.2 C 60 % 8.43 C
3320 25-08-2018 12:35:00 16.4 C 60 % 8.62 C
3321 25-08-2018 12:40:00 16.4 C 59 % 8.38 C
3322 25-08-2018 12:45:00 16.5 C 59 % 8.47 C
3323 25-08-2018 12:50:00 16.6 C 58 % 8.31 C
3324 25-08-2018 12:55:00 16.7 C 58 % 8.4 C
3325 25-08-2018 13:00:00 16.7 C 57 % 8.15 C
Sensor: Nr:Datum:Temp:Feuchte:Taupunkt:
Aussen-T/F 3326 25-08-2018 13:05:00 16.7 C 57 % 8.15 C
3327 25-08-2018 13:10:00 16.7 C 58 % 8.4 C
3328 25-08-2018 13:15:00 16.8 C 57 % 8.24 C
3329 25-08-2018 13:20:00 16.8 C 56 % 7.98 C
3330 25-08-2018 13:25:00 16.8 C 56 % 7.98 C
3331 25-08-2018 13:30:00 16.9 C 55 % 7.81 C
3332 25-08-2018 13:35:00 16.8 C 55 % 7.72 C
3333 25-08-2018 13:40:00 16.8 C 56 % 7.98 C
3334 25-08-2018 13:45:00 16.8 C 55 % 7.72 C
3335 25-08-2018 13:50:00 16.7 C 55 % 7.62 C
3336 25-08-2018 13:55:00 16.7 C 56 % 7.89 C
3337 25-08-2018 14:00:00 16.7 C 58 % 8.4 C
3338 25-08-2018 14:05:00 16.8 C 57 % 8.24 C
3339 25-08-2018 14:10:00 17 C 57 % 8.43 C
3340 25-08-2018 14:15:00 16.8 C 57 % 8.24 C
3341 25-08-2018 14:20:00 16.7 C 58 % 8.4 C
3342 25-08-2018 14:25:00 16.6 C 59 % 8.56 C
3343 25-08-2018 14:30:00 16.6 C 58 % 8.31 C
3344 25-08-2018 14:35:00 16.7 C 59 % 8.66 C
3345 25-08-2018 14:40:00 16.8 C 56 % 7.98 C
3346 25-08-2018 14:45:00 16.9 C 58 % 8.59 C
3347 25-08-2018 14:50:00 17.1 C 56 % 8.26 C
3348 25-08-2018 14:55:00 17.2 C 57 % 8.62 C
3349 25-08-2018 15:00:00 17.4 C 55 % 8.28 C
3350 25-08-2018 15:05:00 17.7 C 54 % 8.28 C
Sensor: Nr:Datum:Temp:Feuchte:Taupunkt:
Aussen-T/F 3351 25-08-2018 15:10:00 17.8 C 52 % 7.82 C
3352 25-08-2018 15:15:00 17.8 C 52 % 7.82 C
3353 25-08-2018 15:20:00 17.7 C 52 % 7.73 C
3354 25-08-2018 15:25:00 17.6 C 54 % 8.19 C
3355 25-08-2018 15:30:00 17.6 C 53 % 7.92 C
3356 25-08-2018 15:35:00 17.6 C 52 % 7.64 C
3357 25-08-2018 15:40:00 17.7 C 53 % 8.01 C
3358 25-08-2018 15:45:00 17.8 C 53 % 8.1 C
3359 25-08-2018 15:50:00 17.9 C 53 % 8.19 C
3360 25-08-2018 15:55:00 18.1 C 52 % 8.1 C
3361 25-08-2018 16:00:00 17.9 C 50 % 7.34 C
3362 25-08-2018 16:05:00 17.8 C 50 % 7.25 C
3363 25-08-2018 16:10:00 17.8 C 50 % 7.25 C
3364 25-08-2018 16:15:00 17.8 C 51 % 7.54 C
3365 25-08-2018 16:20:00 17.9 C 51 % 7.63 C
3366 25-08-2018 16:25:00 18.1 C 52 % 8.1 C
3367 25-08-2018 16:30:00 18.1 C 50 % 7.52 C
3368 25-08-2018 16:35:00 18.2 C 50 % 7.62 C
3369 25-08-2018 16:40:00 18.1 C 50 % 7.52 C
3370 25-08-2018 16:45:00 18 C 50 % 7.43 C
3371 25-08-2018 16:50:00 17.9 C 49 % 7.05 C
3372 25-08-2018 16:55:00 17.9 C 48 % 6.75 C
3373 25-08-2018 17:00:00 17.8 C 48 % 6.65 C
3374 25-08-2018 17:05:00 17.8 C 48 % 6.65 C
3375 25-08-2018 17:10:00 17.9 C 51 % 7.63 C
Sensor: Nr:Datum:Temp:Feuchte:Taupunkt:
Aussen-T/F 3376 25-08-2018 17:15:00 18 C 50 % 7.43 C
3377 25-08-2018 17:20:00 18.1 C 49 % 7.23 C
3378 25-08-2018 17:25:00 18.1 C 49 % 7.23 C
3379 25-08-2018 17:30:00 18.2 C 50 % 7.62 C
3380 25-08-2018 17:35:00 18.2 C 52 % 8.19 C
3381 25-08-2018 17:40:00 18.2 C 51 % 7.91 C
3382 25-08-2018 17:45:00 18.3 C 51 % 8 C
3383 25-08-2018 17:50:00 18.2 C 50 % 7.62 C
3384 25-08-2018 17:55:00 18.1 C 52 % 8.1 C
3385 25-08-2018 18:00:00 17.9 C 52 % 7.91 C
3386 25-08-2018 18:05:00 17.9 C 52 % 7.91 C
3387 25-08-2018 18:10:00 17.8 C 52 % 7.82 C
3388 25-08-2018 18:15:00 17.6 C 56 % 8.73 C
3389 25-08-2018 18:20:00 16.9 C 59 % 8.84 C
3390 25-08-2018 18:25:00 16.4 C 64 % 9.58 C
3391 25-08-2018 18:30:00 15.8 C 68 % 9.91 C
3392 25-08-2018 18:35:00 15.3 C 70 % 9.87 C
3393 25-08-2018 18:40:00 14.8 C 71 % 9.6 C
3394 25-08-2018 18:45:00 14.6 C 72 % 9.61 C
3395 25-08-2018 18:50:00 14.5 C 74 % 9.93 C
3396 25-08-2018 18:55:00 14.4 C 74 % 9.83 C
3397 25-08-2018 19:00:00 14.3 C 73 % 9.53 C
3398 25-08-2018 19:05:00 14.3 C 74 % 9.73 C
3399 25-08-2018 19:10:00 14.3 C 74 % 9.73 C
3400 25-08-2018 19:15:00 14.4 C 74 % 9.83 C
Sensor: Nr:Datum:Temp:Feuchte:Taupunkt:
Aussen-T/F 3401 25-08-2018 19:20:00 14.4 C 73 % 9.63 C
3402 25-08-2018 19:25:00 14.4 C 73 % 9.63 C
3403 25-08-2018 19:30:00 14.5 C 73 % 9.72 C
3404 25-08-2018 19:35:00 14.4 C 73 % 9.63 C
3405 25-08-2018 19:40:00 14.4 C 73 % 9.63 C
3406 25-08-2018 19:45:00 14.4 C 73 % 9.63 C
3407 25-08-2018 19:50:00 14.3 C 74 % 9.73 C
3408 25-08-2018 19:55:00 14.3 C 75 % 9.93 C
3409 25-08-2018 20:00:00 14.1 C 75 % 9.74 C
3410 25-08-2018 20:05:00 13.9 C 75 % 9.55 C
3411 25-08-2018 20:10:00 13.8 C 76 % 9.65 C
3412 25-08-2018 20:15:00 13.6 C 76 % 9.45 C
3413 25-08-2018 20:20:00 13.3 C 77 % 9.36 C
3414 25-08-2018 20:25:00 13.2 C 77 % 9.26 C
3415 25-08-2018 20:30:00 13 C 78 % 9.26 C
3416 25-08-2018 20:35:00 12.8 C 78 % 9.06 C
3417 25-08-2018 20:40:00 12.6 C 79 % 9.06 C
3418 25-08-2018 20:45:00 12.5 C 79 % 8.96 C
3419 25-08-2018 20:50:00 12.4 C 80 % 9.05 C
3420 25-08-2018 20:55:00 12.3 C 80 % 8.95 C
3421 25-08-2018 21:00:00 12.2 C 80 % 8.86 C
3422 25-08-2018 21:05:00 12.2 C 80 % 8.86 C
3423 25-08-2018 21:10:00 12.1 C 81 % 8.94 C
3424 25-08-2018 21:15:00 12 C 81 % 8.84 C
3425 25-08-2018 21:20:00 11.9 C 81 % 8.75 C
Sensor: Nr:Datum:Temp:Feuchte:Taupunkt:
Aussen-T/F 3426 25-08-2018 21:25:00 11.8 C 82 % 8.83 C
3427 25-08-2018 21:30:00 11.7 C 82 % 8.73 C
3428 25-08-2018 21:35:00 11.6 C 82 % 8.64 C
3429 25-08-2018 21:40:00 11.4 C 82 % 8.44 C
3430 25-08-2018 21:45:00 11.3 C 82 % 8.34 C
3431 25-08-2018 21:50:00 11.2 C 82 % 8.25 C
3432 25-08-2018 21:55:00 11.2 C 83 % 8.42 C
3433 25-08-2018 22:00:00 11.1 C 83 % 8.33 C
3434 25-08-2018 22:05:00 10.9 C 83 % 8.13 C
3435 25-08-2018 22:10:00 10.9 C 83 % 8.13 C
3436 25-08-2018 22:15:00 10.8 C 83 % 8.03 C
3437 25-08-2018 22:20:00 10.7 C 83 % 7.93 C
3438 25-08-2018 22:25:00 10.6 C 84 % 8.01 C
3439 25-08-2018 22:30:00 10.5 C 84 % 7.91 C
3440 25-08-2018 22:35:00 10.4 C 84 % 7.82 C
3441 25-08-2018 22:40:00 10.4 C 85 % 7.99 C
3442 25-08-2018 22:45:00 10.3 C 85 % 7.89 C
3443 25-08-2018 22:50:00 10.3 C 85 % 7.89 C
3444 25-08-2018 22:55:00 10.3 C 85 % 7.89 C
3445 25-08-2018 23:00:00 10.3 C 85 % 7.89 C
3446 25-08-2018 23:05:00 10.3 C 85 % 7.89 C
3447 25-08-2018 23:10:00 10.3 C 85 % 7.89 C
3448 25-08-2018 23:15:00 10.3 C 85 % 7.89 C
3449 25-08-2018 23:20:00 10.3 C 85 % 7.89 C
3450 25-08-2018 23:25:00 10.3 C 85 % 7.89 C
Sensor: Nr:Datum:Temp:Feuchte:Taupunkt:
Aussen-T/F 3451 25-08-2018 23:30:00 10.4 C 85 % 7.99 C
3452 25-08-2018 23:35:00 10.4 C 85 % 7.99 C
3453 25-08-2018 23:40:00 10.4 C 85 % 7.99 C
3454 25-08-2018 23:45:00 10.3 C 85 % 7.89 C
3455 25-08-2018 23:50:00 10.3 C 85 % 7.89 C
3456 25-08-2018 23:55:00 10.3 C 85 % 7.89 C
3457 26-08-2018 00:00:00 10.3 C 85 % 7.89 C
3458 26-08-2018 00:05:00 10.3 C 85 % 7.89 C
3459 26-08-2018 00:10:00 10.2 C 85 % 7.79 C
3460 26-08-2018 00:15:00 10.2 C 85 % 7.79 C
3461 26-08-2018 00:20:00 10.1 C 85 % 7.7 C
3462 26-08-2018 00:25:00 10.1 C 85 % 7.7 C
3463 26-08-2018 00:30:00 10 C 86 % 7.77 C
3464 26-08-2018 00:35:00 9.9 C 86 % 7.67 C
3465 26-08-2018 00:40:00 9.9 C 85 % 7.5 C
3466 26-08-2018 00:45:00 9.8 C 86 % 7.57 C
3467 26-08-2018 00:50:00 9.7 C 86 % 7.47 C
3468 26-08-2018 00:55:00 9.6 C 86 % 7.38 C
3469 26-08-2018 01:00:00 9.4 C 86 % 7.18 C
3470 26-08-2018 01:05:00 9.3 C 86 % 7.08 C
3471 26-08-2018 01:10:00 9.3 C 87 % 7.25 C
3472 26-08-2018 01:15:00 9.3 C 87 % 7.25 C
3473 26-08-2018 01:20:00 9.2 C 87 % 7.15 C
3474 26-08-2018 01:25:00 9.2 C 87 % 7.15 C
3475 26-08-2018 01:30:00 9.1 C 87 % 7.05 C
Sensor: Nr:Datum:Temp:Feuchte:Taupunkt:
Aussen-T/F 3476 26-08-2018 01:35:00 9.1 C 88 % 7.22 C
3477 26-08-2018 01:40:00 9.1 C 88 % 7.22 C
3478 26-08-2018 01:45:00 8.9 C 88 % 7.02 C
3479 26-08-2018 01:50:00 8.9 C 88 % 7.02 C
3480 26-08-2018 01:55:00 8.9 C 89 % 7.19 C
3481 26-08-2018 02:00:00 8.8 C 89 % 7.09 C
3482 26-08-2018 02:05:00 8.8 C 89 % 7.09 C
3483 26-08-2018 02:10:00 8.7 C 89 % 6.99 C
3484 26-08-2018 02:15:00 8.7 C 89 % 6.99 C
3485 26-08-2018 02:20:00 8.7 C 90 % 7.15 C
3486 26-08-2018 02:25:00 8.7 C 90 % 7.15 C
3487 26-08-2018 02:30:00 8.7 C 90 % 7.15 C
3488 26-08-2018 02:35:00 8.7 C 90 % 7.15 C
3489 26-08-2018 02:40:00 8.7 C 90 % 7.15 C
3490 26-08-2018 02:45:00 8.8 C 91 % 7.41 C
3491 26-08-2018 02:50:00 8.8 C 91 % 7.41 C
3492 26-08-2018 02:55:00 8.8 C 90 % 7.25 C
3493 26-08-2018 03:00:00 8.7 C 90 % 7.15 C
3494 26-08-2018 03:05:00 8.7 C 90 % 7.15 C
3495 26-08-2018 03:10:00 8.6 C 90 % 7.06 C
3496 26-08-2018 03:15:00 8.4 C 90 % 6.86 C
3497 26-08-2018 03:20:00 8.4 C 90 % 6.86 C
3498 26-08-2018 03:25:00 8.3 C 90 % 6.76 C
3499 26-08-2018 03:30:00 8.3 C 90 % 6.76 C
3500 26-08-2018 03:35:00 8.3 C 90 % 6.76 C
Sensor: Nr:Datum:Temp:Feuchte:Taupunkt:
Aussen-T/F 3501 26-08-2018 03:40:00 8.2 C 90 % 6.66 C
3502 26-08-2018 03:45:00 8.1 C 91 % 6.72 C
3503 26-08-2018 03:50:00 8.1 C 91 % 6.72 C
3504 26-08-2018 03:55:00 8.1 C 91 % 6.72 C
3505 26-08-2018 04:00:00 8.1 C 91 % 6.72 C
3506 26-08-2018 04:05:00 8.1 C 91 % 6.72 C
3507 26-08-2018 04:10:00 8.1 C 91 % 6.72 C
3508 26-08-2018 04:15:00 8 C 91 % 6.62 C
3509 26-08-2018 04:20:00 8 C 91 % 6.62 C
3510 26-08-2018 04:25:00 8 C 91 % 6.62 C
3511 26-08-2018 04:30:00 7.9 C 91 % 6.52 C
3512 26-08-2018 04:35:00 7.9 C 92 % 6.68 C
3513 26-08-2018 04:40:00 7.9 C 92 % 6.68 C
3514 26-08-2018 04:45:00 7.9 C 92 % 6.68 C
3515 26-08-2018 04:50:00 7.9 C 92 % 6.68 C
3516 26-08-2018 04:55:00 7.9 C 92 % 6.68 C
3517 26-08-2018 05:00:00 7.9 C 92 % 6.68 C
3518 26-08-2018 05:05:00 7.8 C 91 % 6.43 C
3519 26-08-2018 05:10:00 7.8 C 91 % 6.43 C
3520 26-08-2018 05:15:00 7.7 C 91 % 6.33 C
3521 26-08-2018 05:20:00 7.7 C 91 % 6.33 C
3522 26-08-2018 05:25:00 7.6 C 91 % 6.23 C
3523 26-08-2018 05:30:00 7.5 C 91 % 6.13 C
3524 26-08-2018 05:35:00 7.4 C 91 % 6.03 C
3525 26-08-2018 05:40:00 7.4 C 91 % 6.03 C
Sensor: Nr:Datum:Temp:Feuchte:Taupunkt:
Aussen-T/F 3526 26-08-2018 05:45:00 7.3 C 91 % 5.93 C
3527 26-08-2018 05:50:00 7.2 C 92 % 5.99 C
3528 26-08-2018 05:55:00 7.2 C 91 % 5.83 C
3529 26-08-2018 06:00:00 7.1 C 91 % 5.73 C
3530 26-08-2018 06:05:00 7.1 C 92 % 5.89 C
3531 26-08-2018 06:10:00 7.1 C 92 % 5.89 C
3532 26-08-2018 06:15:00 7 C 92 % 5.79 C
3533 26-08-2018 06:20:00 6.9 C 92 % 5.69 C
3534 26-08-2018 06:25:00 6.9 C 92 % 5.69 C
3535 26-08-2018 06:30:00 6.9 C 92 % 5.69 C
3536 26-08-2018 06:35:00 6.9 C 92 % 5.69 C
3537 26-08-2018 06:40:00 6.8 C 92 % 5.59 C
3538 26-08-2018 06:45:00 6.8 C 92 % 5.59 C
3539 26-08-2018 06:50:00 6.8 C 92 % 5.59 C
3540 26-08-2018 06:55:00 6.8 C 92 % 5.59 C
3541 26-08-2018 07:00:00 6.8 C 92 % 5.59 C
3542 26-08-2018 07:05:00 6.8 C 92 % 5.59 C
3543 26-08-2018 07:10:00 6.8 C 92 % 5.59 C
3544 26-08-2018 07:15:00 6.9 C 92 % 5.69 C
3545 26-08-2018 07:20:00 6.9 C 93 % 5.85 C
3546 26-08-2018 07:25:00 7 C 93 % 5.95 C
3547 26-08-2018 07:30:00 7 C 93 % 5.95 C
3548 26-08-2018 07:35:00 7 C 93 % 5.95 C
3549 26-08-2018 07:40:00 7.1 C 93 % 6.05 C
3550 26-08-2018 07:45:00 7.2 C 93 % 6.15 C
Sensor: Nr:Datum:Temp:Feuchte:Taupunkt:
Aussen-T/F 3551 26-08-2018 07:50:00 7.3 C 93 % 6.25 C
3552 26-08-2018 07:55:00 7.3 C 93 % 6.25 C
3553 26-08-2018 08:00:00 7.4 C 93 % 6.34 C
3554 26-08-2018 08:05:00 7.6 C 93 % 6.54 C
3555 26-08-2018 08:10:00 7.7 C 93 % 6.64 C
3556 26-08-2018 08:15:00 7.7 C 93 % 6.64 C
3557 26-08-2018 08:20:00 7.8 C 93 % 6.74 C
3558 26-08-2018 08:25:00 7.8 C 93 % 6.74 C
3559 26-08-2018 08:30:00 7.8 C 93 % 6.74 C
3560 26-08-2018 08:35:00 7.9 C 93 % 6.84 C
3561 26-08-2018 08:40:00 8 C 93 % 6.94 C
3562 26-08-2018 08:45:00 8.1 C 93 % 7.04 C
3563 26-08-2018 08:50:00 8.2 C 93 % 7.14 C
3564 26-08-2018 08:55:00 8.3 C 93 % 7.24 C
3565 26-08-2018 09:00:00 8.4 C 93 % 7.34 C
3566 26-08-2018 09:05:00 8.5 C 93 % 7.43 C
3567 26-08-2018 09:10:00 8.6 C 93 % 7.53 C
3568 26-08-2018 09:15:00 8.7 C 93 % 7.63 C
3569 26-08-2018 09:20:00 8.8 C 93 % 7.73 C
3570 26-08-2018 09:25:00 8.9 C 93 % 7.83 C
3571 26-08-2018 09:30:00 9.1 C 93 % 8.03 C
3572 26-08-2018 09:35:00 9.2 C 93 % 8.13 C
3573 26-08-2018 09:40:00 9.3 C 93 % 8.23 C
3574 26-08-2018 09:45:00 9.4 C 93 % 8.33 C
3575 26-08-2018 09:50:00 9.6 C 93 % 8.53 C
Sensor: Nr:Datum:Temp:Feuchte:Taupunkt:
Aussen-T/F 3576 26-08-2018 09:55:00 9.8 C 93 % 8.72 C
3577 26-08-2018 10:00:00 9.9 C 93 % 8.82 C
3578 26-08-2018 10:05:00 10.1 C 92 % 8.86 C
3579 26-08-2018 10:10:00 10.3 C 92 % 9.06 C
3580 26-08-2018 10:15:00 10.6 C 92 % 9.36 C
3581 26-08-2018 10:20:00 10.8 C 91 % 9.39 C
3582 26-08-2018 10:25:00 11 C 90 % 9.42 C
3583 26-08-2018 10:30:00 11.2 C 90 % 9.62 C
3584 26-08-2018 10:35:00 11.5 C 89 % 9.75 C
3585 26-08-2018 10:40:00 11.8 C 87 % 9.71 C
3586 26-08-2018 10:45:00 12.1 C 86 % 9.83 C
3587 26-08-2018 10:50:00 12.3 C 86 % 10.03 C
3588 26-08-2018 10:55:00 12.5 C 84 % 9.87 C
3589 26-08-2018 11:00:00 12.8 C 84 % 10.17 C
3590 26-08-2018 11:05:00 12.9 C 84 % 10.26 C
3591 26-08-2018 11:10:00 13.2 C 81 % 10.01 C
3592 26-08-2018 11:15:00 13.4 C 79 % 9.84 C
3593 26-08-2018 11:20:00 13.7 C 78 % 9.94 C
3594 26-08-2018 11:25:00 13.8 C 75 % 9.45 C
3595 26-08-2018 11:30:00 14.2 C 69 % 8.6 C
3596 26-08-2018 11:35:00 14.7 C 67 % 8.64 C
3597 26-08-2018 11:40:00 15 C 67 % 8.93 C
3598 26-08-2018 11:45:00 15.3 C 66 % 8.99 C
3599 26-08-2018 11:50:00 15.5 C 66 % 9.18 C
3600 26-08-2018 11:55:00 15.7 C 64 % 8.92 C
Sensor: Nr:Datum:Temp:Feuchte:Taupunkt:
Aussen-T/F 3601 26-08-2018 12:00:00 16 C 62 % 8.73 C
3602 26-08-2018 12:05:00 16.2 C 60 % 8.43 C
3603 26-08-2018 12:10:00 16.3 C 55 % 7.25 C
3604 26-08-2018 12:15:00 16.4 C 57 % 7.87 C
3605 26-08-2018 12:20:00 16.5 C 56 % 7.7 C
3606 26-08-2018 12:25:00 16.6 C 56 % 7.8 C
3607 26-08-2018 12:30:00 16.7 C 54 % 7.36 C
3608 26-08-2018 12:35:00 16.8 C 56 % 7.98 C
3609 26-08-2018 12:40:00 16.8 C 53 % 7.18 C
3610 26-08-2018 12:45:00 17 C 50 % 6.51 C
3611 26-08-2018 12:50:00 17.2 C 50 % 6.7 C
3612 26-08-2018 12:55:00 17.4 C 48 % 6.29 C
3613 26-08-2018 13:00:00 17.6 C 47 % 6.17 C
3614 26-08-2018 13:05:00 17.7 C 46 % 5.95 C
3615 26-08-2018 13:10:00 17.8 C 47 % 6.35 C
3616 26-08-2018 13:15:00 17.8 C 46 % 6.04 C
3617 26-08-2018 13:20:00 18 C 49 % 7.14 C
3618 26-08-2018 13:25:00 18.1 C 46 % 6.31 C
3619 26-08-2018 13:30:00 18.2 C 48 % 7.02 C
3620 26-08-2018 13:35:00 18.3 C 47 % 6.8 C
3621 26-08-2018 13:40:00 18.4 C 46 % 6.58 C
3622 26-08-2018 13:45:00 18.5 C 46 % 6.67 C
3623 26-08-2018 13:50:00 18.7 C 45 % 6.54 C
3624 26-08-2018 13:55:00 18.8 C 44 % 6.3 C
3625 26-08-2018 14:00:00 18.8 C 44 % 6.3 C
Sensor: Nr:Datum:Temp:Feuchte:Taupunkt:
Aussen-T/F 3626 26-08-2018 14:05:00 18.9 C 44 % 6.39 C
3627 26-08-2018 14:10:00 19 C 43 % 6.15 C
3628 26-08-2018 14:15:00 19.2 C 44 % 6.66 C
3629 26-08-2018 14:20:00 19.4 C 41 % 5.82 C
3630 26-08-2018 14:25:00 19.6 C 42 % 6.35 C
3631 26-08-2018 14:30:00 19.6 C 42 % 6.35 C
3632 26-08-2018 14:35:00 19.7 C 41 % 6.09 C
3633 26-08-2018 14:40:00 19.7 C 42 % 6.44 C
3634 26-08-2018 14:45:00 19.9 C 41 % 6.27 C
3635 26-08-2018 14:50:00 20.1 C 41 % 6.45 C
3636 26-08-2018 14:55:00 20.2 C 41 % 6.54 C
3637 26-08-2018 15:00:00 20.4 C 41 % 6.72 C
3638 26-08-2018 15:05:00 20.5 C 42 % 7.16 C
3639 26-08-2018 15:10:00 20.5 C 41 % 6.81 C
3640 26-08-2018 15:15:00 20.3 C 42 % 6.98 C
3641 26-08-2018 15:20:00 20.4 C 42 % 7.07 C
3642 26-08-2018 15:25:00 20.7 C 41 % 6.99 C
3643 26-08-2018 15:30:00 20.8 C 41 % 7.08 C
3644 26-08-2018 15:35:00 20.6 C 42 % 7.25 C
3645 26-08-2018 15:40:00 20.5 C 42 % 7.16 C
3646 26-08-2018 15:45:00 20.4 C 42 % 7.07 C
3647 26-08-2018 15:50:00 20.5 C 43 % 7.5 C
3648 26-08-2018 15:55:00 20.8 C 42 % 7.43 C
3649 26-08-2018 16:00:00 20.9 C 40 % 6.81 C
3650 26-08-2018 16:05:00 20.8 C 40 % 6.72 C
Sensor: Nr:Datum:Temp:Feuchte:Taupunkt:
Aussen-T/F 3651 26-08-2018 16:10:00 20.7 C 42 % 7.34 C
3652 26-08-2018 16:15:00 20.9 C 41 % 7.17 C
3653 26-08-2018 16:20:00 21.4 C 40 % 7.25 C
3654 26-08-2018 16:25:00 21.4 C 40 % 7.25 C
3655 26-08-2018 16:30:00 21.9 C 41 % 8.06 C
3656 26-08-2018 16:35:00 22.6 C 36 % 6.78 C
3657 26-08-2018 16:40:00 22.8 C 36 % 6.96 C
3658 26-08-2018 16:45:00 22.6 C 37 % 7.18 C
3659 26-08-2018 16:50:00 22.2 C 37 % 6.83 C
3660 26-08-2018 16:55:00 21.8 C 37 % 6.48 C
3661 26-08-2018 17:00:00 21.4 C 38 % 6.51 C
3662 26-08-2018 17:05:00 21.5 C 39 % 6.97 C
3663 26-08-2018 17:10:00 21.9 C 38 % 6.95 C
3664 26-08-2018 17:15:00 22.2 C 39 % 7.6 C
3665 26-08-2018 17:20:00 22.2 C 38 % 7.22 C
3666 26-08-2018 17:25:00 22.1 C 39 % 7.51 C
3667 26-08-2018 17:30:00 21.9 C 38 % 6.95 C
3668 26-08-2018 17:35:00 21.9 C 38 % 6.95 C
3669 26-08-2018 17:40:00 21.7 C 37 % 6.39 C
3670 26-08-2018 17:45:00 21.6 C 37 % 6.3 C
3671 26-08-2018 17:50:00 21.4 C 38 % 6.51 C
3672 26-08-2018 17:55:00 21.2 C 37 % 5.94 C
3673 26-08-2018 18:00:00 21.1 C 37 % 5.86 C
3674 26-08-2018 18:05:00 21.1 C 38 % 6.24 C
3675 26-08-2018 18:10:00 21.2 C 39 % 6.71 C
Sensor: Nr:Datum:Temp:Feuchte:Taupunkt:
Aussen-T/F 3676 26-08-2018 18:15:00 21.3 C 37 % 6.03 C
3677 26-08-2018 18:20:00 21.3 C 37 % 6.03 C
3678 26-08-2018 18:25:00 21.3 C 37 % 6.03 C
3679 26-08-2018 18:30:00 21.2 C 38 % 6.33 C
3680 26-08-2018 18:35:00 21.1 C 38 % 6.24 C
3681 26-08-2018 18:40:00 21.1 C 39 % 6.62 C
3682 26-08-2018 18:45:00 20.9 C 37 % 5.68 C
3683 26-08-2018 18:50:00 20.8 C 37 % 5.59 C
3684 26-08-2018 18:55:00 20.7 C 39 % 6.26 C
3685 26-08-2018 19:00:00 20.8 C 38 % 5.97 C
3686 26-08-2018 19:05:00 20.9 C 38 % 6.06 C
3687 26-08-2018 19:10:00 21.1 C 38 % 6.24 C
3688 26-08-2018 19:15:00 21.1 C 38 % 6.24 C
3689 26-08-2018 19:20:00 20.9 C 38 % 6.06 C
3690 26-08-2018 19:25:00 20.7 C 39 % 6.26 C
3691 26-08-2018 19:30:00 20.6 C 39 % 6.17 C
3692 26-08-2018 19:35:00 20.4 C 40 % 6.36 C
3693 26-08-2018 19:40:00 20.3 C 40 % 6.27 C
3694 26-08-2018 19:45:00 20.2 C 42 % 6.89 C
3695 26-08-2018 19:50:00 20.1 C 44 % 7.48 C
3696 26-08-2018 19:55:00 19.8 C 44 % 7.21 C
3697 26-08-2018 20:00:00 19.6 C 45 % 7.35 C
3698 26-08-2018 20:05:00 19.3 C 46 % 7.4 C
3699 26-08-2018 20:10:00 19.1 C 47 % 7.53 C
3700 26-08-2018 20:15:00 18.7 C 48 % 7.48 C
Sensor: Nr:Datum:Temp:Feuchte:Taupunkt:
Aussen-T/F 3701 26-08-2018 20:20:00 18.3 C 48 % 7.11 C
3702 26-08-2018 20:25:00 18.1 C 49 % 7.23 C
3703 26-08-2018 20:30:00 17.8 C 51 % 7.54 C
3704 26-08-2018 20:35:00 17.5 C 51 % 7.26 C
3705 26-08-2018 20:40:00 17.2 C 51 % 6.98 C
3706 26-08-2018 20:45:00 16.9 C 50 % 6.42 C
3707 26-08-2018 20:50:00 16.7 C 51 % 6.52 C
3708 26-08-2018 20:55:00 16.4 C 52 % 6.53 C
3709 26-08-2018 21:00:00 16.2 C 53 % 6.62 C
3710 26-08-2018 21:05:00 16 C 54 % 6.71 C
3711 26-08-2018 21:10:00 15.8 C 53 % 6.25 C
3712 26-08-2018 21:15:00 15.7 C 54 % 6.43 C
3713 26-08-2018 21:20:00 15.6 C 55 % 6.6 C
3714 26-08-2018 21:25:00 15.4 C 55 % 6.42 C
3715 26-08-2018 21:30:00 15.2 C 55 % 6.23 C
3716 26-08-2018 21:35:00 15.1 C 55 % 6.14 C
3717 26-08-2018 21:40:00 14.9 C 56 % 6.21 C
3718 26-08-2018 21:45:00 14.8 C 57 % 6.37 C
3719 26-08-2018 21:50:00 14.7 C 56 % 6.02 C
3720 26-08-2018 21:55:00 14.6 C 57 % 6.19 C
3721 26-08-2018 22:00:00 14.6 C 58 % 6.44 C
3722 26-08-2018 22:05:00 14.6 C 57 % 6.19 C
3723 26-08-2018 22:10:00 14.6 C 58 % 6.44 C
3724 26-08-2018 22:15:00 14.7 C 58 % 6.53 C
3725 26-08-2018 22:20:00 14.7 C 58 % 6.53 C
Sensor: Nr:Datum:Temp:Feuchte:Taupunkt:
Aussen-T/F 3726 26-08-2018 22:25:00 14.7 C 57 % 6.28 C
3727 26-08-2018 22:30:00 14.7 C 56 % 6.02 C
3728 26-08-2018 22:35:00 14.7 C 56 % 6.02 C
3729 26-08-2018 22:40:00 14.8 C 58 % 6.63 C
3730 26-08-2018 22:45:00 14.8 C 57 % 6.37 C
3731 26-08-2018 22:50:00 14.9 C 59 % 6.97 C
3732 26-08-2018 22:55:00 15.1 C 58 % 6.91 C
3733 26-08-2018 23:00:00 15.2 C 57 % 6.75 C
3734 26-08-2018 23:05:00 15.4 C 58 % 7.19 C
3735 26-08-2018 23:10:00 15.4 C 57 % 6.93 C
3736 26-08-2018 23:15:00 15.6 C 57 % 7.12 C
3737 26-08-2018 23:20:00 15.6 C 57 % 7.12 C
3738 26-08-2018 23:25:00 15.5 C 56 % 6.77 C
3739 26-08-2018 23:30:00 15.4 C 56 % 6.68 C
3740 26-08-2018 23:35:00 15.4 C 57 % 6.93 C
3741 26-08-2018 23:40:00 15.3 C 57 % 6.84 C
3742 26-08-2018 23:45:00 15.3 C 58 % 7.09 C
3743 26-08-2018 23:50:00 15.4 C 59 % 7.44 C
3744 26-08-2018 23:55:00 15.5 C 56 % 6.77 C
3745 27-08-2018 00:00:00 15.7 C 56 % 6.96 C
3746 27-08-2018 00:05:00 15.8 C 56 % 7.05 C
3747 27-08-2018 00:10:00 16 C 55 % 6.97 C
3748 27-08-2018 00:15:00 16.1 C 56 % 7.33 C
3749 27-08-2018 00:20:00 16.1 C 57 % 7.59 C
3750 27-08-2018 00:25:00 16.1 C 56 % 7.33 C
Sensor: Nr:Datum:Temp:Feuchte:Taupunkt:
Aussen-T/F 3751 27-08-2018 00:30:00 16 C 56 % 7.24 C
3752 27-08-2018 00:35:00 15.9 C 56 % 7.14 C
3753 27-08-2018 00:40:00 15.9 C 57 % 7.4 C
3754 27-08-2018 00:45:00 15.9 C 57 % 7.4 C
3755 27-08-2018 00:50:00 16 C 54 % 6.71 C
3756 27-08-2018 00:55:00 16.1 C 58 % 7.84 C
3757 27-08-2018 01:00:00 16.1 C 57 % 7.59 C
3758 27-08-2018 01:05:00 16.1 C 57 % 7.59 C
3759 27-08-2018 01:10:00 16.2 C 52 % 6.34 C
3760 27-08-2018 01:15:00 16.6 C 50 % 6.15 C
3761 27-08-2018 01:20:00 16.8 C 52 % 6.9 C
3762 27-08-2018 01:25:00 16.9 C 53 % 7.27 C
3763 27-08-2018 01:30:00 16.9 C 51 % 6.71 C
3764 27-08-2018 01:35:00 16.9 C 50 % 6.42 C
3765 27-08-2018 01:40:00 17 C 51 % 6.8 C
3766 27-08-2018 01:45:00 17.1 C 53 % 7.45 C
3767 27-08-2018 01:50:00 17.2 C 54 % 7.82 C
3768 27-08-2018 01:55:00 17.1 C 52 % 7.18 C
3769 27-08-2018 02:00:00 17.1 C 57 % 8.52 C
3770 27-08-2018 02:05:00 16.9 C 62 % 9.58 C
3771 27-08-2018 02:10:00 16.6 C 66 % 10.23 C
3772 27-08-2018 02:15:00 16.3 C 66 % 9.94 C
3773 27-08-2018 02:20:00 16 C 69 % 10.32 C
3774 27-08-2018 02:25:00 15.7 C 71 % 10.46 C
3775 27-08-2018 02:30:00 15.5 C 71 % 10.27 C
Sensor: Nr:Datum:Temp:Feuchte:Taupunkt:
Aussen-T/F 3776 27-08-2018 02:35:00 15.3 C 71 % 10.08 C
3777 27-08-2018 02:40:00 15.1 C 68 % 9.24 C
3778 27-08-2018 02:45:00 15.2 C 67 % 9.12 C
3779 27-08-2018 02:50:00 15.2 C 69 % 9.56 C
3780 27-08-2018 02:55:00 15.3 C 68 % 9.43 C
3781 27-08-2018 03:00:00 15.3 C 65 % 8.77 C
3782 27-08-2018 03:05:00 15.4 C 66 % 9.09 C
3783 27-08-2018 03:10:00 15.6 C 69 % 9.94 C
3784 27-08-2018 03:15:00 15.6 C 69 % 9.94 C
3785 27-08-2018 03:20:00 15.6 C 70 % 10.15 C
3786 27-08-2018 03:25:00 15.5 C 66 % 9.18 C
3787 27-08-2018 03:30:00 15.5 C 67 % 9.41 C
3788 27-08-2018 03:35:00 15.5 C 66 % 9.18 C
3789 27-08-2018 03:40:00 15.6 C 65 % 9.05 C
3790 27-08-2018 03:45:00 15.6 C 65 % 9.05 C
3791 27-08-2018 03:50:00 15.7 C 64 % 8.92 C
3792 27-08-2018 03:55:00 15.8 C 65 % 9.24 C
3793 27-08-2018 04:00:00 15.9 C 65 % 9.34 C
3794 27-08-2018 04:05:00 16.1 C 59 % 8.09 C
3795 27-08-2018 04:10:00 16.3 C 61 % 8.77 C
3796 27-08-2018 04:15:00 16.4 C 62 % 9.11 C
3797 27-08-2018 04:20:00 16.4 C 63 % 9.35 C
3798 27-08-2018 04:25:00 16.3 C 64 % 9.48 C
3799 27-08-2018 04:30:00 16.3 C 68 % 10.39 C
3800 27-08-2018 04:35:00 16.1 C 67 % 9.98 C
Sensor: Nr:Datum:Temp:Feuchte:Taupunkt:
Aussen-T/F 3801 27-08-2018 04:40:00 15.9 C 68 % 10.01 C
3802 27-08-2018 04:45:00 15.7 C 69 % 10.03 C
3803 27-08-2018 04:50:00 15.6 C 68 % 9.72 C
3804 27-08-2018 04:55:00 15.5 C 68 % 9.63 C
3805 27-08-2018 05:00:00 15.5 C 70 % 10.06 C
3806 27-08-2018 05:05:00 15.4 C 69 % 9.75 C
3807 27-08-2018 05:10:00 15.5 C 69 % 9.84 C
3808 27-08-2018 05:15:00 15.5 C 68 % 9.63 C
3809 27-08-2018 05:20:00 15.6 C 67 % 9.5 C
3810 27-08-2018 05:25:00 15.6 C 67 % 9.5 C
3811 27-08-2018 05:30:00 15.6 C 65 % 9.05 C
3812 27-08-2018 05:35:00 15.7 C 63 % 8.68 C
3813 27-08-2018 05:40:00 15.9 C 63 % 8.87 C
3814 27-08-2018 05:45:00 16.1 C 62 % 8.82 C
3815 27-08-2018 05:50:00 16.2 C 61 % 8.68 C
3816 27-08-2018 05:55:00 16.2 C 63 % 9.16 C
3817 27-08-2018 06:00:00 16.3 C 65 % 9.71 C
3818 27-08-2018 06:05:00 16.3 C 70 % 10.82 C
3819 27-08-2018 06:10:00 16.1 C 72 % 11.06 C
3820 27-08-2018 06:15:00 15.8 C 74 % 11.18 C
3821 27-08-2018 06:20:00 15.7 C 76 % 11.48 C
3822 27-08-2018 06:25:00 15.4 C 77 % 11.39 C
3823 27-08-2018 06:30:00 15.3 C 78 % 11.49 C
3824 27-08-2018 06:35:00 15.1 C 78 % 11.3 C
3825 27-08-2018 06:40:00 15.1 C 78 % 11.3 C
Sensor: Nr:Datum:Temp:Feuchte:Taupunkt:
Aussen-T/F 3826 27-08-2018 06:45:00 15.1 C 79 % 11.49 C
3827 27-08-2018 06:50:00 15.1 C 79 % 11.49 C
3828 27-08-2018 06:55:00 15.2 C 78 % 11.39 C
3829 27-08-2018 07:00:00 15.3 C 78 % 11.49 C
3830 27-08-2018 07:05:00 15.4 C 78 % 11.59 C
3831 27-08-2018 07:10:00 15.5 C 79 % 11.88 C
3832 27-08-2018 07:15:00 15.6 C 78 % 11.78 C
3833 27-08-2018 07:20:00 15.6 C 79 % 11.97 C
3834 27-08-2018 07:25:00 15.6 C 80 % 12.16 C
3835 27-08-2018 07:30:00 15.6 C 82 % 12.54 C
3836 27-08-2018 07:35:00 15.6 C 83 % 12.72 C
3837 27-08-2018 07:40:00 15.4 C 84 % 12.71 C
3838 27-08-2018 07:45:00 15.3 C 84 % 12.61 C
3839 27-08-2018 07:50:00 15.3 C 85 % 12.79 C
3840 27-08-2018 07:55:00 15.2 C 86 % 12.88 C
3841 27-08-2018 08:00:00 15.1 C 86 % 12.78 C
3842 27-08-2018 08:05:00 15.1 C 86 % 12.78 C
3843 27-08-2018 08:10:00 15 C 86 % 12.68 C
3844 27-08-2018 08:15:00 15 C 85 % 12.5 C
3845 27-08-2018 08:20:00 15 C 85 % 12.5 C
3846 27-08-2018 08:25:00 15.1 C 85 % 12.6 C
3847 27-08-2018 08:30:00 15.1 C 85 % 12.6 C
3848 27-08-2018 08:35:00 15.1 C 85 % 12.6 C
3849 27-08-2018 08:40:00 15.2 C 84 % 12.52 C
3850 27-08-2018 08:45:00 15.2 C 85 % 12.7 C
Sensor: Nr:Datum:Temp:Feuchte:Taupunkt:
Aussen-T/F 3851 27-08-2018 08:50:00 15.3 C 84 % 12.61 C
3852 27-08-2018 08:55:00 15.3 C 84 % 12.61 C
3853 27-08-2018 09:00:00 15.3 C 84 % 12.61 C
3854 27-08-2018 09:05:00 15.4 C 84 % 12.71 C
3855 27-08-2018 09:10:00 15.4 C 83 % 12.53 C
3856 27-08-2018 09:15:00 15.5 C 83 % 12.63 C
3857 27-08-2018 09:20:00 15.6 C 83 % 12.72 C
3858 27-08-2018 09:25:00 15.6 C 83 % 12.72 C
3859 27-08-2018 09:30:00 15.6 C 83 % 12.72 C
3860 27-08-2018 09:35:00 15.7 C 83 % 12.82 C
3861 27-08-2018 09:40:00 15.7 C 83 % 12.82 C
3862 27-08-2018 09:45:00 15.7 C 82 % 12.64 C
3863 27-08-2018 09:50:00 15.8 C 82 % 12.74 C
3864 27-08-2018 09:55:00 15.8 C 82 % 12.74 C
3865 27-08-2018 10:00:00 15.9 C 82 % 12.83 C
3866 27-08-2018 10:05:00 15.9 C 82 % 12.83 C
3867 27-08-2018 10:10:00 16.1 C 82 % 13.03 C
3868 27-08-2018 10:15:00 16.1 C 81 % 12.84 C
3869 27-08-2018 10:20:00 16.2 C 81 % 12.94 C
3870 27-08-2018 10:25:00 16.2 C 81 % 12.94 C
3871 27-08-2018 10:30:00 16.2 C 82 % 13.13 C
3872 27-08-2018 10:35:00 16.2 C 81 % 12.94 C
3873 27-08-2018 10:40:00 16.2 C 81 % 12.94 C
3874 27-08-2018 10:45:00 16.2 C 81 % 12.94 C
3875 27-08-2018 10:50:00 16.3 C 81 % 13.04 C
Sensor: Nr:Datum:Temp:Feuchte:Taupunkt:
Aussen-T/F 3876 27-08-2018 10:55:00 16.3 C 81 % 13.04 C
3877 27-08-2018 11:00:00 16.4 C 81 %